<?xml version='1.0' encoding='UTF-8'?><gpx version="1.1" creator="JPX - https://github.com/jenetics/jpx" xmlns="http://www.topografix.com/GPX/1/1"><trk><trkseg><trkpt lat="46.44182039403541" lon="12.364619027033903"><ele>1131.0</ele><time>2026-04-23T16:14:54.999Z</time></trkpt><trkpt lat="46.44185002091293" lon="12.364734797525568"><ele>1131.0</ele><time>2026-04-23T16:14:56.999Z</time></trkpt><trkpt lat="46.44174015682024" lon="12.364770058956822"><ele>1131.0</ele><time>2026-04-23T16:15:01.999Z</time></trkpt><trkpt lat="46.44167427545236" lon="12.364730678120992"><ele>1131.0</ele><time>2026-04-23T16:15:02.999Z</time></trkpt><trkpt lat="46.44159919460628" lon="12.36468287065527"><ele>1131.0</ele><time>2026-04-23T16:15:03.999Z</time></trkpt><trkpt lat="46.44152054405341" lon="12.364621501715087"><ele>1131.0</ele><time>2026-04-23T16:15:04.999Z</time></trkpt><trkpt lat="46.44143898379233" lon="12.364580039767064"><ele>1131.0</ele><time>2026-04-23T16:15:05.998Z</time></trkpt><trkpt lat="46.4413588387684" lon="12.364521428873628"><ele>1131.0</ele><time>2026-04-23T16:15:06.998Z</time></trkpt><trkpt lat="46.441278552477954" lon="12.364455487976677"><ele>1131.0</ele><time>2026-04-23T16:15:07.998Z</time></trkpt><trkpt lat="46.4412158668585" lon="12.364383985076493"><ele>1131.0</ele><time>2026-04-23T16:15:08.998Z</time></trkpt><trkpt lat="46.44114804880829" lon="12.36432378660328"><ele>1131.0</ele><time>2026-04-23T16:15:09.998Z</time></trkpt><trkpt lat="46.44107952671939" lon="12.364259855827516"><ele>1131.0</ele><time>2026-04-23T16:15:10.998Z</time></trkpt><trkpt lat="46.441009255250755" lon="12.364187850296178"><ele>1128.6666666666667</ele><time>2026-04-23T16:15:11.998Z</time></trkpt><trkpt lat="46.440942477194646" lon="12.364111720110474"><ele>1126.3333333333333</ele><time>2026-04-23T16:15:12.998Z</time></trkpt><trkpt lat="46.440862171949256" lon="12.364048562291737"><ele>1124.0</ele><time>2026-04-23T16:15:13.998Z</time></trkpt><trkpt lat="46.440798158769056" lon="12.363971526273785"><ele>1121.6666666666665</ele><time>2026-04-23T16:15:14.998Z</time></trkpt><trkpt lat="46.44073339001122" lon="12.363900611623952"><ele>1119.3333333333333</ele><time>2026-04-23T16:15:15.998Z</time></trkpt><trkpt lat="46.44067323090585" lon="12.36383504049418"><ele>1117.0</ele><time>2026-04-23T16:15:16.998Z</time></trkpt><trkpt lat="46.44062564588298" lon="12.363772202253491"><ele>1117.0</ele><time>2026-04-23T16:15:17.998Z</time></trkpt><trkpt lat="46.440563223872836" lon="12.363748607785837"><ele>1117.0</ele><time>2026-04-23T16:15:18.998Z</time></trkpt><trkpt lat="46.44048834390023" lon="12.363755391773335"><ele>1117.0</ele><time>2026-04-23T16:15:19.998Z</time></trkpt><trkpt lat="46.44041128114478" lon="12.363830655392444"><ele>1117.0</ele><time>2026-04-23T16:15:20.998Z</time></trkpt><trkpt lat="46.44033752622315" lon="12.363894390877501"><ele>1117.0</ele><time>2026-04-23T16:15:21.998Z</time></trkpt><trkpt lat="46.44026801252512" lon="12.363962161883002"><ele>1117.0</ele><time>2026-04-23T16:15:22.998Z</time></trkpt><trkpt lat="46.44019806275644" lon="12.36402404560842"><ele>1112.8333333333333</ele><time>2026-04-23T16:15:24Z</time></trkpt><trkpt lat="46.44013191940258" lon="12.364089683677133"><ele>1108.6666666666665</ele><time>2026-04-23T16:15:25Z</time></trkpt><trkpt lat="46.440063895142806" lon="12.364138187820354"><ele>1104.5</ele><time>2026-04-23T16:15:26Z</time></trkpt><trkpt lat="46.43999528579737" lon="12.364179218941326"><ele>1100.3333333333333</ele><time>2026-04-23T16:15:27Z</time></trkpt><trkpt lat="46.43993073584665" lon="12.36420966307786"><ele>1096.1666666666667</ele><time>2026-04-23T16:15:28Z</time></trkpt><trkpt lat="46.439852832255696" lon="12.364159760837735"><ele>1092.0</ele><time>2026-04-23T16:15:29Z</time></trkpt><trkpt lat="46.439794190839706" lon="12.36410106115619"><ele>1092.0</ele><time>2026-04-23T16:15:30Z</time></trkpt><trkpt lat="46.4397126525493" lon="12.36403678242592"><ele>1092.0</ele><time>2026-04-23T16:15:31Z</time></trkpt><trkpt lat="46.439637331342574" lon="12.363947485555675"><ele>1092.0</ele><time>2026-04-23T16:15:32Z</time></trkpt><trkpt lat="46.439558601973005" lon="12.363866638338997"><ele>1092.0</ele><time>2026-04-23T16:15:33Z</time></trkpt><trkpt lat="46.439481700386985" lon="12.363795286517442"><ele>1092.0</ele><time>2026-04-23T16:15:34Z</time></trkpt><trkpt lat="46.43938434289705" lon="12.363730139346115"><ele>1093.0</ele><time>2026-04-23T16:15:35Z</time></trkpt><trkpt lat="46.43925208786925" lon="12.363672130256614"><ele>1094.0</ele><time>2026-04-23T16:15:36Z</time></trkpt><trkpt lat="46.439114336641666" lon="12.363636980651322"><ele>1095.0</ele><time>2026-04-23T16:15:37Z</time></trkpt><trkpt lat="46.439005032740624" lon="12.363628131284804"><ele>1096.0</ele><time>2026-04-23T16:15:38Z</time></trkpt><trkpt lat="46.43890937283481" lon="12.363608280519868"><ele>1096.0</ele><time>2026-04-23T16:15:39Z</time></trkpt><trkpt lat="46.43881811728716" lon="12.363584443957752"><ele>1096.0</ele><time>2026-04-23T16:15:40Z</time></trkpt><trkpt lat="46.438723530269165" lon="12.363568369832372"><ele>1096.0</ele><time>2026-04-23T16:15:41Z</time></trkpt><trkpt lat="46.43863476681248" lon="12.36353378963255"><ele>1096.0</ele><time>2026-04-23T16:15:42Z</time></trkpt><trkpt lat="46.43855614520499" lon="12.363506138150747"><ele>1096.0</ele><time>2026-04-23T16:15:43Z</time></trkpt><trkpt lat="46.43847943393521" lon="12.36346025476419"><ele>1096.0</ele><time>2026-04-23T16:15:44Z</time></trkpt><trkpt lat="46.43839606342566" lon="12.363426295690688"><ele>1093.0</ele><time>2026-04-23T16:15:45Z</time></trkpt><trkpt lat="46.43831166809516" lon="12.363413292182102"><ele>1090.0</ele><time>2026-04-23T16:15:46Z</time></trkpt><trkpt lat="46.43822179370305" lon="12.363415330828857"><ele>1087.0</ele><time>2026-04-23T16:15:47Z</time></trkpt><trkpt lat="46.438128854409754" lon="12.363426501973885"><ele>1084.0</ele><time>2026-04-23T16:15:48Z</time></trkpt><trkpt lat="46.43803386046783" lon="12.363433634121375"><ele>1081.0</ele><time>2026-04-23T16:15:49Z</time></trkpt><trkpt lat="46.43794742268597" lon="12.363495237546331"><ele>1077.8</ele><time>2026-04-23T16:15:50Z</time></trkpt><trkpt lat="46.4378744360229" lon="12.363587286084913"><ele>1074.6</ele><time>2026-04-23T16:15:51Z</time></trkpt><trkpt lat="46.43780436167179" lon="12.363684291936266"><ele>1071.4</ele><time>2026-04-23T16:15:52Z</time></trkpt><trkpt lat="46.43772025979823" lon="12.363773712206104"><ele>1068.2</ele><time>2026-04-23T16:15:53Z</time></trkpt><trkpt lat="46.43762981187912" lon="12.363834383540055"><ele>1065.0</ele><time>2026-04-23T16:15:54Z</time></trkpt><trkpt lat="46.43755985277567" lon="12.363897520888587"><ele>1063.5</ele><time>2026-04-23T16:15:55Z</time></trkpt><trkpt lat="46.437487835418146" lon="12.363962569367992"><ele>1062.0</ele><time>2026-04-23T16:15:57Z</time></trkpt><trkpt lat="46.43740017065565" lon="12.364007399133516"><ele>1060.5</ele><time>2026-04-23T16:16:00Z</time></trkpt><trkpt lat="46.437330258868776" lon="12.364024283272576"><ele>1059.0</ele><time>2026-04-23T16:16:01Z</time></trkpt><trkpt lat="46.4372193922578" lon="12.36407179656236"><ele>1057.5</ele><time>2026-04-23T16:16:03Z</time></trkpt><trkpt lat="46.43715338172982" lon="12.36408862585059"><ele>1056.0</ele><time>2026-04-23T16:16:03.999Z</time></trkpt><trkpt lat="46.43708987842745" lon="12.36407210262829"><ele>1054.5</ele><time>2026-04-23T16:16:04.999Z</time></trkpt><trkpt lat="46.437041117429125" lon="12.364167124158374"><ele>1053.0</ele><time>2026-04-23T16:16:05.999Z</time></trkpt><trkpt lat="46.43698795488455" lon="12.364265889070635"><ele>1051.5</ele><time>2026-04-23T16:16:06.999Z</time></trkpt><trkpt lat="46.436931727847586" lon="12.364369744262278"><ele>1050.0</ele><time>2026-04-23T16:16:07.999Z</time></trkpt><trkpt lat="46.436907970296446" lon="12.36448018361287"><ele>1048.5</ele><time>2026-04-23T16:16:08.999Z</time></trkpt><trkpt lat="46.4368617706333" lon="12.364546649307133"><ele>1047.0</ele><time>2026-04-23T16:16:09.999Z</time></trkpt><trkpt lat="46.43680693297223" lon="12.364676508635286"><ele>1045.5</ele><time>2026-04-23T16:16:11.999Z</time></trkpt><trkpt lat="46.436710990841995" lon="12.364768962625092"><ele>1044.0</ele><time>2026-04-23T16:16:13.999Z</time></trkpt><trkpt lat="46.43657746952115" lon="12.364805958943766"><ele>1042.5</ele><time>2026-04-23T16:16:15.999Z</time></trkpt><trkpt lat="46.436447377465626" lon="12.364795385144134"><ele>1041.0</ele><time>2026-04-23T16:16:17.999Z</time></trkpt><trkpt lat="46.43637456997121" lon="12.364768309833847"><ele>1041.0</ele><time>2026-04-23T16:16:18.999Z</time></trkpt><trkpt lat="46.436307451253015" lon="12.364731805540073"><ele>1041.0</ele><time>2026-04-23T16:16:19.999Z</time></trkpt><trkpt lat="46.43622278916497" lon="12.364713832394546"><ele>1041.0</ele><time>2026-04-23T16:16:21.999Z</time></trkpt><trkpt lat="46.436165898185244" lon="12.364872703190468"><ele>1041.0</ele><time>2026-04-23T16:16:26.999Z</time></trkpt><trkpt lat="46.43621547501284" lon="12.365019448766741"><ele>1041.0</ele><time>2026-04-23T16:16:27.999Z</time></trkpt><trkpt lat="46.436251309889556" lon="12.365124801971035"><ele>1038.8</ele><time>2026-04-23T16:16:28.999Z</time></trkpt><trkpt lat="46.43628672342954" lon="12.365220840164465"><ele>1036.6</ele><time>2026-04-23T16:16:30.999Z</time></trkpt><trkpt lat="46.43618626776547" lon="12.36523284013943"><ele>1034.4</ele><time>2026-04-23T16:16:32.999Z</time></trkpt><trkpt lat="46.436120942379205" lon="12.36507970928384"><ele>1032.2</ele><time>2026-04-23T16:16:33.999Z</time></trkpt><trkpt lat="46.43604050800735" lon="12.364974030337512"><ele>1030.0</ele><time>2026-04-23T16:16:34.999Z</time></trkpt><trkpt lat="46.435955776153946" lon="12.364935304760575"><ele>1030.0</ele><time>2026-04-23T16:16:35.999Z</time></trkpt><trkpt lat="46.435877161279514" lon="12.364958294305257"><ele>1030.0</ele><time>2026-04-23T16:16:36.999Z</time></trkpt><trkpt lat="46.435788753923205" lon="12.365057392009476"><ele>1030.0</ele><time>2026-04-23T16:16:37.999Z</time></trkpt><trkpt lat="46.43571681546996" lon="12.36521321802057"><ele>1030.0</ele><time>2026-04-23T16:16:38.999Z</time></trkpt><trkpt lat="46.43565195341461" lon="12.365394784279461"><ele>1029.0</ele><time>2026-04-23T16:16:39.999Z</time></trkpt><trkpt lat="46.43558004336067" lon="12.365593894711687"><ele>1028.0</ele><time>2026-04-23T16:16:40.999Z</time></trkpt><trkpt lat="46.43551477865648" lon="12.36580450113794"><ele>1027.0</ele><time>2026-04-23T16:16:41.999Z</time></trkpt><trkpt lat="46.435507441152" lon="12.366046393453345"><ele>1027.0</ele><time>2026-04-23T16:16:42.999Z</time></trkpt><trkpt lat="46.435513632604625" lon="12.36627384408343"><ele>1027.0</ele><time>2026-04-23T16:16:43.999Z</time></trkpt><trkpt lat="46.435517937030056" lon="12.366468987719935"><ele>1027.0</ele><time>2026-04-23T16:16:44.999Z</time></trkpt><trkpt lat="46.435523848841996" lon="12.366636540038694"><ele>1027.0</ele><time>2026-04-23T16:16:45.999Z</time></trkpt><trkpt lat="46.43551563486647" lon="12.366788139823765"><ele>1024.25</ele><time>2026-04-23T16:16:46.999Z</time></trkpt><trkpt lat="46.43548097352979" lon="12.366923203594386"><ele>1021.5</ele><time>2026-04-23T16:16:47.999Z</time></trkpt><trkpt lat="46.4353920046105" lon="12.367032402210812"><ele>1018.75</ele><time>2026-04-23T16:16:48.999Z</time></trkpt><trkpt lat="46.435249693012544" lon="12.367107528166251"><ele>1016.0</ele><time>2026-04-23T16:16:49.999Z</time></trkpt><trkpt lat="46.43511431565918" lon="12.367216042737184"><ele>1013.5</ele><time>2026-04-23T16:16:50.999Z</time></trkpt><trkpt lat="46.43499770986663" lon="12.367376319759334"><ele>1011.0</ele><time>2026-04-23T16:16:51.999Z</time></trkpt><trkpt lat="46.43489959705307" lon="12.367542638479614"><ele>1008.5</ele><time>2026-04-23T16:16:52.999Z</time></trkpt><trkpt lat="46.43478025309756" lon="12.36763206865132"><ele>1006.0</ele><time>2026-04-23T16:16:53.999Z</time></trkpt><trkpt lat="46.43463627731558" lon="12.367702019459202"><ele>1006.0</ele><time>2026-04-23T16:16:54.999Z</time></trkpt><trkpt lat="46.434479355198526" lon="12.36775615545282"><ele>1006.0</ele><time>2026-04-23T16:16:55.999Z</time></trkpt><trkpt lat="46.434337775782815" lon="12.36781147644492"><ele>1006.0</ele><time>2026-04-23T16:16:56.999Z</time></trkpt><trkpt lat="46.43420877996777" lon="12.36786077379752"><ele>1006.0</ele><time>2026-04-23T16:16:57.999Z</time></trkpt><trkpt lat="46.43408816046151" lon="12.367899681204115"><ele>1006.0</ele><time>2026-04-23T16:16:58.998Z</time></trkpt><trkpt lat="46.43398529924953" lon="12.367936471364375"><ele>1005.9999999999999</ele><time>2026-04-23T16:16:59.998Z</time></trkpt><trkpt lat="46.43389887419983" lon="12.367957622809953"><ele>1005.9999999999999</ele><time>2026-04-23T16:17:00.998Z</time></trkpt><trkpt lat="46.433820782536955" lon="12.367943483640468"><ele>1006.0</ele><time>2026-04-23T16:17:01.998Z</time></trkpt><trkpt lat="46.43375841669158" lon="12.367866483764132"><ele>1006.0</ele><time>2026-04-23T16:17:02.998Z</time></trkpt><trkpt lat="46.43375010752769" lon="12.36772844415975"><ele>1006.5999999999999</ele><time>2026-04-23T16:17:03.998Z</time></trkpt><trkpt lat="46.43370477508505" lon="12.367558762038286"><ele>1007.1999999999999</ele><time>2026-04-23T16:17:04.998Z</time></trkpt><trkpt lat="46.433670343424765" lon="12.367396103169849"><ele>1007.8000000000001</ele><time>2026-04-23T16:17:05.998Z</time></trkpt><trkpt lat="46.43364417352541" lon="12.36726492331121"><ele>1008.4000000000001</ele><time>2026-04-23T16:17:06.998Z</time></trkpt><trkpt lat="46.43361558806064" lon="12.36717327153517"><ele>1009.0</ele><time>2026-04-23T16:17:07.998Z</time></trkpt><trkpt lat="46.433481288749086" lon="12.367201174876154"><ele>1005.25</ele><time>2026-04-23T16:17:09.998Z</time></trkpt><trkpt lat="46.43345621985103" lon="12.367316701609157"><ele>1001.5</ele><time>2026-04-23T16:17:10.998Z</time></trkpt><trkpt lat="46.43348004737018" lon="12.367472905256495"><ele>997.75</ele><time>2026-04-23T16:17:11.998Z</time></trkpt><trkpt lat="46.43351901052344" lon="12.36767909395337"><ele>994.0</ele><time>2026-04-23T16:17:12.998Z</time></trkpt><trkpt lat="46.43355101464413" lon="12.367902929075623"><ele>991.5</ele><time>2026-04-23T16:17:13.998Z</time></trkpt><trkpt lat="46.433561310329424" lon="12.36811920646784"><ele>989.0</ele><time>2026-04-23T16:17:14.998Z</time></trkpt><trkpt lat="46.43359108977587" lon="12.368315156789459"><ele>986.5</ele><time>2026-04-23T16:17:15.998Z</time></trkpt><trkpt lat="46.43364067625629" lon="12.368496599769081"><ele>984.0</ele><time>2026-04-23T16:17:16.998Z</time></trkpt><trkpt lat="46.43371467159382" lon="12.368679248596315"><ele>984.0</ele><time>2026-04-23T16:17:17.998Z</time></trkpt><trkpt lat="46.433766080223464" lon="12.368842074614449"><ele>984.0</ele><time>2026-04-23T16:17:18.998Z</time></trkpt><trkpt lat="46.43382406115277" lon="12.368983099071652"><ele>984.0</ele><time>2026-04-23T16:17:19.998Z</time></trkpt><trkpt lat="46.43380408327021" lon="12.36914806710577"><ele>984.0</ele><time>2026-04-23T16:17:20.998Z</time></trkpt><trkpt lat="46.43378631822185" lon="12.36933181761304"><ele>979.0</ele><time>2026-04-23T16:17:21.998Z</time></trkpt><trkpt lat="46.43366833014771" lon="12.369489569323093"><ele>974.0</ele><time>2026-04-23T16:17:22.998Z</time></trkpt><trkpt lat="46.43354912916404" lon="12.369650332198553"><ele>969.0</ele><time>2026-04-23T16:17:23.998Z</time></trkpt><trkpt lat="46.43343829432375" lon="12.369839713724856"><ele>967.6666666666667</ele><time>2026-04-23T16:17:24.998Z</time></trkpt><trkpt lat="46.43332835545711" lon="12.370039757421061"><ele>966.3333333333334</ele><time>2026-04-23T16:17:25.998Z</time></trkpt><trkpt lat="46.43320678730377" lon="12.370267631330853"><ele>965.0</ele><time>2026-04-23T16:17:26.998Z</time></trkpt><trkpt lat="46.43309752569307" lon="12.37051608640205"><ele>964.3333333333334</ele><time>2026-04-23T16:17:27.998Z</time></trkpt><trkpt lat="46.43300491941896" lon="12.370777881375139"><ele>963.6666666666667</ele><time>2026-04-23T16:17:28.998Z</time></trkpt><trkpt lat="46.432927276279386" lon="12.371029330495933"><ele>963.0</ele><time>2026-04-23T16:17:30Z</time></trkpt><trkpt lat="46.43285222515823" lon="12.371273616868189"><ele>957.3333333333333</ele><time>2026-04-23T16:17:31Z</time></trkpt><trkpt lat="46.4327844152324" lon="12.371512784237625"><ele>951.6666666666666</ele><time>2026-04-23T16:17:32Z</time></trkpt><trkpt lat="46.43271854407002" lon="12.371720116852837"><ele>946.0</ele><time>2026-04-23T16:17:33Z</time></trkpt><trkpt lat="46.43261678759992" lon="12.371879692857386"><ele>946.0</ele><time>2026-04-23T16:17:34Z</time></trkpt><trkpt lat="46.43251225907849" lon="12.372017446477141"><ele>946.0</ele><time>2026-04-23T16:17:35Z</time></trkpt><trkpt lat="46.43237926801537" lon="12.372133083829032"><ele>946.0</ele><time>2026-04-23T16:17:36Z</time></trkpt><trkpt lat="46.43223677081525" lon="12.37218873620509"><ele>946.0</ele><time>2026-04-23T16:17:37Z</time></trkpt><trkpt lat="46.432094224300684" lon="12.372267630189222"><ele>942.75</ele><time>2026-04-23T16:17:38Z</time></trkpt><trkpt lat="46.431965667269175" lon="12.372337091745544"><ele>939.5</ele><time>2026-04-23T16:17:39Z</time></trkpt><trkpt lat="46.431848842170254" lon="12.372468394108166"><ele>936.25</ele><time>2026-04-23T16:17:40Z</time></trkpt><trkpt lat="46.43174291542481" lon="12.372624174602276"><ele>933.0</ele><time>2026-04-23T16:17:41Z</time></trkpt><trkpt lat="46.431627713087934" lon="12.372747700683687"><ele>933.0</ele><time>2026-04-23T16:17:42Z</time></trkpt><trkpt lat="46.43152061317634" lon="12.37286358062372"><ele>933.0</ele><time>2026-04-23T16:17:43Z</time></trkpt><trkpt lat="46.43144210594728" lon="12.373001768990443"><ele>933.0</ele><time>2026-04-23T16:17:44Z</time></trkpt><trkpt lat="46.431398875418736" lon="12.373182852166456"><ele>933.0</ele><time>2026-04-23T16:17:45Z</time></trkpt><trkpt lat="46.43137061211268" lon="12.373396042771368"><ele>927.75</ele><time>2026-04-23T16:17:46Z</time></trkpt><trkpt lat="46.43128259077264" lon="12.373582780862987"><ele>922.5</ele><time>2026-04-23T16:17:47Z</time></trkpt><trkpt lat="46.43117603078491" lon="12.37373035359261"><ele>917.25</ele><time>2026-04-23T16:17:48Z</time></trkpt><trkpt lat="46.43105820716359" lon="12.373845580526863"><ele>912.0</ele><time>2026-04-23T16:17:49Z</time></trkpt><trkpt lat="46.43092135233208" lon="12.3739129825403"><ele>911.0</ele><time>2026-04-23T16:17:50Z</time></trkpt><trkpt lat="46.43080221531581" lon="12.374009975017612"><ele>910.0</ele><time>2026-04-23T16:17:51Z</time></trkpt><trkpt lat="46.430690514373026" lon="12.374069968079645"><ele>909.0</ele><time>2026-04-23T16:17:52Z</time></trkpt><trkpt lat="46.43060163046286" lon="12.374138323393675"><ele>908.0</ele><time>2026-04-23T16:17:53Z</time></trkpt><trkpt lat="46.430537501053415" lon="12.374247587440106"><ele>908.0</ele><time>2026-04-23T16:17:54Z</time></trkpt><trkpt lat="46.430519225524" lon="12.374402995074274"><ele>908.0</ele><time>2026-04-23T16:17:55Z</time></trkpt><trkpt lat="46.43055784336406" lon="12.37458728588328"><ele>908.0</ele><time>2026-04-23T16:17:56Z</time></trkpt><trkpt lat="46.430621187389114" lon="12.374755194489154"><ele>908.0</ele><time>2026-04-23T16:17:57Z</time></trkpt><trkpt lat="46.43066990396214" lon="12.374911886059975"><ele>907.6666666666667</ele><time>2026-04-23T16:17:58Z</time></trkpt><trkpt lat="46.430688380461156" lon="12.37505083021781"><ele>907.3333333333334</ele><time>2026-04-23T16:17:59Z</time></trkpt><trkpt lat="46.43067765138892" lon="12.375181060782344"><ele>907.0</ele><time>2026-04-23T16:18:00Z</time></trkpt><trkpt lat="46.43061023467159" lon="12.37528583830565"><ele>906.6666666666667</ele><time>2026-04-23T16:18:01Z</time></trkpt><trkpt lat="46.430558158382865" lon="12.375369097469198"><ele>906.3333333333334</ele><time>2026-04-23T16:18:02Z</time></trkpt><trkpt lat="46.43050705174483" lon="12.37543358511254"><ele>906.0</ele><time>2026-04-23T16:18:03Z</time></trkpt><trkpt lat="46.43043828160237" lon="12.37540486312008"><ele>903.5</ele><time>2026-04-23T16:18:04Z</time></trkpt><trkpt lat="46.4303680499634" lon="12.37532935145126"><ele>901.0</ele><time>2026-04-23T16:18:05Z</time></trkpt><trkpt lat="46.43030017998494" lon="12.37518824107178"><ele>898.5</ele><time>2026-04-23T16:18:06Z</time></trkpt><trkpt lat="46.4301983312814" lon="12.375043707534214"><ele>896.0</ele><time>2026-04-23T16:18:07Z</time></trkpt><trkpt lat="46.43009680808766" lon="12.374899636047923"><ele>896.0</ele><time>2026-04-23T16:18:08Z</time></trkpt><trkpt lat="46.429998079691195" lon="12.374788284493253"><ele>896.0</ele><time>2026-04-23T16:18:09Z</time></trkpt><trkpt lat="46.429912623496406" lon="12.374661045015825"><ele>896.0</ele><time>2026-04-23T16:18:10Z</time></trkpt><trkpt lat="46.429827710915056" lon="12.374535313446948"><ele>896.0</ele><time>2026-04-23T16:18:11Z</time></trkpt><trkpt lat="46.429739682286126" lon="12.37442018599803"><ele>897.0</ele><time>2026-04-23T16:18:12Z</time></trkpt><trkpt lat="46.42965181881895" lon="12.374299146860016"><ele>898.0</ele><time>2026-04-23T16:18:13Z</time></trkpt><trkpt lat="46.42957821952452" lon="12.374164204184744"><ele>899.0</ele><time>2026-04-23T16:18:13.999Z</time></trkpt><trkpt lat="46.42948187359842" lon="12.374055231801846"><ele>900.0</ele><time>2026-04-23T16:18:14.999Z</time></trkpt><trkpt lat="46.429412330119746" lon="12.37395261575917"><ele>897.0</ele><time>2026-04-23T16:18:15.999Z</time></trkpt><trkpt lat="46.4293326493308" lon="12.373895245132605"><ele>894.0</ele><time>2026-04-23T16:18:16.999Z</time></trkpt><trkpt lat="46.42925721634871" lon="12.373897491222543"><ele>891.0</ele><time>2026-04-23T16:18:17.999Z</time></trkpt><trkpt lat="46.42918009459886" lon="12.374007959250907"><ele>888.0</ele><time>2026-04-23T16:18:18.999Z</time></trkpt><trkpt lat="46.429132227516035" lon="12.374133919396774"><ele>885.0</ele><time>2026-04-23T16:18:19.999Z</time></trkpt><trkpt lat="46.42914357010493" lon="12.374297444501254"><ele>885.0</ele><time>2026-04-23T16:18:20.999Z</time></trkpt><trkpt lat="46.42918623118171" lon="12.374453138209772"><ele>885.0</ele><time>2026-04-23T16:18:21.999Z</time></trkpt><trkpt lat="46.42923075323555" lon="12.374573757214929"><ele>885.0</ele><time>2026-04-23T16:18:22.999Z</time></trkpt><trkpt lat="46.42926502308072" lon="12.37466820907331"><ele>885.0</ele><time>2026-04-23T16:18:23.999Z</time></trkpt><trkpt lat="46.4292730467337" lon="12.374759526067155"><ele>885.0</ele><time>2026-04-23T16:18:24.999Z</time></trkpt><trkpt lat="46.42918789272419" lon="12.374884445713084"><ele>885.0</ele><time>2026-04-23T16:18:26.999Z</time></trkpt><trkpt lat="46.42911911580717" lon="12.374935928462246"><ele>885.0</ele><time>2026-04-23T16:18:27.999Z</time></trkpt><trkpt lat="46.429060172454015" lon="12.374991927341785"><ele>885.0</ele><time>2026-04-23T16:18:28.999Z</time></trkpt><trkpt lat="46.42898322205073" lon="12.374895824027854"><ele>885.0</ele><time>2026-04-23T16:18:30.999Z</time></trkpt><trkpt lat="46.42894970973139" lon="12.374775818877644"><ele>885.0</ele><time>2026-04-23T16:18:31.999Z</time></trkpt><trkpt lat="46.42890713485129" lon="12.374655654519012"><ele>885.0</ele><time>2026-04-23T16:18:32.999Z</time></trkpt><trkpt lat="46.42888737827858" lon="12.374560708593291"><ele>885.0</ele><time>2026-04-23T16:18:33.999Z</time></trkpt><trkpt lat="46.428892218830484" lon="12.374467978787218"><ele>885.0</ele><time>2026-04-23T16:18:34.999Z</time></trkpt><trkpt lat="46.428855705103345" lon="12.374373857658192"><ele>885.0</ele><time>2026-04-23T16:18:36.999Z</time></trkpt><trkpt lat="46.42877776537587" lon="12.374318738107801"><ele>885.0</ele><time>2026-04-23T16:18:48.999Z</time></trkpt><trkpt lat="46.428714416269045" lon="12.374333467602947"><ele>885.0</ele><time>2026-04-23T16:18:50.999Z</time></trkpt><trkpt lat="46.42865921710135" lon="12.374447597115937"><ele>885.0</ele><time>2026-04-23T16:18:52.999Z</time></trkpt><trkpt lat="46.42862933503058" lon="12.37456918436669"><ele>883.8</ele><time>2026-04-23T16:18:54.999Z</time></trkpt><trkpt lat="46.42857702954734" lon="12.374684526118253"><ele>882.6</ele><time>2026-04-23T16:18:56.999Z</time></trkpt><trkpt lat="46.42853273356352" lon="12.374820571826733"><ele>881.4000000000001</ele><time>2026-04-23T16:18:58.999Z</time></trkpt><trkpt lat="46.42847559293099" lon="12.374928776866959"><ele>880.2</ele><time>2026-04-23T16:19:00.999Z</time></trkpt><trkpt lat="46.42845281573096" lon="12.375056181613939"><ele>879.0</ele><time>2026-04-23T16:19:02.999Z</time></trkpt><trkpt lat="46.42845912516914" lon="12.375151508805917"><ele>879.0</ele><time>2026-04-23T16:19:03.999Z</time></trkpt><trkpt lat="46.42847700100707" lon="12.375269791003188"><ele>879.0</ele><time>2026-04-23T16:19:06.998Z</time></trkpt><trkpt lat="46.42849359222222" lon="12.375360011546373"><ele>879.0</ele><time>2026-04-23T16:19:15.998Z</time></trkpt><trkpt lat="46.42850887577469" lon="12.3754607340434"><ele>879.0</ele><time>2026-04-23T16:19:17.998Z</time></trkpt><trkpt lat="46.42851025958835" lon="12.375580837660383"><ele>879.0</ele><time>2026-04-23T16:19:19.998Z</time></trkpt><trkpt lat="46.4284879410348" lon="12.37566992263698"><ele>879.0</ele><time>2026-04-23T16:19:21.998Z</time></trkpt><trkpt lat="46.42846484632429" lon="12.375781204154114"><ele>879.0</ele><time>2026-04-23T16:19:23.998Z</time></trkpt><trkpt lat="46.42846154196961" lon="12.375911265444387"><ele>879.5</ele><time>2026-04-23T16:19:24.998Z</time></trkpt><trkpt lat="46.42852528015374" lon="12.376057520134415"><ele>880.0</ele><time>2026-04-23T16:19:25.998Z</time></trkpt><trkpt lat="46.42861956176918" lon="12.376137029520395"><ele>880.5</ele><time>2026-04-23T16:19:26.998Z</time></trkpt><trkpt lat="46.428722067348076" lon="12.376249660704879"><ele>881.0</ele><time>2026-04-23T16:19:27.998Z</time></trkpt><trkpt lat="46.428866165379034" lon="12.376393106683963"><ele>881.0</ele><time>2026-04-23T16:19:28.998Z</time></trkpt><trkpt lat="46.429016421237606" lon="12.376556441015046"><ele>881.0</ele><time>2026-04-23T16:19:29.998Z</time></trkpt><trkpt lat="46.429168078765564" lon="12.376701522052523"><ele>881.0</ele><time>2026-04-23T16:19:30.998Z</time></trkpt><trkpt lat="46.42929637444165" lon="12.376840018222216"><ele>881.0</ele><time>2026-04-23T16:19:31.998Z</time></trkpt><trkpt lat="46.42944176720733" lon="12.37696198288675"><ele>881.0</ele><time>2026-04-23T16:19:32.998Z</time></trkpt><trkpt lat="46.42959786548565" lon="12.377065327620699"><ele>881.0</ele><time>2026-04-23T16:19:33.998Z</time></trkpt><trkpt lat="46.429793716600344" lon="12.377105011011684"><ele>881.3333333333334</ele><time>2026-04-23T16:19:34.998Z</time></trkpt><trkpt lat="46.430000604993914" lon="12.377138689290437"><ele>881.6666666666667</ele><time>2026-04-23T16:19:36Z</time></trkpt><trkpt lat="46.430169389112635" lon="12.377234458262006"><ele>882.0</ele><time>2026-04-23T16:19:37Z</time></trkpt><trkpt lat="46.43030882075895" lon="12.377355645291404"><ele>880.5</ele><time>2026-04-23T16:19:38Z</time></trkpt><trkpt lat="46.43045117892341" lon="12.377484603795635"><ele>879.0</ele><time>2026-04-23T16:19:39Z</time></trkpt><trkpt lat="46.43056788748977" lon="12.377639489890363"><ele>877.5</ele><time>2026-04-23T16:19:40Z</time></trkpt><trkpt lat="46.43067223438789" lon="12.377735166899038"><ele>876.0</ele><time>2026-04-23T16:19:41Z</time></trkpt><trkpt lat="46.430751764832245" lon="12.377897318444088"><ele>876.0</ele><time>2026-04-23T16:19:42Z</time></trkpt><trkpt lat="46.43086206670262" lon="12.378003231329966"><ele>876.0</ele><time>2026-04-23T16:19:43Z</time></trkpt><trkpt lat="46.43102168135833" lon="12.37806148518918"><ele>876.0</ele><time>2026-04-23T16:19:44Z</time></trkpt><trkpt lat="46.43119994664312" lon="12.378161208683668"><ele>874.6666666666667</ele><time>2026-04-23T16:19:45Z</time></trkpt><trkpt lat="46.43136852728381" lon="12.378332452101382"><ele>873.3333333333334</ele><time>2026-04-23T16:19:46Z</time></trkpt><trkpt lat="46.43155296419003" lon="12.378512076922007"><ele>872.0</ele><time>2026-04-23T16:19:47Z</time></trkpt><trkpt lat="46.43175434215368" lon="12.378650671619233"><ele>872.0</ele><time>2026-04-23T16:19:48Z</time></trkpt><trkpt lat="46.4319746039656" lon="12.378759596461387"><ele>872.0</ele><time>2026-04-23T16:19:49Z</time></trkpt><trkpt lat="46.432184368827166" lon="12.37885134190657"><ele>861.6666666666667</ele><time>2026-04-23T16:19:50Z</time></trkpt><trkpt lat="46.4323693516277" lon="12.378919650513481"><ele>851.3333333333333</ele><time>2026-04-23T16:19:51Z</time></trkpt><trkpt lat="46.43255629683207" lon="12.378954598753468"><ele>841.0</ele><time>2026-04-23T16:19:52Z</time></trkpt><trkpt lat="46.4327230608044" lon="12.378954805462852"><ele>841.0</ele><time>2026-04-23T16:19:53Z</time></trkpt><trkpt lat="46.4328976072455" lon="12.378894261275462"><ele>841.0</ele><time>2026-04-23T16:19:54Z</time></trkpt><trkpt lat="46.43308324134622" lon="12.378764188107116"><ele>841.0</ele><time>2026-04-23T16:19:55Z</time></trkpt><trkpt lat="46.4332752159455" lon="12.378604610718316"><ele>845.0</ele><time>2026-04-23T16:19:56Z</time></trkpt><trkpt lat="46.43348153284592" lon="12.378448002772986"><ele>849.0</ele><time>2026-04-23T16:19:57Z</time></trkpt><trkpt lat="46.43369646706065" lon="12.378299035391892"><ele>850.0</ele><time>2026-04-23T16:19:58Z</time></trkpt><trkpt lat="46.43389857344786" lon="12.378172054060176"><ele>851.0</ele><time>2026-04-23T16:19:59Z</time></trkpt><trkpt lat="46.434083662455976" lon="12.378071518457125"><ele>852.0</ele><time>2026-04-23T16:20:00Z</time></trkpt><trkpt lat="46.43427455439268" lon="12.378017633574443"><ele>852.0</ele><time>2026-04-23T16:20:01Z</time></trkpt><trkpt lat="46.4344585843998" lon="12.377977627392882"><ele>852.0</ele><time>2026-04-23T16:20:02Z</time></trkpt><trkpt lat="46.43463936659495" lon="12.37795116067977"><ele>852.0</ele><time>2026-04-23T16:20:03Z</time></trkpt><trkpt lat="46.434805667376835" lon="12.37793374124872"><ele>852.5</ele><time>2026-04-23T16:20:04Z</time></trkpt><trkpt lat="46.43494676106006" lon="12.37791264224116"><ele>853.0</ele><time>2026-04-23T16:20:05Z</time></trkpt><trkpt lat="46.4350693260626" lon="12.377897737413628"><ele>853.5</ele><time>2026-04-23T16:20:06Z</time></trkpt><trkpt lat="46.435170823097245" lon="12.37785678317988"><ele>854.0</ele><time>2026-04-23T16:20:07Z</time></trkpt><trkpt lat="46.4352643136955" lon="12.377766212596189"><ele>854.0</ele><time>2026-04-23T16:20:08Z</time></trkpt><trkpt lat="46.43533230315007" lon="12.377649153416572"><ele>854.0000000000001</ele><time>2026-04-23T16:20:09Z</time></trkpt><trkpt lat="46.43537922029165" lon="12.377521304122538"><ele>854.0000000000001</ele><time>2026-04-23T16:20:10Z</time></trkpt><trkpt lat="46.4354323342369" lon="12.377389934110278"><ele>854.0</ele><time>2026-04-23T16:20:11Z</time></trkpt><trkpt lat="46.4354843837882" lon="12.377253376710161"><ele>854.0</ele><time>2026-04-23T16:20:12Z</time></trkpt><trkpt lat="46.43554322273768" lon="12.37712656622125"><ele>852.6</ele><time>2026-04-23T16:20:13Z</time></trkpt><trkpt lat="46.43559738501902" lon="12.376998032465469"><ele>851.2</ele><time>2026-04-23T16:20:14Z</time></trkpt><trkpt lat="46.43564626808255" lon="12.376879816516285"><ele>849.8000000000001</ele><time>2026-04-23T16:20:15Z</time></trkpt><trkpt lat="46.43569171986718" lon="12.376763060900876"><ele>848.4000000000001</ele><time>2026-04-23T16:20:16Z</time></trkpt><trkpt lat="46.43573785364025" lon="12.376657125626044"><ele>847.0</ele><time>2026-04-23T16:20:17Z</time></trkpt><trkpt lat="46.4357876363855" lon="12.376565749183301"><ele>847.0</ele><time>2026-04-23T16:20:17.999Z</time></trkpt><trkpt lat="46.4358494036338" lon="12.376512499069554"><ele>847.0</ele><time>2026-04-23T16:20:18.999Z</time></trkpt><trkpt lat="46.43591617482809" lon="12.376528986762116"><ele>847.0</ele><time>2026-04-23T16:20:19.999Z</time></trkpt><trkpt lat="46.43603027800108" lon="12.376634408565597"><ele>847.0</ele><time>2026-04-23T16:20:21.999Z</time></trkpt><trkpt lat="46.43602234154171" lon="12.376745021898342"><ele>847.0</ele><time>2026-04-23T16:20:22.999Z</time></trkpt><trkpt lat="46.43602802711874" lon="12.3768948687408"><ele>847.0</ele><time>2026-04-23T16:20:23.999Z</time></trkpt><trkpt lat="46.43603226264837" lon="12.377037075592161"><ele>847.0</ele><time>2026-04-23T16:20:24.999Z</time></trkpt><trkpt lat="46.43603597843433" lon="12.377179603026262"><ele>847.0</ele><time>2026-04-23T16:20:25.999Z</time></trkpt><trkpt lat="46.43604552849202" lon="12.377324644719929"><ele>847.0</ele><time>2026-04-23T16:20:26.999Z</time></trkpt><trkpt lat="46.436064918765425" lon="12.377466575619652"><ele>847.0</ele><time>2026-04-23T16:20:27.999Z</time></trkpt><trkpt lat="46.43609162841891" lon="12.377608357634124"><ele>845.2</ele><time>2026-04-23T16:20:28.999Z</time></trkpt><trkpt lat="46.43610782875567" lon="12.377762003889027"><ele>843.4000000000001</ele><time>2026-04-23T16:20:29.999Z</time></trkpt><trkpt lat="46.43612731746815" lon="12.377917920447256"><ele>841.5999999999999</ele><time>2026-04-23T16:20:30.999Z</time></trkpt><trkpt lat="46.43614559645839" lon="12.378069410017524"><ele>839.8</ele><time>2026-04-23T16:20:31.999Z</time></trkpt><trkpt lat="46.43616311337049" lon="12.378208392276573"><ele>838.0</ele><time>2026-04-23T16:20:32.999Z</time></trkpt><trkpt lat="46.4361729283193" lon="12.378340342580712"><ele>834.8333333333333</ele><time>2026-04-23T16:20:33.999Z</time></trkpt><trkpt lat="46.436188289336215" lon="12.37847196808991"><ele>831.6666666666666</ele><time>2026-04-23T16:20:34.999Z</time></trkpt><trkpt lat="46.436198893335735" lon="12.378576434932354"><ele>828.5</ele><time>2026-04-23T16:20:35.999Z</time></trkpt><trkpt lat="46.43620375921063" lon="12.378732350134102"><ele>825.3333333333333</ele><time>2026-04-23T16:20:37.999Z</time></trkpt><trkpt lat="46.43616507659872" lon="12.378819925201215"><ele>822.1666666666666</ele><time>2026-04-23T16:20:46.999Z</time></trkpt><trkpt lat="46.436111904211" lon="12.378914429750084"><ele>819.0</ele><time>2026-04-23T16:20:51.999Z</time></trkpt><trkpt lat="46.43606869214888" lon="12.37906310996829"><ele>817.0</ele><time>2026-04-23T16:20:53.999Z</time></trkpt><trkpt lat="46.43606875761217" lon="12.379157108893853"><ele>815.0</ele><time>2026-04-23T16:20:54.999Z</time></trkpt><trkpt lat="46.43609895928195" lon="12.379271526609216"><ele>813.0</ele><time>2026-04-23T16:20:55.999Z</time></trkpt><trkpt lat="46.43614535953342" lon="12.379370405197992"><ele>811.0</ele><time>2026-04-23T16:20:56.999Z</time></trkpt><trkpt lat="46.43618240584278" lon="12.379461673555944"><ele>809.0</ele><time>2026-04-23T16:20:57.999Z</time></trkpt><trkpt lat="46.43621559835075" lon="12.37956539342867"><ele>807.0</ele><time>2026-04-23T16:20:58.999Z</time></trkpt><trkpt lat="46.43625682017066" lon="12.379684022013366"><ele>807.3333333333334</ele><time>2026-04-23T16:20:59.999Z</time></trkpt><trkpt lat="46.436312264347485" lon="12.379778505316855"><ele>807.6666666666667</ele><time>2026-04-23T16:21:00.999Z</time></trkpt><trkpt lat="46.43638856166166" lon="12.379831275385989"><ele>808.0</ele><time>2026-04-23T16:21:01.999Z</time></trkpt><trkpt lat="46.436482619063504" lon="12.37982843044849"><ele>808.3333333333334</ele><time>2026-04-23T16:21:02.999Z</time></trkpt><trkpt lat="46.436571458828325" lon="12.379784129925303"><ele>808.6666666666667</ele><time>2026-04-23T16:21:03.999Z</time></trkpt><trkpt lat="46.43665549082327" lon="12.379736402530703"><ele>809.0</ele><time>2026-04-23T16:21:04.999Z</time></trkpt><trkpt lat="46.43674778773207" lon="12.379698565079151"><ele>809.0</ele><time>2026-04-23T16:21:05.999Z</time></trkpt><trkpt lat="46.43684198527282" lon="12.379699598358286"><ele>809.0</ele><time>2026-04-23T16:21:06.998Z</time></trkpt><trkpt lat="46.436935676332304" lon="12.37971968871234"><ele>809.0</ele><time>2026-04-23T16:21:07.998Z</time></trkpt><trkpt lat="46.437036266948624" lon="12.379751839492117"><ele>809.0</ele><time>2026-04-23T16:21:08.998Z</time></trkpt><trkpt lat="46.437144312175874" lon="12.379792511183458"><ele>809.0</ele><time>2026-04-23T16:21:09.998Z</time></trkpt><trkpt lat="46.43725572195268" lon="12.379849046648637"><ele>809.75</ele><time>2026-04-23T16:21:10.998Z</time></trkpt><trkpt lat="46.4373697676151" lon="12.379902322686151"><ele>810.5</ele><time>2026-04-23T16:21:11.998Z</time></trkpt><trkpt lat="46.43748767614651" lon="12.379952801137362"><ele>811.25</ele><time>2026-04-23T16:21:12.998Z</time></trkpt><trkpt lat="46.437602092230385" lon="12.379992529418306"><ele>812.0</ele><time>2026-04-23T16:21:13.998Z</time></trkpt><trkpt lat="46.43771236416375" lon="12.380034130131573"><ele>812.0</ele><time>2026-04-23T16:21:14.998Z</time></trkpt><trkpt lat="46.43782629110562" lon="12.380074584066115"><ele>812.0</ele><time>2026-04-23T16:21:15.998Z</time></trkpt><trkpt lat="46.437941415500944" lon="12.380112541690448"><ele>812.0</ele><time>2026-04-23T16:21:16.998Z</time></trkpt><trkpt lat="46.438055077682264" lon="12.380141943106608"><ele>812.0</ele><time>2026-04-23T16:21:17.998Z</time></trkpt><trkpt lat="46.438172632416176" lon="12.380167341263274"><ele>811.75</ele><time>2026-04-23T16:21:18.998Z</time></trkpt><trkpt lat="46.438303259175775" lon="12.380178361937016"><ele>811.5</ele><time>2026-04-23T16:21:19.998Z</time></trkpt><trkpt lat="46.43844608612489" lon="12.3802086200233"><ele>811.25</ele><time>2026-04-23T16:21:20.998Z</time></trkpt><trkpt lat="46.438594109580194" lon="12.380179134652838"><ele>811.0</ele><time>2026-04-23T16:21:21.998Z</time></trkpt><trkpt lat="46.43875680755566" lon="12.38017338814665"><ele>810.0</ele><time>2026-04-23T16:21:22.998Z</time></trkpt><trkpt lat="46.438921771619746" lon="12.380148663823682"><ele>809.0</ele><time>2026-04-23T16:21:23.998Z</time></trkpt><trkpt lat="46.43907483476878" lon="12.380122670836464"><ele>808.0</ele><time>2026-04-23T16:21:24.998Z</time></trkpt><trkpt lat="46.43922145725708" lon="12.380102772978033"><ele>808.0</ele><time>2026-04-23T16:21:25.998Z</time></trkpt><trkpt lat="46.43934941518565" lon="12.380083765935604"><ele>808.0</ele><time>2026-04-23T16:21:26.998Z</time></trkpt><trkpt lat="46.43944508345269" lon="12.38006975271768"><ele>808.0</ele><time>2026-04-23T16:21:27.998Z</time></trkpt><trkpt lat="46.43952273545509" lon="12.380067224612215"><ele>808.0</ele><time>2026-04-23T16:21:28.998Z</time></trkpt><trkpt lat="46.43961610001036" lon="12.380063398761099"><ele>808.0</ele><time>2026-04-23T16:21:29.998Z</time></trkpt><trkpt lat="46.43972776907408" lon="12.380091935248034"><ele>806.5</ele><time>2026-04-23T16:21:30.998Z</time></trkpt><trkpt lat="46.43984587079304" lon="12.380150863419475"><ele>805.0</ele><time>2026-04-23T16:21:31.998Z</time></trkpt><trkpt lat="46.43998211157575" lon="12.380227182405065"><ele>803.5</ele><time>2026-04-23T16:21:32.998Z</time></trkpt><trkpt lat="46.44012255428011" lon="12.380301306855609"><ele>802.0</ele><time>2026-04-23T16:21:33.998Z</time></trkpt><trkpt lat="46.44027315555569" lon="12.380365335975213"><ele>802.0</ele><time>2026-04-23T16:21:34.998Z</time></trkpt><trkpt lat="46.440425357307696" lon="12.380446417720034"><ele>802.0</ele><time>2026-04-23T16:21:35.998Z</time></trkpt><trkpt lat="46.44058175445491" lon="12.380534533093202"><ele>802.0</ele><time>2026-04-23T16:21:36.998Z</time></trkpt><trkpt lat="46.44074499502992" lon="12.380634624273238"><ele>795.6666666666666</ele><time>2026-04-23T16:21:37.998Z</time></trkpt><trkpt lat="46.44090213824925" lon="12.380748697996635"><ele>789.3333333333333</ele><time>2026-04-23T16:21:38.998Z</time></trkpt><trkpt lat="46.441070463447886" lon="12.380839579518089"><ele>783.0</ele><time>2026-04-23T16:21:39.998Z</time></trkpt><trkpt lat="46.441244051605196" lon="12.380912912597484"><ele>784.3333333333333</ele><time>2026-04-23T16:21:40.998Z</time></trkpt><trkpt lat="46.44140641062244" lon="12.38102717663226"><ele>785.6666666666666</ele><time>2026-04-23T16:21:42Z</time></trkpt><trkpt lat="46.44155572045588" lon="12.381164335216281"><ele>787.0</ele><time>2026-04-23T16:21:43Z</time></trkpt><trkpt lat="46.44170211183288" lon="12.381323235480782"><ele>786.3333333333333</ele><time>2026-04-23T16:21:44Z</time></trkpt><trkpt lat="46.44185364219312" lon="12.381487825757953"><ele>785.6666666666667</ele><time>2026-04-23T16:21:45Z</time></trkpt><trkpt lat="46.442006917214" lon="12.381658145023051"><ele>785.0</ele><time>2026-04-23T16:21:46Z</time></trkpt><trkpt lat="46.44215616870457" lon="12.38184688191222"><ele>785.0</ele><time>2026-04-23T16:21:47Z</time></trkpt><trkpt lat="46.44229404811413" lon="12.382039093847238"><ele>785.0</ele><time>2026-04-23T16:21:48Z</time></trkpt><trkpt lat="46.4424120616537" lon="12.382237056465065"><ele>785.0</ele><time>2026-04-23T16:21:49Z</time></trkpt><trkpt lat="46.44251218091731" lon="12.382455633057265"><ele>781.6666666666667</ele><time>2026-04-23T16:21:50Z</time></trkpt><trkpt lat="46.44260366512346" lon="12.382690256844448"><ele>778.3333333333333</ele><time>2026-04-23T16:21:51Z</time></trkpt><trkpt lat="46.44269269120966" lon="12.382937832260438"><ele>775.0</ele><time>2026-04-23T16:21:52Z</time></trkpt><trkpt lat="46.44279251008515" lon="12.383184400672416"><ele>774.3333333333333</ele><time>2026-04-23T16:21:53Z</time></trkpt><trkpt lat="46.4429101480852" lon="12.383420118498849"><ele>773.6666666666667</ele><time>2026-04-23T16:21:54Z</time></trkpt><trkpt lat="46.44304758570871" lon="12.383647269107179"><ele>773.0</ele><time>2026-04-23T16:21:55Z</time></trkpt><trkpt lat="46.443197523863994" lon="12.383867513680869"><ele>773.0</ele><time>2026-04-23T16:21:56Z</time></trkpt><trkpt lat="46.44334895206954" lon="12.38409965225076"><ele>773.0</ele><time>2026-04-23T16:21:57Z</time></trkpt><trkpt lat="46.44349824283046" lon="12.384331770839221"><ele>773.0</ele><time>2026-04-23T16:21:58Z</time></trkpt><trkpt lat="46.44363733211018" lon="12.384549666201385"><ele>772.0</ele><time>2026-04-23T16:21:59Z</time></trkpt><trkpt lat="46.44377024672087" lon="12.384756590114618"><ele>771.0</ele><time>2026-04-23T16:22:00Z</time></trkpt><trkpt lat="46.443898894089045" lon="12.38495240167015"><ele>770.0</ele><time>2026-04-23T16:22:01Z</time></trkpt><trkpt lat="46.4440225240998" lon="12.38513787016826"><ele>770.0</ele><time>2026-04-23T16:22:02Z</time></trkpt><trkpt lat="46.44415434193893" lon="12.385301628153696"><ele>770.0</ele><time>2026-04-23T16:22:03Z</time></trkpt><trkpt lat="46.44429886052388" lon="12.385440236413206"><ele>770.0</ele><time>2026-04-23T16:22:04Z</time></trkpt><trkpt lat="46.44445668671879" lon="12.385554986786195"><ele>769.6666666666667</ele><time>2026-04-23T16:22:05Z</time></trkpt><trkpt lat="46.444616543646625" lon="12.385670436485052"><ele>769.3333333333333</ele><time>2026-04-23T16:22:06Z</time></trkpt><trkpt lat="46.4447761409059" lon="12.385800682144458"><ele>769.0</ele><time>2026-04-23T16:22:07Z</time></trkpt><trkpt lat="46.444946581436" lon="12.385913782130956"><ele>768.0</ele><time>2026-04-23T16:22:08Z</time></trkpt><trkpt lat="46.44513021605724" lon="12.385987117631254"><ele>767.0</ele><time>2026-04-23T16:22:09Z</time></trkpt><trkpt lat="46.44530502401739" lon="12.386032390753302"><ele>766.0</ele><time>2026-04-23T16:22:10Z</time></trkpt><trkpt lat="46.44547180535253" lon="12.386070115790723"><ele>766.0</ele><time>2026-04-23T16:22:11Z</time></trkpt><trkpt lat="46.445624720913436" lon="12.386117329171125"><ele>766.0</ele><time>2026-04-23T16:22:12Z</time></trkpt><trkpt lat="46.44576005634037" lon="12.386180482885539"><ele>766.0</ele><time>2026-04-23T16:22:13Z</time></trkpt><trkpt lat="46.44588465835615" lon="12.386286131284802"><ele>766.0</ele><time>2026-04-23T16:22:14Z</time></trkpt><trkpt lat="46.44599984401215" lon="12.38644102921534"><ele>763.0</ele><time>2026-04-23T16:22:15Z</time></trkpt><trkpt lat="46.44611086355261" lon="12.386632754598187"><ele>760.0</ele><time>2026-04-23T16:22:16Z</time></trkpt><trkpt lat="46.446207957969214" lon="12.386847386835527"><ele>757.0</ele><time>2026-04-23T16:22:17Z</time></trkpt><trkpt lat="46.446294755032355" lon="12.387033640245722"><ele>756.5</ele><time>2026-04-23T16:22:18Z</time></trkpt><trkpt lat="46.44637248268701" lon="12.387192879390803"><ele>756.0</ele><time>2026-04-23T16:22:19Z</time></trkpt><trkpt lat="46.44643802213939" lon="12.387357331736402"><ele>755.5</ele><time>2026-04-23T16:22:20Z</time></trkpt><trkpt lat="46.44650611542078" lon="12.387504141833881"><ele>755.0</ele><time>2026-04-23T16:22:21Z</time></trkpt><trkpt lat="46.44661013007129" lon="12.3876169144018"><ele>755.0</ele><time>2026-04-23T16:22:22Z</time></trkpt><trkpt lat="46.44675034980753" lon="12.387686986607841"><ele>755.0</ele><time>2026-04-23T16:22:23Z</time></trkpt><trkpt lat="46.44691889330198" lon="12.387738448386996"><ele>755.0</ele><time>2026-04-23T16:22:23.999Z</time></trkpt><trkpt lat="46.44711639437387" lon="12.387761584350725"><ele>756.0</ele><time>2026-04-23T16:22:24.999Z</time></trkpt><trkpt lat="46.44733169713983" lon="12.387759584115631"><ele>757.0</ele><time>2026-04-23T16:22:25.999Z</time></trkpt><trkpt lat="46.44755281666326" lon="12.38774365845751"><ele>758.0</ele><time>2026-04-23T16:22:26.999Z</time></trkpt><trkpt lat="46.447742277351125" lon="12.387729254353388"><ele>758.0</ele><time>2026-04-23T16:22:27.999Z</time></trkpt><trkpt lat="46.44791174906123" lon="12.387716461673337"><ele>758.0</ele><time>2026-04-23T16:22:28.999Z</time></trkpt><trkpt lat="46.448070370292264" lon="12.38769276315449"><ele>758.0</ele><time>2026-04-23T16:22:29.999Z</time></trkpt><trkpt lat="46.448200269746536" lon="12.387632454646349"><ele>755.5</ele><time>2026-04-23T16:22:30.999Z</time></trkpt><trkpt lat="46.448318908357756" lon="12.387550354449818"><ele>753.0</ele><time>2026-04-23T16:22:31.999Z</time></trkpt><trkpt lat="46.448437490288526" lon="12.387499615915477"><ele>750.5</ele><time>2026-04-23T16:22:32.999Z</time></trkpt><trkpt lat="46.44855221563408" lon="12.387491976206826"><ele>748.0</ele><time>2026-04-23T16:22:33.999Z</time></trkpt><trkpt lat="46.4486920799008" lon="12.38761706641886"><ele>749.0</ele><time>2026-04-23T16:22:34.999Z</time></trkpt><trkpt lat="46.44883821254201" lon="12.387751905170406"><ele>750.0</ele><time>2026-04-23T16:22:35.999Z</time></trkpt><trkpt lat="46.44895039142304" lon="12.387906213071965"><ele>751.0</ele><time>2026-04-23T16:22:36.999Z</time></trkpt><trkpt lat="46.449034961970455" lon="12.388077579078304"><ele>751.0</ele><time>2026-04-23T16:22:37.999Z</time></trkpt><trkpt lat="46.44906620731534" lon="12.388257566807237"><ele>751.0</ele><time>2026-04-23T16:22:38.999Z</time></trkpt><trkpt lat="46.449085541812366" lon="12.388456054908861"><ele>751.0</ele><time>2026-04-23T16:22:39.999Z</time></trkpt><trkpt lat="46.44901490414609" lon="12.388635573077835"><ele>751.0</ele><time>2026-04-23T16:22:40.999Z</time></trkpt><trkpt lat="46.44892833492915" lon="12.388791340519235"><ele>748.3333333333334</ele><time>2026-04-23T16:22:41.999Z</time></trkpt><trkpt lat="46.44881390514292" lon="12.388914224772185"><ele>745.6666666666666</ele><time>2026-04-23T16:22:42.999Z</time></trkpt><trkpt lat="46.448640607060945" lon="12.389058125962768"><ele>743.0</ele><time>2026-04-23T16:22:43.999Z</time></trkpt><trkpt lat="46.44846250436829" lon="12.389252660141834"><ele>743.0</ele><time>2026-04-23T16:22:44.999Z</time></trkpt><trkpt lat="46.44833172905376" lon="12.389458097132167"><ele>743.0</ele><time>2026-04-23T16:22:45.999Z</time></trkpt><trkpt lat="46.44825237364801" lon="12.389741680689005"><ele>743.0</ele><time>2026-04-23T16:22:46.999Z</time></trkpt><trkpt lat="46.44819949871964" lon="12.3900457592795"><ele>748.0</ele><time>2026-04-23T16:22:47.999Z</time></trkpt><trkpt lat="46.44817783496582" lon="12.390406767724654"><ele>753.0</ele><time>2026-04-23T16:22:48.999Z</time></trkpt><trkpt lat="46.44815271151503" lon="12.390760952841022"><ele>755.3333333333334</ele><time>2026-04-23T16:22:49.999Z</time></trkpt><trkpt lat="46.44810565092816" lon="12.391068891589196"><ele>757.6666666666667</ele><time>2026-04-23T16:22:50.999Z</time></trkpt><trkpt lat="46.448067355719964" lon="12.391339664501686"><ele>760.0</ele><time>2026-04-23T16:22:51.999Z</time></trkpt><trkpt lat="46.448052036589246" lon="12.39159743605477"><ele>760.0</ele><time>2026-04-23T16:22:52.999Z</time></trkpt><trkpt lat="46.44809452098021" lon="12.391867727607913"><ele>760.0</ele><time>2026-04-23T16:22:53.999Z</time></trkpt><trkpt lat="46.44816849349041" lon="12.39214087443079"><ele>760.0</ele><time>2026-04-23T16:22:54.999Z</time></trkpt><trkpt lat="46.448239376135966" lon="12.392435633577632"><ele>759.0</ele><time>2026-04-23T16:22:55.999Z</time></trkpt><trkpt lat="46.44829679453845" lon="12.392726492008686"><ele>758.0</ele><time>2026-04-23T16:22:56.999Z</time></trkpt><trkpt lat="46.448350294535174" lon="12.393011805596721"><ele>757.0</ele><time>2026-04-23T16:22:57.999Z</time></trkpt><trkpt lat="46.44840661025795" lon="12.393295201352736"><ele>755.3333333333334</ele><time>2026-04-23T16:22:58.999Z</time></trkpt><trkpt lat="46.44846536381823" lon="12.393581783703947"><ele>753.6666666666666</ele><time>2026-04-23T16:22:59.999Z</time></trkpt><trkpt lat="46.44852401258342" lon="12.393868059661711"><ele>752.0</ele><time>2026-04-23T16:23:00.999Z</time></trkpt><trkpt lat="46.44857731870934" lon="12.394138850130808"><ele>750.6666666666666</ele><time>2026-04-23T16:23:01.999Z</time></trkpt><trkpt lat="46.448626691999706" lon="12.394393078458986"><ele>749.3333333333334</ele><time>2026-04-23T16:23:02.999Z</time></trkpt><trkpt lat="46.448675996262814" lon="12.394640491890593"><ele>748.0</ele><time>2026-04-23T16:23:03.999Z</time></trkpt><trkpt lat="46.44872175948844" lon="12.394862474489441"><ele>749.3333333333334</ele><time>2026-04-23T16:23:04.999Z</time></trkpt><trkpt lat="46.44876393281898" lon="12.395092758996197"><ele>750.6666666666666</ele><time>2026-04-23T16:23:05.999Z</time></trkpt><trkpt lat="46.44880346053399" lon="12.395317380732367"><ele>752.0</ele><time>2026-04-23T16:23:06.999Z</time></trkpt><trkpt lat="46.44883868273227" lon="12.395530124471122"><ele>752.0</ele><time>2026-04-23T16:23:07.999Z</time></trkpt><trkpt lat="46.448866102619" lon="12.395726433577428"><ele>752.0</ele><time>2026-04-23T16:23:08.999Z</time></trkpt><trkpt lat="46.44888484631129" lon="12.39590361654255"><ele>752.0</ele><time>2026-04-23T16:23:09.999Z</time></trkpt><trkpt lat="46.44889332767956" lon="12.396076486324294"><ele>752.0</ele><time>2026-04-23T16:23:10.999Z</time></trkpt><trkpt lat="46.44890719767389" lon="12.39623410106266"><ele>751.0</ele><time>2026-04-23T16:23:11.998Z</time></trkpt><trkpt lat="46.44892107469406" lon="12.396347502136804"><ele>750.0</ele><time>2026-04-23T16:23:12.998Z</time></trkpt><trkpt lat="46.44893745943858" lon="12.396444807635243"><ele>749.0</ele><time>2026-04-23T16:23:13.998Z</time></trkpt><trkpt lat="46.448967947468" lon="12.396541270607965"><ele>748.0</ele><time>2026-04-23T16:23:14.998Z</time></trkpt><trkpt lat="46.449015482437595" lon="12.396634783590844"><ele>747.0</ele><time>2026-04-23T16:23:15.998Z</time></trkpt><trkpt lat="46.44908842423287" lon="12.396742096277068"><ele>746.0</ele><time>2026-04-23T16:23:16.998Z</time></trkpt><trkpt lat="46.4491826238821" lon="12.396861624081739"><ele>746.0</ele><time>2026-04-23T16:23:17.998Z</time></trkpt><trkpt lat="46.44929329496617" lon="12.39697793780674"><ele>746.0</ele><time>2026-04-23T16:23:18.998Z</time></trkpt><trkpt lat="46.44941717977028" lon="12.3971001554101"><ele>746.0</ele><time>2026-04-23T16:23:19.998Z</time></trkpt><trkpt lat="46.44954152729429" lon="12.397237598302656"><ele>746.0</ele><time>2026-04-23T16:23:20.998Z</time></trkpt><trkpt lat="46.449659978306656" lon="12.39737218946709"><ele>744.5</ele><time>2026-04-23T16:23:21.998Z</time></trkpt><trkpt lat="46.44977931747501" lon="12.397501156940248"><ele>743.0</ele><time>2026-04-23T16:23:22.998Z</time></trkpt><trkpt lat="46.44989764367285" lon="12.397623260285615"><ele>741.5</ele><time>2026-04-23T16:23:23.998Z</time></trkpt><trkpt lat="46.45001605248705" lon="12.397735529255266"><ele>740.0</ele><time>2026-04-23T16:23:24.998Z</time></trkpt><trkpt lat="46.450126493942996" lon="12.397858268521885"><ele>740.0</ele><time>2026-04-23T16:23:25.998Z</time></trkpt><trkpt lat="46.45023498570425" lon="12.397968412099557"><ele>740.0</ele><time>2026-04-23T16:23:26.998Z</time></trkpt><trkpt lat="46.4503406505754" lon="12.398078140892173"><ele>740.0</ele><time>2026-04-23T16:23:27.998Z</time></trkpt><trkpt lat="46.45043855312103" lon="12.398184788228203"><ele>740.0</ele><time>2026-04-23T16:23:28.998Z</time></trkpt><trkpt lat="46.45053342917677" lon="12.398291858371136"><ele>738.5</ele><time>2026-04-23T16:23:29.998Z</time></trkpt><trkpt lat="46.45062756408816" lon="12.398400428821923"><ele>737.0</ele><time>2026-04-23T16:23:30.998Z</time></trkpt><trkpt lat="46.4507236633778" lon="12.398513949303066"><ele>735.5</ele><time>2026-04-23T16:23:31.998Z</time></trkpt><trkpt lat="46.45081299482574" lon="12.398666649757411"><ele>734.0</ele><time>2026-04-23T16:23:32.998Z</time></trkpt><trkpt lat="46.45088332220474" lon="12.398855523802663"><ele>731.75</ele><time>2026-04-23T16:23:33.998Z</time></trkpt><trkpt lat="46.45094412002141" lon="12.399056175473131"><ele>729.5</ele><time>2026-04-23T16:23:34.998Z</time></trkpt><trkpt lat="46.45100130042574" lon="12.39924353279992"><ele>727.25</ele><time>2026-04-23T16:23:35.998Z</time></trkpt><trkpt lat="46.4510583627566" lon="12.399429620863"><ele>725.0</ele><time>2026-04-23T16:23:36.998Z</time></trkpt><trkpt lat="46.45111427208357" lon="12.39960693397328"><ele>725.25</ele><time>2026-04-23T16:23:37.998Z</time></trkpt><trkpt lat="46.45116563749081" lon="12.399777650924412"><ele>725.5</ele><time>2026-04-23T16:23:38.998Z</time></trkpt><trkpt lat="46.451215268254444" lon="12.399936009357877"><ele>725.75</ele><time>2026-04-23T16:23:39.998Z</time></trkpt><trkpt lat="46.45125981133446" lon="12.400077324611031"><ele>726.0</ele><time>2026-04-23T16:23:40.998Z</time></trkpt><trkpt lat="46.45130084053331" lon="12.400212309704765"><ele>726.0</ele><time>2026-04-23T16:23:41.998Z</time></trkpt><trkpt lat="46.451329416957655" lon="12.400320136823064"><ele>726.0</ele><time>2026-04-23T16:23:42.998Z</time></trkpt><trkpt lat="46.45131506441406" lon="12.400430163591702"><ele>726.0</ele><time>2026-04-23T16:23:43.998Z</time></trkpt><trkpt lat="46.4512645307606" lon="12.40052102180307"><ele>726.0</ele><time>2026-04-23T16:23:44.998Z</time></trkpt><trkpt lat="46.45118412301312" lon="12.40054894994121"><ele>726.0</ele><time>2026-04-23T16:23:45.998Z</time></trkpt><trkpt lat="46.45108916324966" lon="12.400525170131301"><ele>726.0</ele><time>2026-04-23T16:23:46.998Z</time></trkpt><trkpt lat="46.45098285320811" lon="12.40050037649991"><ele>724.0</ele><time>2026-04-23T16:23:48Z</time></trkpt><trkpt lat="46.4508917532442" lon="12.400506788445261"><ele>722.0</ele><time>2026-04-23T16:23:49Z</time></trkpt><trkpt lat="46.45081646274414" lon="12.400570982005455"><ele>720.0</ele><time>2026-04-23T16:23:50Z</time></trkpt><trkpt lat="46.450782694300024" lon="12.400685618341491"><ele>718.0</ele><time>2026-04-23T16:23:51Z</time></trkpt><trkpt lat="46.45080422325284" lon="12.400817511463298"><ele>716.0</ele><time>2026-04-23T16:23:52Z</time></trkpt><trkpt lat="46.45082415744115" lon="12.400942842985382"><ele>714.0</ele><time>2026-04-23T16:23:53Z</time></trkpt><trkpt lat="46.450991442081346" lon="12.401062902282336"><ele>714.0</ele><time>2026-04-23T16:23:54Z</time></trkpt><trkpt lat="46.451116043150364" lon="12.401180743312722"><ele>714.0</ele><time>2026-04-23T16:23:55Z</time></trkpt><trkpt lat="46.4512439404292" lon="12.40126229833271"><ele>714.0</ele><time>2026-04-23T16:23:56Z</time></trkpt><trkpt lat="46.45134718638244" lon="12.4013215061186"><ele>714.0</ele><time>2026-04-23T16:23:57Z</time></trkpt><trkpt lat="46.4514364106302" lon="12.401391942687678"><ele>714.25</ele><time>2026-04-23T16:23:58Z</time></trkpt><trkpt lat="46.45149174527091" lon="12.401527548039985"><ele>714.5</ele><time>2026-04-23T16:23:59Z</time></trkpt><trkpt lat="46.45151518770333" lon="12.401694906324138"><ele>714.75</ele><time>2026-04-23T16:24:00Z</time></trkpt><trkpt lat="46.45148878221343" lon="12.401894016942242"><ele>715.0</ele><time>2026-04-23T16:24:01Z</time></trkpt><trkpt lat="46.451459352178205" lon="12.402118681714162"><ele>715.5</ele><time>2026-04-23T16:24:02Z</time></trkpt><trkpt lat="46.45142220385488" lon="12.402343322577108"><ele>716.0</ele><time>2026-04-23T16:24:03Z</time></trkpt><trkpt lat="46.45137850298137" lon="12.402525882888456"><ele>716.5</ele><time>2026-04-23T16:24:04Z</time></trkpt><trkpt lat="46.45127462731995" lon="12.402648651675392"><ele>717.0</ele><time>2026-04-23T16:24:05Z</time></trkpt><trkpt lat="46.45118567746301" lon="12.402784121550084"><ele>712.75</ele><time>2026-04-23T16:24:06Z</time></trkpt><trkpt lat="46.451084939434885" lon="12.402872577579586"><ele>708.5</ele><time>2026-04-23T16:24:07Z</time></trkpt><trkpt lat="46.45102182313011" lon="12.402952976481192"><ele>704.25</ele><time>2026-04-23T16:24:08Z</time></trkpt><trkpt lat="46.450943450979864" lon="12.403061145559745"><ele>700.0</ele><time>2026-04-23T16:24:10Z</time></trkpt><trkpt lat="46.45106948964614" lon="12.403304329267396"><ele>700.0</ele><time>2026-04-23T16:24:11Z</time></trkpt><trkpt lat="46.4511690290417" lon="12.403439897853776"><ele>700.0</ele><time>2026-04-23T16:24:12Z</time></trkpt><trkpt lat="46.45129553660733" lon="12.403581958213675"><ele>700.0</ele><time>2026-04-23T16:24:13Z</time></trkpt><trkpt lat="46.45142010006856" lon="12.403755516316183"><ele>702.75</ele><time>2026-04-23T16:24:14Z</time></trkpt><trkpt lat="46.4515258891595" lon="12.403917415662297"><ele>705.5</ele><time>2026-04-23T16:24:15Z</time></trkpt><trkpt lat="46.451608832035255" lon="12.404088429513159"><ele>708.25</ele><time>2026-04-23T16:24:16Z</time></trkpt><trkpt lat="46.45168667154689" lon="12.404243183694286"><ele>711.0</ele><time>2026-04-23T16:24:17Z</time></trkpt><trkpt lat="46.4517661434046" lon="12.404397610422036"><ele>711.0</ele><time>2026-04-23T16:24:18Z</time></trkpt><trkpt lat="46.45187541828693" lon="12.404524344890556"><ele>711.0</ele><time>2026-04-23T16:24:19Z</time></trkpt><trkpt lat="46.45198683753667" lon="12.404608849743372"><ele>711.0</ele><time>2026-04-23T16:24:20Z</time></trkpt><trkpt lat="46.45209390971899" lon="12.404676868041353"><ele>711.0</ele><time>2026-04-23T16:24:21Z</time></trkpt><trkpt lat="46.45219036443751" lon="12.404740835501054"><ele>715.5</ele><time>2026-04-23T16:24:22Z</time></trkpt><trkpt lat="46.45227856461379" lon="12.404822729487929"><ele>720.0</ele><time>2026-04-23T16:24:23Z</time></trkpt><trkpt lat="46.45236868364577" lon="12.404930051429082"><ele>724.5</ele><time>2026-04-23T16:24:24Z</time></trkpt><trkpt lat="46.452446197416556" lon="12.405080077503955"><ele>729.0</ele><time>2026-04-23T16:24:25Z</time></trkpt><trkpt lat="46.452482562373355" lon="12.405253472267205"><ele>729.0</ele><time>2026-04-23T16:24:25.999Z</time></trkpt><trkpt lat="46.452495159065" lon="12.405458606104826"><ele>729.0</ele><time>2026-04-23T16:24:26.999Z</time></trkpt><trkpt lat="46.45249763530053" lon="12.405692267705888"><ele>729.0</ele><time>2026-04-23T16:24:27.999Z</time></trkpt><trkpt lat="46.45252047401549" lon="12.405941389005047"><ele>724.3333333333334</ele><time>2026-04-23T16:24:28.999Z</time></trkpt><trkpt lat="46.45254276417979" lon="12.406154774496443"><ele>719.6666666666667</ele><time>2026-04-23T16:24:29.999Z</time></trkpt><trkpt lat="46.452608663317804" lon="12.406351172536215"><ele>715.0</ele><time>2026-04-23T16:24:30.999Z</time></trkpt><trkpt lat="46.45271305168063" lon="12.406563768726597"><ele>712.6666666666667</ele><time>2026-04-23T16:24:31.999Z</time></trkpt><trkpt lat="46.452832688216176" lon="12.406775031107408"><ele>710.3333333333334</ele><time>2026-04-23T16:24:32.999Z</time></trkpt><trkpt lat="46.452887935862904" lon="12.407021993672377"><ele>708.0</ele><time>2026-04-23T16:24:33.999Z</time></trkpt><trkpt lat="46.452952017665524" lon="12.407286303560468"><ele>711.0</ele><time>2026-04-23T16:24:34.999Z</time></trkpt><trkpt lat="46.453023806493775" lon="12.407530458754056"><ele>714.0</ele><time>2026-04-23T16:24:35.999Z</time></trkpt><trkpt lat="46.45306646216686" lon="12.407757706338751"><ele>717.0</ele><time>2026-04-23T16:24:36.999Z</time></trkpt><trkpt lat="46.453113875299984" lon="12.407960392256628"><ele>713.25</ele><time>2026-04-23T16:24:37.999Z</time></trkpt><trkpt lat="46.453167041228696" lon="12.408150682207118"><ele>709.5</ele><time>2026-04-23T16:24:38.999Z</time></trkpt><trkpt lat="46.45324102214632" lon="12.408310404087013"><ele>705.75</ele><time>2026-04-23T16:24:39.999Z</time></trkpt><trkpt lat="46.45333821863959" lon="12.40843545237061"><ele>702.0</ele><time>2026-04-23T16:24:40.999Z</time></trkpt><trkpt lat="46.453454245252324" lon="12.408538379055917"><ele>702.0</ele><time>2026-04-23T16:24:41.999Z</time></trkpt><trkpt lat="46.453602926361185" lon="12.408622103135224"><ele>702.0</ele><time>2026-04-23T16:24:42.999Z</time></trkpt><trkpt lat="46.45373973845301" lon="12.408755787155977"><ele>702.0</ele><time>2026-04-23T16:24:43.999Z</time></trkpt><trkpt lat="46.45384513435012" lon="12.408948863688355"><ele>703.75</ele><time>2026-04-23T16:24:44.999Z</time></trkpt><trkpt lat="46.4539428254167" lon="12.409155425120057"><ele>705.5</ele><time>2026-04-23T16:24:45.999Z</time></trkpt><trkpt lat="46.45402042262392" lon="12.409331621056301"><ele>707.25</ele><time>2026-04-23T16:24:46.999Z</time></trkpt><trkpt lat="46.45408266883248" lon="12.409486519050041"><ele>709.0</ele><time>2026-04-23T16:24:47.999Z</time></trkpt><trkpt lat="46.45413211677729" lon="12.409614530046523"><ele>708.25</ele><time>2026-04-23T16:24:48.999Z</time></trkpt><trkpt lat="46.454156198664606" lon="12.409716174941543"><ele>707.5</ele><time>2026-04-23T16:24:49.999Z</time></trkpt><trkpt lat="46.45404278141156" lon="12.40987759357871"><ele>706.75</ele><time>2026-04-23T16:24:51.999Z</time></trkpt><trkpt lat="46.45395974922559" lon="12.410020657998341"><ele>706.0</ele><time>2026-04-23T16:24:52.999Z</time></trkpt><trkpt lat="46.4538548972525" lon="12.410171573436626"><ele>701.3333333333334</ele><time>2026-04-23T16:24:53.999Z</time></trkpt><trkpt lat="46.45374667333094" lon="12.41034158214974"><ele>696.6666666666666</ele><time>2026-04-23T16:24:54.999Z</time></trkpt><trkpt lat="46.45364376909094" lon="12.410509608166372"><ele>692.0</ele><time>2026-04-23T16:24:55.999Z</time></trkpt><trkpt lat="46.45354437004294" lon="12.410655536252078"><ele>692.0</ele><time>2026-04-23T16:24:56.999Z</time></trkpt><trkpt lat="46.45347421236923" lon="12.41082346292132"><ele>692.0</ele><time>2026-04-23T16:24:57.999Z</time></trkpt><trkpt lat="46.45338595305647" lon="12.410954155134135"><ele>692.0</ele><time>2026-04-23T16:24:58.999Z</time></trkpt><trkpt lat="46.45328448853942" lon="12.411051010396074"><ele>692.0</ele><time>2026-04-23T16:24:59.999Z</time></trkpt><trkpt lat="46.45320597579196" lon="12.411153180162582"><ele>692.0</ele><time>2026-04-23T16:25:00.999Z</time></trkpt><trkpt lat="46.45314613784953" lon="12.411236137193654"><ele>692.0</ele><time>2026-04-23T16:25:01.999Z</time></trkpt><trkpt lat="46.45312902446351" lon="12.411360515664247"><ele>692.0</ele><time>2026-04-23T16:25:02.999Z</time></trkpt><trkpt lat="46.45313135957838" lon="12.411505257756886"><ele>692.0</ele><time>2026-04-23T16:25:03.999Z</time></trkpt><trkpt lat="46.45316033179536" lon="12.41167048991305"><ele>692.0</ele><time>2026-04-23T16:25:04.999Z</time></trkpt><trkpt lat="46.45323041068998" lon="12.411831372393403"><ele>690.0</ele><time>2026-04-23T16:25:05.999Z</time></trkpt><trkpt lat="46.45331198667534" lon="12.412007389332118"><ele>688.0</ele><time>2026-04-23T16:25:06.999Z</time></trkpt><trkpt lat="46.45340925998844" lon="12.41222273906188"><ele>686.0</ele><time>2026-04-23T16:25:07.999Z</time></trkpt><trkpt lat="46.453514113466134" lon="12.412447653540976"><ele>685.0</ele><time>2026-04-23T16:25:08.999Z</time></trkpt><trkpt lat="46.45362825577022" lon="12.412671173388407"><ele>684.0</ele><time>2026-04-23T16:25:09.999Z</time></trkpt><trkpt lat="46.45375841919355" lon="12.412851212590498"><ele>683.0</ele><time>2026-04-23T16:25:10.999Z</time></trkpt><trkpt lat="46.453857347610644" lon="12.413048942348972"><ele>689.3333333333333</ele><time>2026-04-23T16:25:11.999Z</time></trkpt><trkpt lat="46.45390097487725" lon="12.413264483065626"><ele>695.6666666666666</ele><time>2026-04-23T16:25:12.998Z</time></trkpt><trkpt lat="46.45395811646012" lon="12.413507308527608"><ele>702.0</ele><time>2026-04-23T16:25:13.998Z</time></trkpt><trkpt lat="46.454023892812536" lon="12.413704372400689"><ele>697.3333333333334</ele><time>2026-04-23T16:25:14.998Z</time></trkpt><trkpt lat="46.454132206662074" lon="12.413915249687657"><ele>692.6666666666667</ele><time>2026-04-23T16:25:15.998Z</time></trkpt><trkpt lat="46.45426952874117" lon="12.414132786786446"><ele>688.0</ele><time>2026-04-23T16:25:16.998Z</time></trkpt><trkpt lat="46.45437618605985" lon="12.414403339961973"><ele>688.0</ele><time>2026-04-23T16:25:17.998Z</time></trkpt><trkpt lat="46.454456432981736" lon="12.41464866926832"><ele>688.0</ele><time>2026-04-23T16:25:18.998Z</time></trkpt><trkpt lat="46.45453816888621" lon="12.414856906164484"><ele>688.0</ele><time>2026-04-23T16:25:19.998Z</time></trkpt><trkpt lat="46.45461186260764" lon="12.415060076092365"><ele>690.3333333333334</ele><time>2026-04-23T16:25:20.998Z</time></trkpt><trkpt lat="46.454727324255124" lon="12.41521321249773"><ele>692.6666666666666</ele><time>2026-04-23T16:25:21.998Z</time></trkpt><trkpt lat="46.454863759305674" lon="12.415346924510848"><ele>695.0</ele><time>2026-04-23T16:25:22.998Z</time></trkpt><trkpt lat="46.4549828657069" lon="12.415506396654823"><ele>695.0</ele><time>2026-04-23T16:25:23.998Z</time></trkpt><trkpt lat="46.45510742089435" lon="12.415660627465114"><ele>695.0</ele><time>2026-04-23T16:25:24.998Z</time></trkpt><trkpt lat="46.455248572197206" lon="12.415807503425057"><ele>695.0</ele><time>2026-04-23T16:25:25.998Z</time></trkpt><trkpt lat="46.455388224140705" lon="12.415969235967516"><ele>697.0</ele><time>2026-04-23T16:25:26.998Z</time></trkpt><trkpt lat="46.45552770032594" lon="12.416135720523581"><ele>699.0</ele><time>2026-04-23T16:25:27.998Z</time></trkpt><trkpt lat="46.45566932635014" lon="12.416309967706896"><ele>701.0</ele><time>2026-04-23T16:25:28.998Z</time></trkpt><trkpt lat="46.45581316376197" lon="12.416486548662863"><ele>701.0</ele><time>2026-04-23T16:25:29.998Z</time></trkpt><trkpt lat="46.45593757963004" lon="12.41663758257601"><ele>701.0</ele><time>2026-04-23T16:25:30.998Z</time></trkpt><trkpt lat="46.45605188626188" lon="12.41678682660533"><ele>701.0</ele><time>2026-04-23T16:25:31.998Z</time></trkpt><trkpt lat="46.45615735533192" lon="12.416925872358268"><ele>701.0</ele><time>2026-04-23T16:25:32.998Z</time></trkpt><trkpt lat="46.456255036102355" lon="12.41707370318253"><ele>701.0</ele><time>2026-04-23T16:25:33.998Z</time></trkpt><trkpt lat="46.45634707307848" lon="12.41719718948793"><ele>701.0</ele><time>2026-04-23T16:25:34.998Z</time></trkpt><trkpt lat="46.45642965438768" lon="12.417308461998289"><ele>701.0</ele><time>2026-04-23T16:25:35.998Z</time></trkpt><trkpt lat="46.4565087219072" lon="12.417431562058304"><ele>700.5999999999999</ele><time>2026-04-23T16:25:36.998Z</time></trkpt><trkpt lat="46.456594366444655" lon="12.417544931741642"><ele>700.2</ele><time>2026-04-23T16:25:37.998Z</time></trkpt><trkpt lat="46.456669698020015" lon="12.417659145317273"><ele>699.8</ele><time>2026-04-23T16:25:38.998Z</time></trkpt><trkpt lat="46.45670749004589" lon="12.4177884443736"><ele>699.4000000000001</ele><time>2026-04-23T16:25:39.998Z</time></trkpt><trkpt lat="46.45673612743192" lon="12.417915066402195"><ele>699.0</ele><time>2026-04-23T16:25:40.998Z</time></trkpt><trkpt lat="46.45673309691487" lon="12.41805927682405"><ele>699.0</ele><time>2026-04-23T16:25:41.998Z</time></trkpt><trkpt lat="46.456722101102436" lon="12.41820241891357"><ele>699.0</ele><time>2026-04-23T16:25:42.998Z</time></trkpt><trkpt lat="46.45671272680501" lon="12.418374570478372"><ele>699.0</ele><time>2026-04-23T16:25:43.998Z</time></trkpt><trkpt lat="46.45668191830063" lon="12.418520780949562"><ele>699.0</ele><time>2026-04-23T16:25:44.998Z</time></trkpt><trkpt lat="46.456656343149675" lon="12.418697459071154"><ele>699.0</ele><time>2026-04-23T16:25:45.998Z</time></trkpt><trkpt lat="46.45662067516077" lon="12.418887649246455"><ele>693.25</ele><time>2026-04-23T16:25:46.998Z</time></trkpt><trkpt lat="46.4565854668105" lon="12.41907570604566"><ele>687.5</ele><time>2026-04-23T16:25:47.998Z</time></trkpt><trkpt lat="46.4565509287444" lon="12.419258752302648"><ele>681.75</ele><time>2026-04-23T16:25:48.998Z</time></trkpt><trkpt lat="46.45651778551804" lon="12.419427940547314"><ele>676.0</ele><time>2026-04-23T16:25:49.998Z</time></trkpt><trkpt lat="46.45649074868448" lon="12.419592758935893"><ele>675.1999999999999</ele><time>2026-04-23T16:25:50.998Z</time></trkpt><trkpt lat="46.45646028005159" lon="12.4197453818902"><ele>674.4</ele><time>2026-04-23T16:25:51.998Z</time></trkpt><trkpt lat="46.456434394659155" lon="12.419880754192972"><ele>673.6</ele><time>2026-04-23T16:25:52.998Z</time></trkpt><trkpt lat="46.45640575484986" lon="12.420011965386127"><ele>672.8</ele><time>2026-04-23T16:25:54Z</time></trkpt><trkpt lat="46.45638358462305" lon="12.42015174894978"><ele>672.0</ele><time>2026-04-23T16:25:55Z</time></trkpt><trkpt lat="46.4563736799865" lon="12.420297960456113"><ele>672.0</ele><time>2026-04-23T16:25:56Z</time></trkpt><trkpt lat="46.456409403563924" lon="12.420441663939112"><ele>672.0</ele><time>2026-04-23T16:25:57Z</time></trkpt><trkpt lat="46.45648014982721" lon="12.420585827008681"><ele>672.0</ele><time>2026-04-23T16:25:58Z</time></trkpt><trkpt lat="46.45656911475723" lon="12.420703718033359"><ele>672.0</ele><time>2026-04-23T16:25:59Z</time></trkpt><trkpt lat="46.456648304146" lon="12.420828416572444"><ele>677.6</ele><time>2026-04-23T16:26:00Z</time></trkpt><trkpt lat="46.4567344325593" lon="12.420922096706217"><ele>683.2</ele><time>2026-04-23T16:26:01Z</time></trkpt><trkpt lat="46.456812639238784" lon="12.421018549340266"><ele>688.8</ele><time>2026-04-23T16:26:02Z</time></trkpt><trkpt lat="46.456886849432784" lon="12.421106392915343"><ele>694.4</ele><time>2026-04-23T16:26:03Z</time></trkpt><trkpt lat="46.45694802548956" lon="12.421203269393045"><ele>700.0</ele><time>2026-04-23T16:26:04Z</time></trkpt><trkpt lat="46.45701291247113" lon="12.421297117851035"><ele>704.4</ele><time>2026-04-23T16:26:05Z</time></trkpt><trkpt lat="46.45707624928389" lon="12.421398408179034"><ele>708.8</ele><time>2026-04-23T16:26:06Z</time></trkpt><trkpt lat="46.4571496012117" lon="12.421490537850962"><ele>713.2</ele><time>2026-04-23T16:26:07Z</time></trkpt><trkpt lat="46.45720514430741" lon="12.421611685597627"><ele>717.6</ele><time>2026-04-23T16:26:08Z</time></trkpt><trkpt lat="46.45725626621337" lon="12.421752459888383"><ele>722.0</ele><time>2026-04-23T16:26:09Z</time></trkpt><trkpt lat="46.45731433152672" lon="12.421887671304027"><ele>720.0</ele><time>2026-04-23T16:26:10Z</time></trkpt><trkpt lat="46.457387673865185" lon="12.422016598557192"><ele>718.0</ele><time>2026-04-23T16:26:11Z</time></trkpt><trkpt lat="46.4574793546346" lon="12.422139782337817"><ele>716.0</ele><time>2026-04-23T16:26:12Z</time></trkpt><trkpt lat="46.457570796530995" lon="12.42224874243586"><ele>714.0</ele><time>2026-04-23T16:26:13Z</time></trkpt><trkpt lat="46.457671031447234" lon="12.42231382886966"><ele>714.0</ele><time>2026-04-23T16:26:14Z</time></trkpt><trkpt lat="46.45775381537279" lon="12.422393643959145"><ele>714.0</ele><time>2026-04-23T16:26:15Z</time></trkpt><trkpt lat="46.457835867147985" lon="12.422462848321535"><ele>714.0</ele><time>2026-04-23T16:26:16Z</time></trkpt><trkpt lat="46.45791396409102" lon="12.42256007355338"><ele>714.0</ele><time>2026-04-23T16:26:17Z</time></trkpt><trkpt lat="46.45800000600228" lon="12.422665428195478"><ele>714.0</ele><time>2026-04-23T16:26:18Z</time></trkpt><trkpt lat="46.45802925395128" lon="12.422814851571205"><ele>708.25</ele><time>2026-04-23T16:26:19Z</time></trkpt><trkpt lat="46.458065851607415" lon="12.422957034517019"><ele>702.5</ele><time>2026-04-23T16:26:20Z</time></trkpt><trkpt lat="46.458096787747216" lon="12.42310531071216"><ele>696.75</ele><time>2026-04-23T16:26:21Z</time></trkpt><trkpt lat="46.45812331502917" lon="12.423270547326737"><ele>691.0</ele><time>2026-04-23T16:26:22Z</time></trkpt><trkpt lat="46.45816730849693" lon="12.42343536335924"><ele>691.0</ele><time>2026-04-23T16:26:23Z</time></trkpt><trkpt lat="46.4582212147631" lon="12.423604988464914"><ele>691.0</ele><time>2026-04-23T16:26:24Z</time></trkpt><trkpt lat="46.458266860606436" lon="12.423754517829849"><ele>691.0</ele><time>2026-04-23T16:26:25Z</time></trkpt><trkpt lat="46.458304574630326" lon="12.423883312892784"><ele>691.0</ele><time>2026-04-23T16:26:26Z</time></trkpt><trkpt lat="46.45834402483314" lon="12.423984848066388"><ele>691.0</ele><time>2026-04-23T16:26:27Z</time></trkpt><trkpt lat="46.4583695463911" lon="12.424094167936614"><ele>694.8333333333334</ele><time>2026-04-23T16:26:28Z</time></trkpt><trkpt lat="46.45840593417793" lon="12.424178159963558"><ele>698.6666666666667</ele><time>2026-04-23T16:26:29Z</time></trkpt><trkpt lat="46.45848736062572" lon="12.424296218937904"><ele>702.5</ele><time>2026-04-23T16:26:31Z</time></trkpt><trkpt lat="46.45851710250488" lon="12.424404413967125"><ele>706.3333333333334</ele><time>2026-04-23T16:26:31.999Z</time></trkpt><trkpt lat="46.45856646672054" lon="12.424481850251585"><ele>710.1666666666666</ele><time>2026-04-23T16:26:32.999Z</time></trkpt><trkpt lat="46.45861154528673" lon="12.424610541025332"><ele>714.0</ele><time>2026-04-23T16:26:33.999Z</time></trkpt><trkpt lat="46.45868666596882" lon="12.424743419209792"><ele>716.0</ele><time>2026-04-23T16:26:34.999Z</time></trkpt><trkpt lat="46.458781367727035" lon="12.42489143531461"><ele>718.0</ele><time>2026-04-23T16:26:35.999Z</time></trkpt><trkpt lat="46.4588769154206" lon="12.425054688942726"><ele>720.0</ele><time>2026-04-23T16:26:36.999Z</time></trkpt><trkpt lat="46.458952629116546" lon="12.425200235071289"><ele>722.0</ele><time>2026-04-23T16:26:37.999Z</time></trkpt><trkpt lat="46.45901568385256" lon="12.425332658324065"><ele>717.5</ele><time>2026-04-23T16:26:38.999Z</time></trkpt><trkpt lat="46.45906319455808" lon="12.425492051405703"><ele>713.0</ele><time>2026-04-23T16:26:39.999Z</time></trkpt><trkpt lat="46.459094868831066" lon="12.4256826020598"><ele>708.5</ele><time>2026-04-23T16:26:40.999Z</time></trkpt><trkpt lat="46.459116671809134" lon="12.425861998182713"><ele>704.0</ele><time>2026-04-23T16:26:41.999Z</time></trkpt><trkpt lat="46.45913233186668" lon="12.426027344315587"><ele>704.0</ele><time>2026-04-23T16:26:42.999Z</time></trkpt><trkpt lat="46.45912739531268" lon="12.426202740525078"><ele>704.0</ele><time>2026-04-23T16:26:43.999Z</time></trkpt><trkpt lat="46.459078429339215" lon="12.426391174967884"><ele>704.0</ele><time>2026-04-23T16:26:44.999Z</time></trkpt><trkpt lat="46.45902260003971" lon="12.426595325825481"><ele>704.0</ele><time>2026-04-23T16:26:45.999Z</time></trkpt><trkpt lat="46.45898257976019" lon="12.426795788045808"><ele>704.0</ele><time>2026-04-23T16:26:46.999Z</time></trkpt><trkpt lat="46.458935121014896" lon="12.426951426889993"><ele>704.0</ele><time>2026-04-23T16:26:47.999Z</time></trkpt><trkpt lat="46.45890943725651" lon="12.4270900971875"><ele>704.0</ele><time>2026-04-23T16:26:48.999Z</time></trkpt><trkpt lat="46.45891031002682" lon="12.427196528779959"><ele>704.0</ele><time>2026-04-23T16:26:49.999Z</time></trkpt><trkpt lat="46.458939549287" lon="12.42728198827333"><ele>704.0</ele><time>2026-04-23T16:26:50.999Z</time></trkpt><trkpt lat="46.45898890954607" lon="12.42736993846635"><ele>704.0</ele><time>2026-04-23T16:26:51.999Z</time></trkpt><trkpt lat="46.459106075178596" lon="12.427458336713327"><ele>704.0</ele><time>2026-04-23T16:26:53.999Z</time></trkpt><trkpt lat="46.45919584957717" lon="12.42742822645832"><ele>704.0</ele><time>2026-04-23T16:26:54.999Z</time></trkpt><trkpt lat="46.4592724990599" lon="12.427372887147193"><ele>704.0</ele><time>2026-04-23T16:26:55.999Z</time></trkpt><trkpt lat="46.459339150339915" lon="12.427295807455883"><ele>704.0</ele><time>2026-04-23T16:26:56.999Z</time></trkpt><trkpt lat="46.459390899856224" lon="12.427214544999199"><ele>704.0</ele><time>2026-04-23T16:26:57.999Z</time></trkpt><trkpt lat="46.4594367235604" lon="12.427141933836733"><ele>704.0</ele><time>2026-04-23T16:26:58.999Z</time></trkpt><trkpt lat="46.459488266766314" lon="12.427081771301344"><ele>704.0</ele><time>2026-04-23T16:26:59.999Z</time></trkpt><trkpt lat="46.459560410778344" lon="12.427044298002075"><ele>704.0</ele><time>2026-04-23T16:27:00.999Z</time></trkpt><trkpt lat="46.45964900394104" lon="12.427035770173251"><ele>704.0</ele><time>2026-04-23T16:27:01.999Z</time></trkpt><trkpt lat="46.45972000453435" lon="12.427046801140213"><ele>704.0</ele><time>2026-04-23T16:27:02.999Z</time></trkpt><trkpt lat="46.45978375169355" lon="12.427090057780742"><ele>704.0</ele><time>2026-04-23T16:27:03.999Z</time></trkpt><trkpt lat="46.459835748322384" lon="12.427194730637044"><ele>704.0</ele><time>2026-04-23T16:27:04.999Z</time></trkpt><trkpt lat="46.459874103115304" lon="12.42734803322519"><ele>704.5</ele><time>2026-04-23T16:27:05.999Z</time></trkpt><trkpt lat="46.459916345647855" lon="12.42753223650092"><ele>705.0</ele><time>2026-04-23T16:27:06.999Z</time></trkpt><trkpt lat="46.45998352019322" lon="12.427727114957406"><ele>705.5</ele><time>2026-04-23T16:27:07.999Z</time></trkpt><trkpt lat="46.46006706881514" lon="12.427902269581024"><ele>706.0</ele><time>2026-04-23T16:27:08.999Z</time></trkpt><trkpt lat="46.46015958430299" lon="12.428081708841555"><ele>710.3333333333334</ele><time>2026-04-23T16:27:09.999Z</time></trkpt><trkpt lat="46.460247830642224" lon="12.428265672963128"><ele>714.6666666666666</ele><time>2026-04-23T16:27:10.999Z</time></trkpt><trkpt lat="46.46034323218132" lon="12.428439691373372"><ele>719.0</ele><time>2026-04-23T16:27:11.999Z</time></trkpt><trkpt lat="46.460428686713136" lon="12.428612808552655"><ele>718.0</ele><time>2026-04-23T16:27:12.999Z</time></trkpt><trkpt lat="46.46051016596031" lon="12.428769450663658"><ele>717.0</ele><time>2026-04-23T16:27:13.999Z</time></trkpt><trkpt lat="46.46059644016952" lon="12.428902405812412"><ele>716.0</ele><time>2026-04-23T16:27:14.999Z</time></trkpt><trkpt lat="46.46068598388906" lon="12.429033772516673"><ele>715.0</ele><time>2026-04-23T16:27:15.999Z</time></trkpt><trkpt lat="46.460788467901914" lon="12.429149461999463"><ele>715.0</ele><time>2026-04-23T16:27:16.999Z</time></trkpt><trkpt lat="46.46090630207781" lon="12.429263599564086"><ele>715.0</ele><time>2026-04-23T16:27:17.999Z</time></trkpt><trkpt lat="46.46102063318369" lon="12.429381090714678"><ele>715.0</ele><time>2026-04-23T16:27:18.999Z</time></trkpt><trkpt lat="46.46111690931402" lon="12.429488573402134"><ele>715.0</ele><time>2026-04-23T16:27:19.998Z</time></trkpt><trkpt lat="46.4612004451614" lon="12.429600747651678"><ele>714.5</ele><time>2026-04-23T16:27:20.998Z</time></trkpt><trkpt lat="46.4612767002051" lon="12.429711141471547"><ele>714.0</ele><time>2026-04-23T16:27:21.998Z</time></trkpt><trkpt lat="46.461352754340666" lon="12.429836179219873"><ele>713.5</ele><time>2026-04-23T16:27:22.998Z</time></trkpt><trkpt lat="46.46143266381379" lon="12.42996780781355"><ele>713.0</ele><time>2026-04-23T16:27:23.998Z</time></trkpt><trkpt lat="46.46151491247038" lon="12.430085468239954"><ele>713.0</ele><time>2026-04-23T16:27:24.998Z</time></trkpt><trkpt lat="46.46160429866461" lon="12.43021233069055"><ele>713.0</ele><time>2026-04-23T16:27:25.998Z</time></trkpt><trkpt lat="46.461734068387166" lon="12.430343726108916"><ele>713.0</ele><time>2026-04-23T16:27:26.998Z</time></trkpt><trkpt lat="46.461880444365015" lon="12.43049625225061"><ele>710.0</ele><time>2026-04-23T16:27:27.998Z</time></trkpt><trkpt lat="46.46203909117029" lon="12.430678796437533"><ele>707.0</ele><time>2026-04-23T16:27:28.998Z</time></trkpt><trkpt lat="46.462185342332624" lon="12.430862344994761"><ele>704.0</ele><time>2026-04-23T16:27:29.998Z</time></trkpt><trkpt lat="46.46231164401577" lon="12.431017728359057"><ele>704.0</ele><time>2026-04-23T16:27:30.998Z</time></trkpt><trkpt lat="46.46242172153162" lon="12.431164770661109"><ele>704.0</ele><time>2026-04-23T16:27:31.998Z</time></trkpt><trkpt lat="46.46252817375127" lon="12.431292458609883"><ele>704.0</ele><time>2026-04-23T16:27:32.998Z</time></trkpt><trkpt lat="46.46262910300926" lon="12.431383924141434"><ele>704.0</ele><time>2026-04-23T16:27:33.998Z</time></trkpt><trkpt lat="46.46273045960738" lon="12.431448443551048"><ele>706.3333333333333</ele><time>2026-04-23T16:27:34.998Z</time></trkpt><trkpt lat="46.46281399923671" lon="12.431485745549013"><ele>708.6666666666666</ele><time>2026-04-23T16:27:35.998Z</time></trkpt><trkpt lat="46.46288082191524" lon="12.431511218754684"><ele>711.0</ele><time>2026-04-23T16:27:36.998Z</time></trkpt><trkpt lat="46.46295785999337" lon="12.431567745485347"><ele>713.3333333333334</ele><time>2026-04-23T16:27:38.998Z</time></trkpt><trkpt lat="46.463031733727064" lon="12.431591101114517"><ele>715.6666666666667</ele><time>2026-04-23T16:27:40.998Z</time></trkpt><trkpt lat="46.46309334915208" lon="12.431610581237843"><ele>718.0</ele><time>2026-04-23T16:27:42.998Z</time></trkpt><trkpt lat="46.463165122505366" lon="12.431625974819475"><ele>718.0</ele><time>2026-04-23T16:27:44.998Z</time></trkpt><trkpt lat="46.463202405104745" lon="12.43204061917516"><ele>718.0</ele><time>2026-04-23T16:27:46.998Z</time></trkpt><trkpt lat="46.46326701133378" lon="12.432065534772542"><ele>718.0</ele><time>2026-04-23T16:27:47.998Z</time></trkpt><trkpt lat="46.46330035478614" lon="12.432151722075464"><ele>718.0</ele><time>2026-04-23T16:27:48.998Z</time></trkpt><trkpt lat="46.46343596292766" lon="12.432303933569113"><ele>721.0</ele><time>2026-04-23T16:27:50.998Z</time></trkpt><trkpt lat="46.46352824287628" lon="12.432379706566234"><ele>724.0</ele><time>2026-04-23T16:27:51.998Z</time></trkpt><trkpt lat="46.463611994194274" lon="12.432426573612132"><ele>727.0</ele><time>2026-04-23T16:27:52.998Z</time></trkpt><trkpt lat="46.46369623725453" lon="12.43244987745076"><ele>730.0</ele><time>2026-04-23T16:27:53.998Z</time></trkpt><trkpt lat="46.463773077843314" lon="12.432439629593421"><ele>733.0</ele><time>2026-04-23T16:27:54.998Z</time></trkpt><trkpt lat="46.4638716815456" lon="12.432394779791064"><ele>733.0</ele><time>2026-04-23T16:27:55.998Z</time></trkpt><trkpt lat="46.46396625199968" lon="12.432349799660843"><ele>733.0</ele><time>2026-04-23T16:27:56.998Z</time></trkpt><trkpt lat="46.46407137870739" lon="12.432298099802203"><ele>733.0</ele><time>2026-04-23T16:27:57.998Z</time></trkpt><trkpt lat="46.46417493489213" lon="12.432260829807252"><ele>733.0</ele><time>2026-04-23T16:27:58.998Z</time></trkpt><trkpt lat="46.46428498392883" lon="12.432198219749875"><ele>733.0</ele><time>2026-04-23T16:28:00Z</time></trkpt><trkpt lat="46.4643846139568" lon="12.432189478706585"><ele>733.0</ele><time>2026-04-23T16:28:01Z</time></trkpt><trkpt lat="46.46445823637862" lon="12.43219889068063"><ele>733.0</ele><time>2026-04-23T16:28:02Z</time></trkpt><trkpt lat="46.46452959450554" lon="12.432255505588818"><ele>733.0</ele><time>2026-04-23T16:28:03Z</time></trkpt><trkpt lat="46.4645920333127" lon="12.432369587601404"><ele>733.0</ele><time>2026-04-23T16:28:04Z</time></trkpt><trkpt lat="46.46461079513857" lon="12.432487205075228"><ele>733.0</ele><time>2026-04-23T16:28:05Z</time></trkpt><trkpt lat="46.46460713632553" lon="12.43262823864969"><ele>733.0</ele><time>2026-04-23T16:28:06Z</time></trkpt><trkpt lat="46.46459591644299" lon="12.432758516061865"><ele>733.0</ele><time>2026-04-23T16:28:07Z</time></trkpt><trkpt lat="46.46455385466305" lon="12.432908701208497"><ele>733.0</ele><time>2026-04-23T16:28:08Z</time></trkpt><trkpt lat="46.46448288457768" lon="12.433044308347782"><ele>733.0</ele><time>2026-04-23T16:28:09Z</time></trkpt><trkpt lat="46.46439170524927" lon="12.43315635350888"><ele>733.0</ele><time>2026-04-23T16:28:10Z</time></trkpt><trkpt lat="46.46434604733254" lon="12.433293947361328"><ele>732.8</ele><time>2026-04-23T16:28:11Z</time></trkpt><trkpt lat="46.46434811824163" lon="12.433407079179519"><ele>732.5999999999999</ele><time>2026-04-23T16:28:12Z</time></trkpt><trkpt lat="46.4643584916013" lon="12.433519238211069"><ele>732.4000000000001</ele><time>2026-04-23T16:28:13Z</time></trkpt><trkpt lat="46.464444498582296" lon="12.433658997493712"><ele>732.2</ele><time>2026-04-23T16:28:15Z</time></trkpt><trkpt lat="46.46455737686132" lon="12.433621403642771"><ele>732.0</ele><time>2026-04-23T16:28:16Z</time></trkpt><trkpt lat="46.46464446345922" lon="12.433506448357791"><ele>732.0</ele><time>2026-04-23T16:28:17Z</time></trkpt><trkpt lat="46.464735469373636" lon="12.433397573314563"><ele>732.0</ele><time>2026-04-23T16:28:18Z</time></trkpt><trkpt lat="46.46487478125171" lon="12.433378113190313"><ele>732.0</ele><time>2026-04-23T16:28:19Z</time></trkpt><trkpt lat="46.46502397808849" lon="12.433411890535933"><ele>732.0</ele><time>2026-04-23T16:28:20Z</time></trkpt><trkpt lat="46.46513914312927" lon="12.433428834466195"><ele>732.0</ele><time>2026-04-23T16:28:21Z</time></trkpt><trkpt lat="46.46521504369909" lon="12.433493319918682"><ele>732.0</ele><time>2026-04-23T16:28:22Z</time></trkpt><trkpt lat="46.46528357824811" lon="12.433588862894082"><ele>732.0</ele><time>2026-04-23T16:28:23Z</time></trkpt><trkpt lat="46.465353381271086" lon="12.433719553937184"><ele>732.0</ele><time>2026-04-23T16:28:24Z</time></trkpt><trkpt lat="46.4654003500618" lon="12.433913159104051"><ele>732.0</ele><time>2026-04-23T16:28:25Z</time></trkpt><trkpt lat="46.46544117921316" lon="12.434105820238068"><ele>734.0</ele><time>2026-04-23T16:28:26Z</time></trkpt><trkpt lat="46.465489794159105" lon="12.434307771247607"><ele>736.0</ele><time>2026-04-23T16:28:27Z</time></trkpt><trkpt lat="46.46555874028835" lon="12.43449497819036"><ele>738.0</ele><time>2026-04-23T16:28:28Z</time></trkpt><trkpt lat="46.46561218183178" lon="12.434663329636738"><ele>740.0</ele><time>2026-04-23T16:28:29Z</time></trkpt><trkpt lat="46.46563097844364" lon="12.434803154026708"><ele>742.75</ele><time>2026-04-23T16:28:30Z</time></trkpt><trkpt lat="46.465623112539404" lon="12.434926104598064"><ele>745.5</ele><time>2026-04-23T16:28:31Z</time></trkpt><trkpt lat="46.465623250926846" lon="12.43510823377568"><ele>748.25</ele><time>2026-04-23T16:28:32Z</time></trkpt><trkpt lat="46.465662139077445" lon="12.435327539304339"><ele>751.0</ele><time>2026-04-23T16:28:33Z</time></trkpt><trkpt lat="46.465719112291325" lon="12.435451913575152"><ele>755.25</ele><time>2026-04-23T16:28:34Z</time></trkpt><trkpt lat="46.46581189493204" lon="12.435570054624813"><ele>759.5</ele><time>2026-04-23T16:28:35Z</time></trkpt><trkpt lat="46.46589735216038" lon="12.435673108353756"><ele>763.75</ele><time>2026-04-23T16:28:36Z</time></trkpt><trkpt lat="46.46598845322227" lon="12.435880652037639"><ele>768.0</ele><time>2026-04-23T16:28:37Z</time></trkpt><trkpt lat="46.466056931625594" lon="12.43604814102276"><ele>768.0</ele><time>2026-04-23T16:28:38Z</time></trkpt><trkpt lat="46.46611878015937" lon="12.436210213967342"><ele>768.0</ele><time>2026-04-23T16:28:38.999Z</time></trkpt><trkpt lat="46.46620869075899" lon="12.436346044326104"><ele>768.0</ele><time>2026-04-23T16:28:39.999Z</time></trkpt><trkpt lat="46.46627791467288" lon="12.436413299853955"><ele>768.0</ele><time>2026-04-23T16:28:40.999Z</time></trkpt><trkpt lat="46.466367093352936" lon="12.43646864417968"><ele>768.0</ele><time>2026-04-23T16:28:41.999Z</time></trkpt><trkpt lat="46.46648910537624" lon="12.436438450754821"><ele>767.4</ele><time>2026-04-23T16:28:42.999Z</time></trkpt><trkpt lat="46.46661250715739" lon="12.436404539448892"><ele>766.8</ele><time>2026-04-23T16:28:43.999Z</time></trkpt><trkpt lat="46.466705042935" lon="12.436384662946649"><ele>766.2</ele><time>2026-04-23T16:28:44.999Z</time></trkpt><trkpt lat="46.46677977586932" lon="12.436429792757348"><ele>765.6</ele><time>2026-04-23T16:28:45.999Z</time></trkpt><trkpt lat="46.466811025204706" lon="12.436608563415279"><ele>765.0</ele><time>2026-04-23T16:28:47.999Z</time></trkpt><trkpt lat="46.466849032986545" lon="12.43674321929814"><ele>765.0</ele><time>2026-04-23T16:28:48.999Z</time></trkpt><trkpt lat="46.466907406169405" lon="12.436922160853799"><ele>765.0</ele><time>2026-04-23T16:28:49.999Z</time></trkpt><trkpt lat="46.466951010937144" lon="12.437078702190066"><ele>765.0</ele><time>2026-04-23T16:28:50.999Z</time></trkpt><trkpt lat="46.46699690126309" lon="12.437206477434826"><ele>765.0</ele><time>2026-04-23T16:28:51.999Z</time></trkpt><trkpt lat="46.467050376989924" lon="12.437332400108136"><ele>765.6</ele><time>2026-04-23T16:28:52.999Z</time></trkpt><trkpt lat="46.467161796318734" lon="12.437417497307065"><ele>766.2</ele><time>2026-04-23T16:28:53.999Z</time></trkpt><trkpt lat="46.46724132818257" lon="12.437495190965727"><ele>766.8</ele><time>2026-04-23T16:28:54.999Z</time></trkpt><trkpt lat="46.46733508130704" lon="12.437500307456578"><ele>767.4</ele><time>2026-04-23T16:28:55.999Z</time></trkpt><trkpt lat="46.46741699922047" lon="12.437481992534305"><ele>768.0</ele><time>2026-04-23T16:28:56.999Z</time></trkpt><trkpt lat="46.467526107335566" lon="12.437390025980706"><ele>768.0</ele><time>2026-04-23T16:28:57.999Z</time></trkpt><trkpt lat="46.467596317152946" lon="12.43727240438982"><ele>768.0</ele><time>2026-04-23T16:28:58.999Z</time></trkpt><trkpt lat="46.46766635039419" lon="12.437177180595404"><ele>768.0</ele><time>2026-04-23T16:28:59.999Z</time></trkpt><trkpt lat="46.467715770302185" lon="12.437116610376625"><ele>768.0</ele><time>2026-04-23T16:29:00.999Z</time></trkpt><trkpt lat="46.46778762672218" lon="12.43710311430653"><ele>768.0</ele><time>2026-04-23T16:29:01.999Z</time></trkpt><trkpt lat="46.467874380659765" lon="12.437198661934474"><ele>768.0</ele><time>2026-04-23T16:29:02.999Z</time></trkpt><trkpt lat="46.46799647166101" lon="12.437274399382643"><ele>761.0</ele><time>2026-04-23T16:29:03.999Z</time></trkpt><trkpt lat="46.46812648154912" lon="12.437408049126788"><ele>754.0</ele><time>2026-04-23T16:29:04.999Z</time></trkpt><trkpt lat="46.468267609678236" lon="12.437526396192128"><ele>747.0</ele><time>2026-04-23T16:29:05.999Z</time></trkpt><trkpt lat="46.46840966432557" lon="12.43765406970231"><ele>747.0</ele><time>2026-04-23T16:29:06.999Z</time></trkpt><trkpt lat="46.46855602358958" lon="12.437794410390186"><ele>747.0</ele><time>2026-04-23T16:29:07.999Z</time></trkpt><trkpt lat="46.46870165909681" lon="12.437935086472763"><ele>747.0</ele><time>2026-04-23T16:29:08.999Z</time></trkpt><trkpt lat="46.46884707227341" lon="12.438076291383588"><ele>746.6666666666666</ele><time>2026-04-23T16:29:09.999Z</time></trkpt><trkpt lat="46.46899807614613" lon="12.438217520251799"><ele>746.3333333333333</ele><time>2026-04-23T16:29:10.999Z</time></trkpt><trkpt lat="46.46915129550639" lon="12.438364342742508"><ele>746.0</ele><time>2026-04-23T16:29:11.999Z</time></trkpt><trkpt lat="46.46931207719221" lon="12.438494122916275"><ele>746.0</ele><time>2026-04-23T16:29:12.999Z</time></trkpt><trkpt lat="46.46946299945475" lon="12.43867455153839"><ele>746.0</ele><time>2026-04-23T16:29:13.999Z</time></trkpt><trkpt lat="46.46960193895911" lon="12.438843925533925"><ele>746.0</ele><time>2026-04-23T16:29:14.999Z</time></trkpt><trkpt lat="46.469718323790794" lon="12.438982052107177"><ele>745.8</ele><time>2026-04-23T16:29:15.999Z</time></trkpt><trkpt lat="46.46982995656535" lon="12.439084297129368"><ele>745.5999999999999</ele><time>2026-04-23T16:29:16.999Z</time></trkpt><trkpt lat="46.469927281300095" lon="12.439164680990766"><ele>745.4</ele><time>2026-04-23T16:29:17.999Z</time></trkpt><trkpt lat="46.47002022644683" lon="12.439215927863911"><ele>745.2</ele><time>2026-04-23T16:29:18.999Z</time></trkpt><trkpt lat="46.47011039136236" lon="12.439235255171415"><ele>745.0</ele><time>2026-04-23T16:29:19.999Z</time></trkpt><trkpt lat="46.47018626944542" lon="12.43925747726827"><ele>745.0</ele><time>2026-04-23T16:29:20.999Z</time></trkpt><trkpt lat="46.47024837570938" lon="12.43928594795637"><ele>745.0</ele><time>2026-04-23T16:29:21.999Z</time></trkpt><trkpt lat="46.470311015976776" lon="12.439454209807854"><ele>745.0</ele><time>2026-04-23T16:29:23.999Z</time></trkpt><trkpt lat="46.47034461438304" lon="12.439606647786528"><ele>745.0</ele><time>2026-04-23T16:29:24.999Z</time></trkpt><trkpt lat="46.47040217602772" lon="12.439728104796236"><ele>745.0</ele><time>2026-04-23T16:29:25.999Z</time></trkpt><trkpt lat="46.4704529609134" lon="12.439866310752858"><ele>742.0</ele><time>2026-04-23T16:29:26.998Z</time></trkpt><trkpt lat="46.470527779539175" lon="12.439942302232522"><ele>739.0</ele><time>2026-04-23T16:29:27.998Z</time></trkpt><trkpt lat="46.47062555252262" lon="12.440003340178642"><ele>736.0</ele><time>2026-04-23T16:29:28.998Z</time></trkpt><trkpt lat="46.470729462012514" lon="12.440083820700458"><ele>733.0</ele><time>2026-04-23T16:29:29.998Z</time></trkpt><trkpt lat="46.470816430764096" lon="12.440185431008747"><ele>730.0</ele><time>2026-04-23T16:29:30.998Z</time></trkpt><trkpt lat="46.47088886772027" lon="12.440297577380445"><ele>730.0</ele><time>2026-04-23T16:29:31.998Z</time></trkpt><trkpt lat="46.470951451695065" lon="12.440440181713605"><ele>730.0</ele><time>2026-04-23T16:29:32.998Z</time></trkpt><trkpt lat="46.47098068105072" lon="12.440567165570917"><ele>730.0</ele><time>2026-04-23T16:29:33.998Z</time></trkpt><trkpt lat="46.470990571945286" lon="12.440737200750558"><ele>730.0</ele><time>2026-04-23T16:29:34.998Z</time></trkpt><trkpt lat="46.471022853973956" lon="12.44090973797153"><ele>730.0</ele><time>2026-04-23T16:29:35.998Z</time></trkpt><trkpt lat="46.47103042204767" lon="12.44105821903138"><ele>730.0</ele><time>2026-04-23T16:29:36.998Z</time></trkpt><trkpt lat="46.47105830266244" lon="12.441237405442948"><ele>730.0</ele><time>2026-04-23T16:29:37.998Z</time></trkpt><trkpt lat="46.47112005143519" lon="12.4414019953774"><ele>730.0</ele><time>2026-04-23T16:29:38.998Z</time></trkpt><trkpt lat="46.47122628701574" lon="12.441567524329988"><ele>730.0</ele><time>2026-04-23T16:29:39.998Z</time></trkpt><trkpt lat="46.47135311143224" lon="12.441731997191738"><ele>730.0</ele><time>2026-04-23T16:29:40.998Z</time></trkpt><trkpt lat="46.47149144759238" lon="12.441885889199224"><ele>730.0</ele><time>2026-04-23T16:29:41.998Z</time></trkpt><trkpt lat="46.47163002078208" lon="12.44201426796214"><ele>730.0</ele><time>2026-04-23T16:29:42.998Z</time></trkpt><trkpt lat="46.47175384664216" lon="12.442136086848391"><ele>736.0</ele><time>2026-04-23T16:29:43.998Z</time></trkpt><trkpt lat="46.47188487503527" lon="12.442266979917052"><ele>742.0</ele><time>2026-04-23T16:29:44.998Z</time></trkpt><trkpt lat="46.47201017549191" lon="12.442435752692235"><ele>748.0</ele><time>2026-04-23T16:29:45.998Z</time></trkpt><trkpt lat="46.472111536038604" lon="12.442592472210618"><ele>740.8</ele><time>2026-04-23T16:29:46.998Z</time></trkpt><trkpt lat="46.472188912239915" lon="12.442721677071965"><ele>733.5999999999999</ele><time>2026-04-23T16:29:47.998Z</time></trkpt><trkpt lat="46.47228508287226" lon="12.442809198459239"><ele>726.4000000000001</ele><time>2026-04-23T16:29:48.998Z</time></trkpt><trkpt lat="46.47236257329817" lon="12.44287287350154"><ele>719.2</ele><time>2026-04-23T16:29:49.998Z</time></trkpt><trkpt lat="46.47243414919002" lon="12.442937744775861"><ele>712.0</ele><time>2026-04-23T16:29:50.998Z</time></trkpt><trkpt lat="46.472442886689926" lon="12.443068091241548"><ele>712.0</ele><time>2026-04-23T16:29:51.998Z</time></trkpt><trkpt lat="46.472473087125" lon="12.443247222929578"><ele>712.0</ele><time>2026-04-23T16:29:52.998Z</time></trkpt><trkpt lat="46.472505708584485" lon="12.443442014650433"><ele>712.0</ele><time>2026-04-23T16:29:53.998Z</time></trkpt><trkpt lat="46.472540594050635" lon="12.44362179496408"><ele>712.0</ele><time>2026-04-23T16:29:54.998Z</time></trkpt><trkpt lat="46.47258499418855" lon="12.443784062065474"><ele>716.0</ele><time>2026-04-23T16:29:55.998Z</time></trkpt><trkpt lat="46.472668401609425" lon="12.443927229912514"><ele>720.0</ele><time>2026-04-23T16:29:56.998Z</time></trkpt><trkpt lat="46.47273685406469" lon="12.444080860892901"><ele>724.0</ele><time>2026-04-23T16:29:57.998Z</time></trkpt><trkpt lat="46.47281000044056" lon="12.444244412578623"><ele>728.0</ele><time>2026-04-23T16:29:58.998Z</time></trkpt><trkpt lat="46.47285958807281" lon="12.444344143813552"><ele>728.0</ele><time>2026-04-23T16:29:59.998Z</time></trkpt><trkpt lat="46.4729056405243" lon="12.444413172909618"><ele>728.0</ele><time>2026-04-23T16:30:00.998Z</time></trkpt><trkpt lat="46.472926834358674" lon="12.44454600026559"><ele>728.0</ele><time>2026-04-23T16:30:01.998Z</time></trkpt><trkpt lat="46.47292918775198" lon="12.444697179608108"><ele>728.0</ele><time>2026-04-23T16:30:02.998Z</time></trkpt><trkpt lat="46.47292124735938" lon="12.444813904926628"><ele>728.0</ele><time>2026-04-23T16:30:03.998Z</time></trkpt><trkpt lat="46.47291077510202" lon="12.444919481360657"><ele>728.0</ele><time>2026-04-23T16:30:04.998Z</time></trkpt><trkpt lat="46.47294829221435" lon="12.445075488270783"><ele>721.3333333333333</ele><time>2026-04-23T16:30:07Z</time></trkpt><trkpt lat="46.47300354212428" lon="12.445125956251863"><ele>714.6666666666666</ele><time>2026-04-23T16:30:08Z</time></trkpt><trkpt lat="46.47306763987716" lon="12.44511733640748"><ele>708.0</ele><time>2026-04-23T16:30:09Z</time></trkpt><trkpt lat="46.47314666896646" lon="12.445161731418697"><ele>701.3333333333334</ele><time>2026-04-23T16:30:11Z</time></trkpt><trkpt lat="46.47322580765927" lon="12.44517670187978"><ele>694.6666666666667</ele><time>2026-04-23T16:31:12.999Z</time></trkpt><trkpt lat="46.47329986529567" lon="12.445187957470939"><ele>688.0</ele><time>2026-04-23T16:31:13.999Z</time></trkpt><trkpt lat="46.47338381063882" lon="12.445204600557334"><ele>688.0</ele><time>2026-04-23T16:31:14.999Z</time></trkpt><trkpt lat="46.47345895370468" lon="12.445227295590335"><ele>688.0</ele><time>2026-04-23T16:31:15.999Z</time></trkpt><trkpt lat="46.4735316018448" lon="12.445237512252156"><ele>688.0</ele><time>2026-04-23T16:31:16.999Z</time></trkpt><trkpt lat="46.47361406935369" lon="12.445223151136757"><ele>688.0</ele><time>2026-04-23T16:31:17.999Z</time></trkpt><trkpt lat="46.47371124127531" lon="12.445196995775525"><ele>688.0</ele><time>2026-04-23T16:31:18.999Z</time></trkpt><trkpt lat="46.47380899523423" lon="12.445135034436136"><ele>688.0</ele><time>2026-04-23T16:31:19.999Z</time></trkpt><trkpt lat="46.47392610186434" lon="12.445078338584104"><ele>689.8333333333334</ele><time>2026-04-23T16:31:20.999Z</time></trkpt><trkpt lat="46.474027228749435" lon="12.44501985313623"><ele>691.6666666666667</ele><time>2026-04-23T16:31:21.999Z</time></trkpt><trkpt lat="46.474114744707606" lon="12.444943585983054"><ele>693.5</ele><time>2026-04-23T16:31:22.999Z</time></trkpt><trkpt lat="46.474176564213664" lon="12.444904311390378"><ele>695.3333333333334</ele><time>2026-04-23T16:31:23.999Z</time></trkpt><trkpt lat="46.4742608522525" lon="12.444866076354074"><ele>697.1666666666666</ele><time>2026-04-23T16:31:24.999Z</time></trkpt><trkpt lat="46.47433024655788" lon="12.44486690171442"><ele>699.0</ele><time>2026-04-23T16:31:25.999Z</time></trkpt><trkpt lat="46.474407644718134" lon="12.445001678077011"><ele>699.0</ele><time>2026-04-23T16:31:27.998Z</time></trkpt><trkpt lat="46.47432308148794" lon="12.445070226738101"><ele>699.0</ele><time>2026-04-23T16:31:28.998Z</time></trkpt><trkpt lat="46.474238358265836" lon="12.445061073888677"><ele>699.0</ele><time>2026-04-23T16:31:29.998Z</time></trkpt><trkpt lat="46.47414144719612" lon="12.44513010494148"><ele>699.0</ele><time>2026-04-23T16:31:30.998Z</time></trkpt><trkpt lat="46.474019374062564" lon="12.4452147472309"><ele>699.0</ele><time>2026-04-23T16:31:31.998Z</time></trkpt><trkpt lat="46.473904520158584" lon="12.445294045876913"><ele>699.0</ele><time>2026-04-23T16:31:32.998Z</time></trkpt><trkpt lat="46.47381433727272" lon="12.44536128886868"><ele>699.0</ele><time>2026-04-23T16:31:33.998Z</time></trkpt><trkpt lat="46.47374989191905" lon="12.445443156975772"><ele>699.0</ele><time>2026-04-23T16:31:34.998Z</time></trkpt><trkpt lat="46.47371047089963" lon="12.44560121473032"><ele>699.0</ele><time>2026-04-23T16:31:36.998Z</time></trkpt><trkpt lat="46.47376443580943" lon="12.445655553294111"><ele>699.0</ele><time>2026-04-23T16:31:37.998Z</time></trkpt><trkpt lat="46.47390435920872" lon="12.445655101368311"><ele>704.0</ele><time>2026-04-23T16:31:39.998Z</time></trkpt><trkpt lat="46.47401749445242" lon="12.44560443229703"><ele>709.0</ele><time>2026-04-23T16:31:40.998Z</time></trkpt><trkpt lat="46.47414464122777" lon="12.445548344192796"><ele>714.0</ele><time>2026-04-23T16:31:41.998Z</time></trkpt><trkpt lat="46.47426941999292" lon="12.445531652977412"><ele>719.0</ele><time>2026-04-23T16:31:42.998Z</time></trkpt><trkpt lat="46.4744184700843" lon="12.44553489676875"><ele>719.0</ele><time>2026-04-23T16:31:43.998Z</time></trkpt><trkpt lat="46.474545675440496" lon="12.445552518956784"><ele>719.0</ele><time>2026-04-23T16:31:44.998Z</time></trkpt><trkpt lat="46.47464211488696" lon="12.445553213389838"><ele>719.0</ele><time>2026-04-23T16:31:45.998Z</time></trkpt><trkpt lat="46.4747398903622" lon="12.445573389260641"><ele>719.0</ele><time>2026-04-23T16:31:46.998Z</time></trkpt><trkpt lat="46.474822500195984" lon="12.445593682474902"><ele>719.0</ele><time>2026-04-23T16:31:47.998Z</time></trkpt><trkpt lat="46.47488847329017" lon="12.445638027871935"><ele>719.0</ele><time>2026-04-23T16:31:48.998Z</time></trkpt><trkpt lat="46.474920039828724" lon="12.445723785966633"><ele>719.0</ele><time>2026-04-23T16:31:49.998Z</time></trkpt><trkpt lat="46.474857809144005" lon="12.445805432790896"><ele>719.0</ele><time>2026-04-23T16:31:50.998Z</time></trkpt><trkpt lat="46.47477857624329" lon="12.445766068384367"><ele>719.0</ele><time>2026-04-23T16:31:51.998Z</time></trkpt><trkpt lat="46.474680901606085" lon="12.445776152116753"><ele>719.0</ele><time>2026-04-23T16:31:52.998Z</time></trkpt><trkpt lat="46.474573804597654" lon="12.445795722019847"><ele>719.0</ele><time>2026-04-23T16:31:53.998Z</time></trkpt><trkpt lat="46.474442197246546" lon="12.445833146732973"><ele>719.0</ele><time>2026-04-23T16:31:54.998Z</time></trkpt><trkpt lat="46.47432332871054" lon="12.445896013920885"><ele>719.0</ele><time>2026-04-23T16:31:55.998Z</time></trkpt><trkpt lat="46.47417904556601" lon="12.44594686121119"><ele>719.0</ele><time>2026-04-23T16:31:56.998Z</time></trkpt><trkpt lat="46.47405352875763" lon="12.446014565084983"><ele>719.0</ele><time>2026-04-23T16:31:57.998Z</time></trkpt><trkpt lat="46.47395103934269" lon="12.446058896030543"><ele>719.0</ele><time>2026-04-23T16:31:58.998Z</time></trkpt><trkpt lat="46.473872004672934" lon="12.446074558474606"><ele>719.0</ele><time>2026-04-23T16:31:59.998Z</time></trkpt><trkpt lat="46.47383787424646" lon="12.44620899324439"><ele>719.0</ele><time>2026-04-23T16:32:01.998Z</time></trkpt><trkpt lat="46.47388993458953" lon="12.446300156721238"><ele>719.0</ele><time>2026-04-23T16:32:03.998Z</time></trkpt><trkpt lat="46.47397619991969" lon="12.446302910751582"><ele>719.0</ele><time>2026-04-23T16:32:05.998Z</time></trkpt><trkpt lat="46.47407578779364" lon="12.446272384021139"><ele>719.0</ele><time>2026-04-23T16:32:07.998Z</time></trkpt><trkpt lat="46.4742014849197" lon="12.446233180838307"><ele>719.0</ele><time>2026-04-23T16:32:09.998Z</time></trkpt><trkpt lat="46.474276598347885" lon="12.446206706700442"><ele>719.0</ele><time>2026-04-23T16:32:10.998Z</time></trkpt><trkpt lat="46.47436422695771" lon="12.446184096396625"><ele>719.0</ele><time>2026-04-23T16:32:12Z</time></trkpt><trkpt lat="46.47446919721532" lon="12.446145175469763"><ele>719.0</ele><time>2026-04-23T16:32:13Z</time></trkpt><trkpt lat="46.47457295994153" lon="12.446129692654145"><ele>719.0</ele><time>2026-04-23T16:32:14Z</time></trkpt><trkpt lat="46.474669374866046" lon="12.44612085564162"><ele>719.0</ele><time>2026-04-23T16:32:15Z</time></trkpt><trkpt lat="46.47473385358108" lon="12.44610803036961"><ele>719.0</ele><time>2026-04-23T16:32:16Z</time></trkpt><trkpt lat="46.47480451789745" lon="12.446224357166848"><ele>719.0</ele><time>2026-04-23T16:32:18Z</time></trkpt><trkpt lat="46.47475261353073" lon="12.44630824424813"><ele>719.0</ele><time>2026-04-23T16:32:19Z</time></trkpt><trkpt lat="46.474689956303195" lon="12.44624970495779"><ele>719.0</ele><time>2026-04-23T16:32:20Z</time></trkpt><trkpt lat="46.474601934737365" lon="12.446269659132337"><ele>719.0</ele><time>2026-04-23T16:32:21Z</time></trkpt><trkpt lat="46.474489972110604" lon="12.446317294966342"><ele>723.8000000000001</ele><time>2026-04-23T16:32:22Z</time></trkpt><trkpt lat="46.474375447177074" lon="12.446311753617303"><ele>728.6</ele><time>2026-04-23T16:32:23Z</time></trkpt><trkpt lat="46.474270951861" lon="12.446382055561669"><ele>733.4</ele><time>2026-04-23T16:32:24Z</time></trkpt><trkpt lat="46.47417771298653" lon="12.446453633717123"><ele>738.2</ele><time>2026-04-23T16:32:25Z</time></trkpt><trkpt lat="46.47408290103251" lon="12.446531596878092"><ele>743.0</ele><time>2026-04-23T16:32:26Z</time></trkpt><trkpt lat="46.47400203300258" lon="12.446606902475274"><ele>743.0</ele><time>2026-04-23T16:32:27Z</time></trkpt><trkpt lat="46.473914956065094" lon="12.446705965729356"><ele>743.0</ele><time>2026-04-23T16:32:28Z</time></trkpt><trkpt lat="46.47385345758078" lon="12.446784903739632"><ele>743.0</ele><time>2026-04-23T16:32:29Z</time></trkpt><trkpt lat="46.47380122135649" lon="12.446851767509397"><ele>743.0</ele><time>2026-04-23T16:32:30Z</time></trkpt><trkpt lat="46.47379813730716" lon="12.446943617919382"><ele>743.0</ele><time>2026-04-23T16:32:31Z</time></trkpt><trkpt lat="46.47385672637261" lon="12.447000616636904"><ele>743.0</ele><time>2026-04-23T16:32:32Z</time></trkpt><trkpt lat="46.47392700280121" lon="12.447006961183241"><ele>743.0</ele><time>2026-04-23T16:32:33Z</time></trkpt><trkpt lat="46.47400467675392" lon="12.446948075704228"><ele>743.0</ele><time>2026-04-23T16:32:34Z</time></trkpt><trkpt lat="46.474073252600604" lon="12.44684976357935"><ele>743.0</ele><time>2026-04-23T16:32:35Z</time></trkpt><trkpt lat="46.47416602575394" lon="12.446743039268657"><ele>743.0</ele><time>2026-04-23T16:32:36Z</time></trkpt><trkpt lat="46.474262821734825" lon="12.446658094255158"><ele>743.0</ele><time>2026-04-23T16:32:37Z</time></trkpt><trkpt lat="46.47436252294653" lon="12.446607278927159"><ele>743.0</ele><time>2026-04-23T16:32:38Z</time></trkpt><trkpt lat="46.47446089640903" lon="12.446588620769962"><ele>743.0</ele><time>2026-04-23T16:32:39Z</time></trkpt><trkpt lat="46.47456336840517" lon="12.446596394880633"><ele>743.0</ele><time>2026-04-23T16:32:40Z</time></trkpt><trkpt lat="46.47464202715594" lon="12.446605961047592"><ele>743.0</ele><time>2026-04-23T16:32:41Z</time></trkpt><trkpt lat="46.47470445337378" lon="12.446634521541865"><ele>743.0</ele><time>2026-04-23T16:32:42Z</time></trkpt><trkpt lat="46.47475158958761" lon="12.446719253701662"><ele>743.0</ele><time>2026-04-23T16:32:43Z</time></trkpt><trkpt lat="46.47471490008759" lon="12.446841817089277"><ele>743.0</ele><time>2026-04-23T16:32:45Z</time></trkpt><trkpt lat="46.47461552407193" lon="12.44681945506926"><ele>743.0</ele><time>2026-04-23T16:32:47.999Z</time></trkpt><trkpt lat="46.47453789958738" lon="12.446832439684822"><ele>743.0</ele><time>2026-04-23T16:32:48.999Z</time></trkpt><trkpt lat="46.47444889583126" lon="12.44687640607977"><ele>743.0</ele><time>2026-04-23T16:32:49.999Z</time></trkpt><trkpt lat="46.47438047281376" lon="12.446920715393283"><ele>743.0</ele><time>2026-04-23T16:32:50.999Z</time></trkpt><trkpt lat="46.4743199729397" lon="12.447000512787383"><ele>743.0</ele><time>2026-04-23T16:32:51.999Z</time></trkpt><trkpt lat="46.47429355293438" lon="12.447150411841012"><ele>744.8</ele><time>2026-04-23T16:32:52.999Z</time></trkpt><trkpt lat="46.47423156910474" lon="12.447281122349978"><ele>746.5999999999999</ele><time>2026-04-23T16:32:53.999Z</time></trkpt><trkpt lat="46.47417118490721" lon="12.44743888922199"><ele>748.4000000000001</ele><time>2026-04-23T16:32:54.999Z</time></trkpt><trkpt lat="46.474127183698506" lon="12.447583055817342"><ele>750.2</ele><time>2026-04-23T16:32:55.999Z</time></trkpt><trkpt lat="46.47411455198045" lon="12.447680367042974"><ele>752.0</ele><time>2026-04-23T16:32:56.999Z</time></trkpt><trkpt lat="46.47412801251219" lon="12.447776546359275"><ele>752.0</ele><time>2026-04-23T16:32:57.999Z</time></trkpt><trkpt lat="46.474173755303525" lon="12.44784261799064"><ele>752.0</ele><time>2026-04-23T16:32:58.999Z</time></trkpt><trkpt lat="46.47426829830087" lon="12.447867316123826"><ele>752.0</ele><time>2026-04-23T16:32:59.999Z</time></trkpt><trkpt lat="46.47435134744744" lon="12.447885397992161"><ele>752.0</ele><time>2026-04-23T16:33:00.999Z</time></trkpt><trkpt lat="46.47445204521533" lon="12.447878863448837"><ele>752.0</ele><time>2026-04-23T16:33:01.999Z</time></trkpt><trkpt lat="46.4745473200016" lon="12.447901511807478"><ele>752.0</ele><time>2026-04-23T16:33:02.999Z</time></trkpt><trkpt lat="46.474613547298844" lon="12.447943129683834"><ele>754.0</ele><time>2026-04-23T16:33:03.999Z</time></trkpt><trkpt lat="46.47469999981931" lon="12.44796205826349"><ele>756.0</ele><time>2026-04-23T16:33:05.999Z</time></trkpt><trkpt lat="46.47480435659734" lon="12.44790990087541"><ele>758.0</ele><time>2026-04-23T16:33:07.999Z</time></trkpt><trkpt lat="46.47484276364478" lon="12.447829497893576"><ele>760.0</ele><time>2026-04-23T16:33:08.999Z</time></trkpt><trkpt lat="46.47491094719589" lon="12.44775988662584"><ele>762.0</ele><time>2026-04-23T16:33:09.999Z</time></trkpt><trkpt lat="46.47496495941253" lon="12.447661533652632"><ele>764.0</ele><time>2026-04-23T16:33:10.999Z</time></trkpt><trkpt lat="46.475033851226335" lon="12.447591181719861"><ele>764.0</ele><time>2026-04-23T16:33:11.999Z</time></trkpt><trkpt lat="46.4751110192217" lon="12.44750301288678"><ele>764.0</ele><time>2026-04-23T16:33:13.999Z</time></trkpt><trkpt lat="46.47521228040205" lon="12.447506553192202"><ele>764.0</ele><time>2026-04-23T16:33:15.999Z</time></trkpt><trkpt lat="46.47529964731928" lon="12.44753562451867"><ele>764.0</ele><time>2026-04-23T16:33:16.999Z</time></trkpt><trkpt lat="46.47536678236856" lon="12.44754399636021"><ele>764.0</ele><time>2026-04-23T16:33:17.999Z</time></trkpt><trkpt lat="46.47552658478197" lon="12.447607473684224"><ele>765.75</ele><time>2026-04-23T16:33:19.999Z</time></trkpt><trkpt lat="46.475655698626376" lon="12.447691494400077"><ele>767.5</ele><time>2026-04-23T16:33:20.999Z</time></trkpt><trkpt lat="46.475770995630626" lon="12.44774339799908"><ele>769.25</ele><time>2026-04-23T16:33:21.999Z</time></trkpt><trkpt lat="46.47591082816359" lon="12.447890698067512"><ele>771.0</ele><time>2026-04-23T16:33:22.999Z</time></trkpt><trkpt lat="46.47604061754989" lon="12.44793813481817"><ele>772.25</ele><time>2026-04-23T16:33:23.999Z</time></trkpt><trkpt lat="46.47617461616666" lon="12.448004486830076"><ele>773.5</ele><time>2026-04-23T16:33:24.999Z</time></trkpt><trkpt lat="46.47630690425189" lon="12.44808616915112"><ele>774.75</ele><time>2026-04-23T16:33:25.999Z</time></trkpt><trkpt lat="46.47645377198415" lon="12.448169225470195"><ele>776.0</ele><time>2026-04-23T16:33:26.999Z</time></trkpt><trkpt lat="46.476602209642316" lon="12.448254367433213"><ele>776.0</ele><time>2026-04-23T16:33:27.999Z</time></trkpt><trkpt lat="46.476734183142135" lon="12.448352592616313"><ele>776.0</ele><time>2026-04-23T16:33:28.999Z</time></trkpt><trkpt lat="46.47683169910043" lon="12.448477999804108"><ele>776.0</ele><time>2026-04-23T16:33:29.999Z</time></trkpt><trkpt lat="46.47691571297163" lon="12.448583591130594"><ele>776.0</ele><time>2026-04-23T16:33:30.999Z</time></trkpt><trkpt lat="46.47699087647033" lon="12.448658928715785"><ele>776.0</ele><time>2026-04-23T16:33:31.999Z</time></trkpt><trkpt lat="46.477043469153976" lon="12.448719905603449"><ele>776.0</ele><time>2026-04-23T16:33:32.998Z</time></trkpt><trkpt lat="46.47710075511017" lon="12.448834816069525"><ele>776.0</ele><time>2026-04-23T16:33:34.998Z</time></trkpt><trkpt lat="46.47700988092558" lon="12.4488826963702"><ele>776.0</ele><time>2026-04-23T16:33:36.998Z</time></trkpt><trkpt lat="46.47690114831681" lon="12.448829371293632"><ele>776.0</ele><time>2026-04-23T16:33:38.998Z</time></trkpt><trkpt lat="46.47679867455833" lon="12.44873145492775"><ele>776.0</ele><time>2026-04-23T16:33:39.998Z</time></trkpt><trkpt lat="46.4767031132029" lon="12.44863234153952"><ele>776.0</ele><time>2026-04-23T16:33:40.998Z</time></trkpt><trkpt lat="46.476589062816934" lon="12.448554812718765"><ele>776.0</ele><time>2026-04-23T16:33:41.998Z</time></trkpt><trkpt lat="46.47647954825489" lon="12.448517620755041"><ele>776.0</ele><time>2026-04-23T16:33:42.998Z</time></trkpt><trkpt lat="46.476372975290445" lon="12.448491577641837"><ele>776.0</ele><time>2026-04-23T16:33:43.998Z</time></trkpt><trkpt lat="46.476275148800944" lon="12.448462325103899"><ele>776.0</ele><time>2026-04-23T16:33:44.998Z</time></trkpt><trkpt lat="46.47617735396828" lon="12.448465280030858"><ele>776.0</ele><time>2026-04-23T16:33:45.998Z</time></trkpt><trkpt lat="46.47606917715074" lon="12.448493557205547"><ele>776.0</ele><time>2026-04-23T16:33:46.998Z</time></trkpt><trkpt lat="46.475974671074844" lon="12.448537303011044"><ele>776.0</ele><time>2026-04-23T16:33:47.998Z</time></trkpt><trkpt lat="46.47589894519646" lon="12.448572373251434"><ele>776.4</ele><time>2026-04-23T16:33:48.998Z</time></trkpt><trkpt lat="46.47584062301227" lon="12.448643015619279"><ele>776.8</ele><time>2026-04-23T16:33:49.998Z</time></trkpt><trkpt lat="46.475802955080994" lon="12.448782289976014"><ele>777.1999999999999</ele><time>2026-04-23T16:33:50.998Z</time></trkpt><trkpt lat="46.47578321002138" lon="12.448928628954572"><ele>777.5999999999999</ele><time>2026-04-23T16:33:51.998Z</time></trkpt><trkpt lat="46.47577555959264" lon="12.449096231132215"><ele>778.0</ele><time>2026-04-23T16:33:52.998Z</time></trkpt><trkpt lat="46.47579095328599" lon="12.4492771617646"><ele>779.5</ele><time>2026-04-23T16:33:53.998Z</time></trkpt><trkpt lat="46.47581783732531" lon="12.449417190861572"><ele>781.0</ele><time>2026-04-23T16:33:54.998Z</time></trkpt><trkpt lat="46.475864248177224" lon="12.449563786273004"><ele>782.5</ele><time>2026-04-23T16:33:55.998Z</time></trkpt><trkpt lat="46.47596247432096" lon="12.44968732163342"><ele>784.0</ele><time>2026-04-23T16:33:56.998Z</time></trkpt><trkpt lat="46.476061563758634" lon="12.449800780777672"><ele>784.75</ele><time>2026-04-23T16:33:57.998Z</time></trkpt><trkpt lat="46.476161644131516" lon="12.449917795167677"><ele>785.5</ele><time>2026-04-23T16:33:58.998Z</time></trkpt><trkpt lat="46.47626285748394" lon="12.450050085601893"><ele>786.25</ele><time>2026-04-23T16:33:59.998Z</time></trkpt><trkpt lat="46.47634849624314" lon="12.450195466437474"><ele>787.0</ele><time>2026-04-23T16:34:00.998Z</time></trkpt><trkpt lat="46.47642599756928" lon="12.450339366815324"><ele>787.0</ele><time>2026-04-23T16:34:01.998Z</time></trkpt><trkpt lat="46.47649631428641" lon="12.450454502376147"><ele>787.0</ele><time>2026-04-23T16:34:02.998Z</time></trkpt><trkpt lat="46.47655336102743" lon="12.450538433344407"><ele>787.0</ele><time>2026-04-23T16:34:03.998Z</time></trkpt><trkpt lat="46.47661920200961" lon="12.45062253876876"><ele>787.0</ele><time>2026-04-23T16:34:04.998Z</time></trkpt><trkpt lat="46.476718338185215" lon="12.45069821188218"><ele>787.0</ele><time>2026-04-23T16:34:05.998Z</time></trkpt><trkpt lat="46.47681278004765" lon="12.45076496693093"><ele>789.5</ele><time>2026-04-23T16:34:06.998Z</time></trkpt><trkpt lat="46.476898551922666" lon="12.450854242294831"><ele>792.0</ele><time>2026-04-23T16:34:07.998Z</time></trkpt><trkpt lat="46.47700454153037" lon="12.450920517315"><ele>794.5</ele><time>2026-04-23T16:34:08.998Z</time></trkpt><trkpt lat="46.47712351199516" lon="12.450944926091623"><ele>797.0</ele><time>2026-04-23T16:34:09.998Z</time></trkpt><trkpt lat="46.477255804458146" lon="12.45095244561353"><ele>797.0</ele><time>2026-04-23T16:34:10.998Z</time></trkpt><trkpt lat="46.47740327438855" lon="12.450914831685406"><ele>797.0</ele><time>2026-04-23T16:34:11.998Z</time></trkpt><trkpt lat="46.477554362085094" lon="12.45087225849269"><ele>797.0</ele><time>2026-04-23T16:34:12.998Z</time></trkpt><trkpt lat="46.47766204125083" lon="12.450839882616163"><ele>797.0</ele><time>2026-04-23T16:34:13.998Z</time></trkpt><trkpt lat="46.47776360752029" lon="12.450870902295106"><ele>797.0</ele><time>2026-04-23T16:34:14.998Z</time></trkpt><trkpt lat="46.47786945392732" lon="12.450945566999321"><ele>797.0</ele><time>2026-04-23T16:34:15.998Z</time></trkpt><trkpt lat="46.47796737517492" lon="12.45104105056295"><ele>797.0</ele><time>2026-04-23T16:34:16.998Z</time></trkpt><trkpt lat="46.47809800560027" lon="12.451170388113496"><ele>797.0</ele><time>2026-04-23T16:34:18Z</time></trkpt><trkpt lat="46.47821677654058" lon="12.451276599455051"><ele>801.2</ele><time>2026-04-23T16:34:19Z</time></trkpt><trkpt lat="46.4783267599511" lon="12.451325321790176"><ele>805.4000000000001</ele><time>2026-04-23T16:34:20Z</time></trkpt><trkpt lat="46.47843432893856" lon="12.451338359452738"><ele>809.5999999999999</ele><time>2026-04-23T16:34:21Z</time></trkpt><trkpt lat="46.47853517717263" lon="12.45134694919971"><ele>813.8</ele><time>2026-04-23T16:34:22Z</time></trkpt><trkpt lat="46.478638533529285" lon="12.451364985860543"><ele>818.0</ele><time>2026-04-23T16:34:23Z</time></trkpt><trkpt lat="46.47869733051736" lon="12.451406301706385"><ele>818.0</ele><time>2026-04-23T16:34:24Z</time></trkpt><trkpt lat="46.478730805457374" lon="12.45152617484547"><ele>818.0</ele><time>2026-04-23T16:34:25Z</time></trkpt><trkpt lat="46.47876326835315" lon="12.451646440823925"><ele>818.0</ele><time>2026-04-23T16:34:26Z</time></trkpt><trkpt lat="46.478813372128634" lon="12.451796394890705"><ele>818.0</ele><time>2026-04-23T16:34:27Z</time></trkpt><trkpt lat="46.47886949003173" lon="12.451970114531703"><ele>818.0</ele><time>2026-04-23T16:34:28Z</time></trkpt><trkpt lat="46.47893109059217" lon="12.452096297865586"><ele>819.4</ele><time>2026-04-23T16:34:29Z</time></trkpt><trkpt lat="46.47899527327222" lon="12.452175855437572"><ele>820.8</ele><time>2026-04-23T16:34:30Z</time></trkpt><trkpt lat="46.47910924326825" lon="12.452144457688854"><ele>822.2</ele><time>2026-04-23T16:34:31Z</time></trkpt><trkpt lat="46.47922587039449" lon="12.452123383327587"><ele>823.6</ele><time>2026-04-23T16:34:32Z</time></trkpt><trkpt lat="46.47932037359284" lon="12.452156078782178"><ele>825.0</ele><time>2026-04-23T16:34:33Z</time></trkpt><trkpt lat="46.47939872656424" lon="12.452215449841793"><ele>825.0</ele><time>2026-04-23T16:34:34Z</time></trkpt><trkpt lat="46.479535082520414" lon="12.452304956960461"><ele>825.0</ele><time>2026-04-23T16:34:35Z</time></trkpt><trkpt lat="46.479630123608565" lon="12.45236598799976"><ele>825.0</ele><time>2026-04-23T16:34:36Z</time></trkpt><trkpt lat="46.4797070841304" lon="12.452414586460298"><ele>825.0</ele><time>2026-04-23T16:34:37Z</time></trkpt><trkpt lat="46.4797677973619" lon="12.452461096805642"><ele>825.0</ele><time>2026-04-23T16:34:38Z</time></trkpt><trkpt lat="46.47978066286221" lon="12.452599002308197"><ele>825.0</ele><time>2026-04-23T16:34:40Z</time></trkpt><trkpt lat="46.47964024606706" lon="12.452652217629547"><ele>825.0</ele><time>2026-04-23T16:34:42Z</time></trkpt><trkpt lat="46.47953578702578" lon="12.452587293253238"><ele>825.0</ele><time>2026-04-23T16:34:43Z</time></trkpt><trkpt lat="46.47941548576321" lon="12.452537750283195"><ele>825.0</ele><time>2026-04-23T16:34:44Z</time></trkpt><trkpt lat="46.47928540190177" lon="12.452490951434228"><ele>825.0</ele><time>2026-04-23T16:34:45Z</time></trkpt><trkpt lat="46.47915450703091" lon="12.452468786824777"><ele>825.0</ele><time>2026-04-23T16:34:46Z</time></trkpt><trkpt lat="46.47904435874997" lon="12.45246778262929"><ele>825.0</ele><time>2026-04-23T16:34:47Z</time></trkpt><trkpt lat="46.47894789672642" lon="12.45253367515525"><ele>825.0</ele><time>2026-04-23T16:34:48Z</time></trkpt><trkpt lat="46.4788367121151" lon="12.452637482030989"><ele>825.2</ele><time>2026-04-23T16:34:49Z</time></trkpt><trkpt lat="46.47874690549554" lon="12.452735127468872"><ele>825.4</ele><time>2026-04-23T16:34:50Z</time></trkpt><trkpt lat="46.47865824917329" lon="12.452799369441378"><ele>825.5999999999999</ele><time>2026-04-23T16:34:51Z</time></trkpt><trkpt lat="46.478557658691514" lon="12.452793122763874"><ele>825.8</ele><time>2026-04-23T16:34:52Z</time></trkpt><trkpt lat="46.47844340548116" lon="12.452734153881117"><ele>826.0</ele><time>2026-04-23T16:34:53Z</time></trkpt><trkpt lat="46.478333246218874" lon="12.452698460353227"><ele>826.0</ele><time>2026-04-23T16:34:53.999Z</time></trkpt><trkpt lat="46.478252091909965" lon="12.45266086303449"><ele>826.0</ele><time>2026-04-23T16:34:54.999Z</time></trkpt><trkpt lat="46.47815160022769" lon="12.452683510143741"><ele>826.0</ele><time>2026-04-23T16:34:55.999Z</time></trkpt><trkpt lat="46.478055147771705" lon="12.452769565869682"><ele>826.0</ele><time>2026-04-23T16:34:56.999Z</time></trkpt><trkpt lat="46.47793749494234" lon="12.45287211458545"><ele>826.0</ele><time>2026-04-23T16:34:57.999Z</time></trkpt><trkpt lat="46.47780763478266" lon="12.452971634048922"><ele>828.0</ele><time>2026-04-23T16:34:58.999Z</time></trkpt><trkpt lat="46.47768869309413" lon="12.45306139540004"><ele>830.0</ele><time>2026-04-23T16:34:59.999Z</time></trkpt><trkpt lat="46.477569854011044" lon="12.453158596319676"><ele>832.0</ele><time>2026-04-23T16:35:00.999Z</time></trkpt><trkpt lat="46.477464033640935" lon="12.453244991966145"><ele>834.0</ele><time>2026-04-23T16:35:01.999Z</time></trkpt><trkpt lat="46.477382396949956" lon="12.453309592415746"><ele>834.0</ele><time>2026-04-23T16:35:02.999Z</time></trkpt><trkpt lat="46.477321136234636" lon="12.453362617386277"><ele>834.0</ele><time>2026-04-23T16:35:03.999Z</time></trkpt><trkpt lat="46.47734483494418" lon="12.453585651933633"><ele>834.0</ele><time>2026-04-23T16:35:06.999Z</time></trkpt><trkpt lat="46.4773794910714" lon="12.453688305740899"><ele>834.0</ele><time>2026-04-23T16:35:07.999Z</time></trkpt><trkpt lat="46.4774222987131" lon="12.453775655088023"><ele>834.0</ele><time>2026-04-23T16:35:08.999Z</time></trkpt><trkpt lat="46.47748339140414" lon="12.4538878473202"><ele>834.0</ele><time>2026-04-23T16:35:10.999Z</time></trkpt><trkpt lat="46.47767270900066" lon="12.453809712922357"><ele>834.0</ele><time>2026-04-23T16:35:12.999Z</time></trkpt><trkpt lat="46.4777799136855" lon="12.453777166390873"><ele>834.0</ele><time>2026-04-23T16:35:13.999Z</time></trkpt><trkpt lat="46.47787745156985" lon="12.45374530461194"><ele>834.0</ele><time>2026-04-23T16:35:14.999Z</time></trkpt><trkpt lat="46.47796901067746" lon="12.453726601595882"><ele>834.3333333333334</ele><time>2026-04-23T16:35:15.999Z</time></trkpt><trkpt lat="46.47805459531377" lon="12.453753902848735"><ele>834.6666666666667</ele><time>2026-04-23T16:35:16.999Z</time></trkpt><trkpt lat="46.47812772559171" lon="12.453776226017583"><ele>835.0</ele><time>2026-04-23T16:35:17.999Z</time></trkpt><trkpt lat="46.47819309958728" lon="12.45382641798617"><ele>835.3333333333334</ele><time>2026-04-23T16:35:18.999Z</time></trkpt><trkpt lat="46.478264572674014" lon="12.45390293161758"><ele>835.6666666666667</ele><time>2026-04-23T16:35:19.999Z</time></trkpt><trkpt lat="46.47837012501582" lon="12.453991150035687"><ele>836.0</ele><time>2026-04-23T16:35:20.999Z</time></trkpt><trkpt lat="46.478485547547415" lon="12.454126576309395"><ele>838.5</ele><time>2026-04-23T16:35:21.999Z</time></trkpt><trkpt lat="46.47858998873431" lon="12.454240994239496"><ele>841.0</ele><time>2026-04-23T16:35:22.999Z</time></trkpt><trkpt lat="46.478711377778794" lon="12.454359409441746"><ele>843.5</ele><time>2026-04-23T16:35:23.999Z</time></trkpt><trkpt lat="46.478852067432136" lon="12.45446725150352"><ele>846.0</ele><time>2026-04-23T16:35:24.999Z</time></trkpt><trkpt lat="46.478988288966995" lon="12.454588230360127"><ele>850.0</ele><time>2026-04-23T16:35:25.999Z</time></trkpt><trkpt lat="46.47912026710933" lon="12.45472180252132"><ele>854.0</ele><time>2026-04-23T16:35:26.999Z</time></trkpt><trkpt lat="46.479255940004634" lon="12.454874007775723"><ele>858.0</ele><time>2026-04-23T16:35:27.999Z</time></trkpt><trkpt lat="46.47938553339947" lon="12.455026468495218"><ele>858.0</ele><time>2026-04-23T16:35:28.999Z</time></trkpt><trkpt lat="46.47950071758238" lon="12.455166862448943"><ele>858.0</ele><time>2026-04-23T16:35:29.999Z</time></trkpt><trkpt lat="46.47959376811556" lon="12.455303559768403"><ele>858.0</ele><time>2026-04-23T16:35:30.999Z</time></trkpt><trkpt lat="46.47967060535949" lon="12.455445611234488"><ele>858.0</ele><time>2026-04-23T16:35:31.999Z</time></trkpt><trkpt lat="46.47971657758425" lon="12.455615391947342"><ele>858.0</ele><time>2026-04-23T16:35:32.999Z</time></trkpt><trkpt lat="46.4797418410702" lon="12.455807493057025"><ele>858.0</ele><time>2026-04-23T16:35:33.999Z</time></trkpt><trkpt lat="46.47976796344131" lon="12.45597010931888"><ele>858.0</ele><time>2026-04-23T16:35:34.999Z</time></trkpt><trkpt lat="46.47982813985591" lon="12.45611865512647"><ele>858.0</ele><time>2026-04-23T16:35:35.999Z</time></trkpt><trkpt lat="46.4799174369259" lon="12.456246721188688"><ele>862.0</ele><time>2026-04-23T16:35:36.999Z</time></trkpt><trkpt lat="46.4800414852611" lon="12.456353366913707"><ele>866.0</ele><time>2026-04-23T16:35:37.999Z</time></trkpt><trkpt lat="46.48018215160373" lon="12.456437403982038"><ele>870.0</ele><time>2026-04-23T16:35:38.999Z</time></trkpt><trkpt lat="46.48034098356005" lon="12.456530322070591"><ele>869.75</ele><time>2026-04-23T16:35:39.999Z</time></trkpt><trkpt lat="46.48047105219598" lon="12.456627131739857"><ele>869.5</ele><time>2026-04-23T16:35:40.999Z</time></trkpt><trkpt lat="46.48057179599682" lon="12.456747212959513"><ele>869.25</ele><time>2026-04-23T16:35:41.998Z</time></trkpt><trkpt lat="46.480673137132804" lon="12.456853617092536"><ele>869.0</ele><time>2026-04-23T16:35:42.998Z</time></trkpt><trkpt lat="46.480781986877936" lon="12.456944427464311"><ele>869.0</ele><time>2026-04-23T16:35:43.998Z</time></trkpt><trkpt lat="46.48090936657095" lon="12.457015291441763"><ele>869.0</ele><time>2026-04-23T16:35:44.998Z</time></trkpt><trkpt lat="46.481027521316506" lon="12.457089641080769"><ele>869.0</ele><time>2026-04-23T16:35:45.998Z</time></trkpt><trkpt lat="46.481142867573176" lon="12.457137991355506"><ele>869.0</ele><time>2026-04-23T16:35:46.998Z</time></trkpt><trkpt lat="46.481247916331476" lon="12.457179963937657"><ele>868.8000000000001</ele><time>2026-04-23T16:35:47.998Z</time></trkpt><trkpt lat="46.481343378656426" lon="12.457204629716964"><ele>868.6000000000001</ele><time>2026-04-23T16:35:48.998Z</time></trkpt><trkpt lat="46.48142150284404" lon="12.457242297420162"><ele>868.4</ele><time>2026-04-23T16:35:49.998Z</time></trkpt><trkpt lat="46.48150749988822" lon="12.457318068791853"><ele>868.2</ele><time>2026-04-23T16:35:51.998Z</time></trkpt><trkpt lat="46.481440406262344" lon="12.457458301325213"><ele>868.0</ele><time>2026-04-23T16:35:54.998Z</time></trkpt><trkpt lat="46.48138198764518" lon="12.457536000536232"><ele>868.0</ele><time>2026-04-23T16:35:55.998Z</time></trkpt><trkpt lat="46.4812997815866" lon="12.457616663403787"><ele>868.0</ele><time>2026-04-23T16:35:56.998Z</time></trkpt><trkpt lat="46.481192608079624" lon="12.457720016863979"><ele>868.0</ele><time>2026-04-23T16:35:57.998Z</time></trkpt><trkpt lat="46.48107845022192" lon="12.457826612620513"><ele>868.0</ele><time>2026-04-23T16:35:58.998Z</time></trkpt><trkpt lat="46.48095280864997" lon="12.45794352943908"><ele>871.5</ele><time>2026-04-23T16:35:59.998Z</time></trkpt><trkpt lat="46.48083082623596" lon="12.458059623684433"><ele>875.0</ele><time>2026-04-23T16:36:00.998Z</time></trkpt><trkpt lat="46.480713279235026" lon="12.45817187787368"><ele>878.5</ele><time>2026-04-23T16:36:01.998Z</time></trkpt><trkpt lat="46.48060273171205" lon="12.458281843975522"><ele>882.0</ele><time>2026-04-23T16:36:02.998Z</time></trkpt><trkpt lat="46.48049757002386" lon="12.458389941694909"><ele>883.75</ele><time>2026-04-23T16:36:03.998Z</time></trkpt><trkpt lat="46.480407069107855" lon="12.458516871556823"><ele>885.5</ele><time>2026-04-23T16:36:04.998Z</time></trkpt><trkpt lat="46.48032678527361" lon="12.45866367945259"><ele>887.25</ele><time>2026-04-23T16:36:05.998Z</time></trkpt><trkpt lat="46.48024869626427" lon="12.458817660044296"><ele>889.0</ele><time>2026-04-23T16:36:06.998Z</time></trkpt><trkpt lat="46.48016060068526" lon="12.458983294850839"><ele>889.25</ele><time>2026-04-23T16:36:07.998Z</time></trkpt><trkpt lat="46.48006250401132" lon="12.459130846806104"><ele>889.5</ele><time>2026-04-23T16:36:08.998Z</time></trkpt><trkpt lat="46.47996981425734" lon="12.459280493607963"><ele>889.75</ele><time>2026-04-23T16:36:09.998Z</time></trkpt><trkpt lat="46.47987712042391" lon="12.459427495567676"><ele>890.0</ele><time>2026-04-23T16:36:10.998Z</time></trkpt><trkpt lat="46.479787841820546" lon="12.459576392024283"><ele>890.0</ele><time>2026-04-23T16:36:11.998Z</time></trkpt><trkpt lat="46.47969569256887" lon="12.459716642603732"><ele>890.0</ele><time>2026-04-23T16:36:12.998Z</time></trkpt><trkpt lat="46.479617492623994" lon="12.45985653141686"><ele>890.0</ele><time>2026-04-23T16:36:13.998Z</time></trkpt><trkpt lat="46.4795599614169" lon="12.460010407688099"><ele>890.0</ele><time>2026-04-23T16:36:14.998Z</time></trkpt><trkpt lat="46.479483263058235" lon="12.460177275650395"><ele>890.0</ele><time>2026-04-23T16:36:15.998Z</time></trkpt><trkpt lat="46.47944970567991" lon="12.460402805956601"><ele>890.0</ele><time>2026-04-23T16:36:16.998Z</time></trkpt><trkpt lat="46.479514017610086" lon="12.460613479044833"><ele>890.0</ele><time>2026-04-23T16:36:17.998Z</time></trkpt><trkpt lat="46.479484580165355" lon="12.460771453462657"><ele>890.0</ele><time>2026-04-23T16:36:18.998Z</time></trkpt><trkpt lat="46.479457485052286" lon="12.460902228703706"><ele>890.4</ele><time>2026-04-23T16:36:19.998Z</time></trkpt><trkpt lat="46.479388109027255" lon="12.460977343031987"><ele>890.8</ele><time>2026-04-23T16:36:20.998Z</time></trkpt><trkpt lat="46.479299644540376" lon="12.461018401589966"><ele>891.2</ele><time>2026-04-23T16:36:21.998Z</time></trkpt><trkpt lat="46.47919832800639" lon="12.460944086716067"><ele>891.6</ele><time>2026-04-23T16:36:22.998Z</time></trkpt><trkpt lat="46.47907967066077" lon="12.460864254053803"><ele>892.0</ele><time>2026-04-23T16:36:24Z</time></trkpt><trkpt lat="46.4789168439355" lon="12.460780399522198"><ele>890.0</ele><time>2026-04-23T16:36:25Z</time></trkpt><trkpt lat="46.47874569478844" lon="12.460669937291424"><ele>888.0</ele><time>2026-04-23T16:36:26Z</time></trkpt><trkpt lat="46.4785597416901" lon="12.460557210995885"><ele>886.0</ele><time>2026-04-23T16:36:27Z</time></trkpt><trkpt lat="46.47836067539663" lon="12.460431990468384"><ele>886.0</ele><time>2026-04-23T16:36:28Z</time></trkpt><trkpt lat="46.47818117416587" lon="12.460321010409478"><ele>886.0</ele><time>2026-04-23T16:36:29Z</time></trkpt><trkpt lat="46.478020172195905" lon="12.460241155751769"><ele>886.0</ele><time>2026-04-23T16:36:30Z</time></trkpt><trkpt lat="46.4778780670878" lon="12.460141738266953"><ele>888.0</ele><time>2026-04-23T16:36:31Z</time></trkpt><trkpt lat="46.47774672531937" lon="12.460052986671664"><ele>890.0</ele><time>2026-04-23T16:36:32Z</time></trkpt><trkpt lat="46.47762643875773" lon="12.459975381581945"><ele>892.0</ele><time>2026-04-23T16:36:33Z</time></trkpt><trkpt lat="46.477507519182595" lon="12.459945722651856"><ele>894.0</ele><time>2026-04-23T16:36:34Z</time></trkpt><trkpt lat="46.477383898874116" lon="12.459970968762065"><ele>894.0</ele><time>2026-04-23T16:36:35Z</time></trkpt><trkpt lat="46.477253916870886" lon="12.460037099424431"><ele>894.0</ele><time>2026-04-23T16:36:36Z</time></trkpt><trkpt lat="46.47713774502825" lon="12.460141682704409"><ele>894.0</ele><time>2026-04-23T16:36:37Z</time></trkpt><trkpt lat="46.477049660287946" lon="12.460322963875754"><ele>894.0</ele><time>2026-04-23T16:36:38Z</time></trkpt><trkpt lat="46.47695332196828" lon="12.460528130344281"><ele>895.6666666666667</ele><time>2026-04-23T16:36:39Z</time></trkpt><trkpt lat="46.476829250600225" lon="12.460717669927737"><ele>897.3333333333334</ele><time>2026-04-23T16:36:40Z</time></trkpt><trkpt lat="46.47671890928881" lon="12.460939237841743"><ele>899.0</ele><time>2026-04-23T16:36:41Z</time></trkpt><trkpt lat="46.47661497701795" lon="12.461143998394265"><ele>899.75</ele><time>2026-04-23T16:36:42Z</time></trkpt><trkpt lat="46.476516681736065" lon="12.4613052114734"><ele>900.5</ele><time>2026-04-23T16:36:43Z</time></trkpt><trkpt lat="46.47642400504463" lon="12.461453126573636"><ele>901.25</ele><time>2026-04-23T16:36:44Z</time></trkpt><trkpt lat="46.47630419684308" lon="12.461523122022394"><ele>902.0</ele><time>2026-04-23T16:36:45Z</time></trkpt><trkpt lat="46.47617450539237" lon="12.461565176086886"><ele>902.0</ele><time>2026-04-23T16:36:46Z</time></trkpt><trkpt lat="46.47605472991537" lon="12.461639912449689"><ele>902.0</ele><time>2026-04-23T16:36:47Z</time></trkpt><trkpt lat="46.47596600255986" lon="12.461730976552762"><ele>902.0</ele><time>2026-04-23T16:36:48Z</time></trkpt><trkpt lat="46.4759143136896" lon="12.461825650704741"><ele>902.0</ele><time>2026-04-23T16:36:49Z</time></trkpt><trkpt lat="46.475881171840605" lon="12.461924125013793"><ele>902.0</ele><time>2026-04-23T16:36:50Z</time></trkpt><trkpt lat="46.47585689788843" lon="12.462049806107215"><ele>903.4000000000001</ele><time>2026-04-23T16:36:51Z</time></trkpt><trkpt lat="46.475825479159845" lon="12.462188266410585"><ele>904.8000000000001</ele><time>2026-04-23T16:36:52Z</time></trkpt><trkpt lat="46.475773164281534" lon="12.462331342385012"><ele>906.2</ele><time>2026-04-23T16:36:53Z</time></trkpt><trkpt lat="46.47573532875456" lon="12.462480871186825"><ele>907.6</ele><time>2026-04-23T16:36:54Z</time></trkpt><trkpt lat="46.47570579424614" lon="12.462642986797947"><ele>909.0</ele><time>2026-04-23T16:36:55Z</time></trkpt><trkpt lat="46.47565401249875" lon="12.462799246519094"><ele>912.5</ele><time>2026-04-23T16:36:56Z</time></trkpt><trkpt lat="46.47562523180484" lon="12.462974115520467"><ele>916.0</ele><time>2026-04-23T16:36:57Z</time></trkpt><trkpt lat="46.47556584774263" lon="12.463132880210471"><ele>919.5</ele><time>2026-04-23T16:36:58Z</time></trkpt><trkpt lat="46.475523361731234" lon="12.463280394966551"><ele>923.0</ele><time>2026-04-23T16:36:59Z</time></trkpt><trkpt lat="46.475485984768945" lon="12.463402482097855"><ele>922.2</ele><time>2026-04-23T16:37:00Z</time></trkpt><trkpt lat="46.47537167331003" lon="12.463462856852313"><ele>921.4</ele><time>2026-04-23T16:37:01.999Z</time></trkpt><trkpt lat="46.475279120374275" lon="12.463456016109216"><ele>920.6000000000001</ele><time>2026-04-23T16:37:03.999Z</time></trkpt><trkpt lat="46.47518337250072" lon="12.463310049453572"><ele>919.8000000000001</ele><time>2026-04-23T16:37:05.999Z</time></trkpt><trkpt lat="46.475132351540715" lon="12.46324286719134"><ele>919.0</ele><time>2026-04-23T16:37:06.999Z</time></trkpt><trkpt lat="46.475078039410356" lon="12.463176329955513"><ele>919.0</ele><time>2026-04-23T16:37:07.999Z</time></trkpt><trkpt lat="46.47502435052277" lon="12.463109517866446"><ele>918.9999999999999</ele><time>2026-04-23T16:37:08.999Z</time></trkpt><trkpt lat="46.47496806031585" lon="12.46304724029757"><ele>919.0</ele><time>2026-04-23T16:37:09.999Z</time></trkpt><trkpt lat="46.474915318208765" lon="12.462988374640307"><ele>919.0</ele><time>2026-04-23T16:37:10.999Z</time></trkpt><trkpt lat="46.47486502493927" lon="12.46291976945086"><ele>918.9999999999999</ele><time>2026-04-23T16:37:11.999Z</time></trkpt><trkpt lat="46.47481514156313" lon="12.46285125912587"><ele>919.0</ele><time>2026-04-23T16:37:12.999Z</time></trkpt><trkpt lat="46.474767894115665" lon="12.462784273173867"><ele>919.0</ele><time>2026-04-23T16:37:13.999Z</time></trkpt><trkpt lat="46.47473464636767" lon="12.462695882897883"><ele>917.6</ele><time>2026-04-23T16:37:14.999Z</time></trkpt><trkpt lat="46.4746823037926" lon="12.462603601473042"><ele>916.2</ele><time>2026-04-23T16:37:15.999Z</time></trkpt><trkpt lat="46.47463629168315" lon="12.462467919030562"><ele>914.8000000000001</ele><time>2026-04-23T16:37:16.999Z</time></trkpt><trkpt lat="46.47457731890683" lon="12.462347682686557"><ele>913.4000000000001</ele><time>2026-04-23T16:37:17.999Z</time></trkpt><trkpt lat="46.47451648861756" lon="12.4622151328338"><ele>912.0</ele><time>2026-04-23T16:37:18.999Z</time></trkpt><trkpt lat="46.4744493778649" lon="12.462078683985265"><ele>921.5</ele><time>2026-04-23T16:37:19.999Z</time></trkpt><trkpt lat="46.47437871008565" lon="12.461930318059274"><ele>931.0</ele><time>2026-04-23T16:37:20.999Z</time></trkpt><trkpt lat="46.47431668011439" lon="12.461756406091945"><ele>940.5</ele><time>2026-04-23T16:37:21.999Z</time></trkpt><trkpt lat="46.474268246059765" lon="12.46156160850048"><ele>950.0</ele><time>2026-04-23T16:37:22.999Z</time></trkpt><trkpt lat="46.474228279527914" lon="12.461347127383123"><ele>946.25</ele><time>2026-04-23T16:37:23.999Z</time></trkpt><trkpt lat="46.47417901442319" lon="12.461124009678912"><ele>942.5</ele><time>2026-04-23T16:37:24.999Z</time></trkpt><trkpt lat="46.474132415124856" lon="12.460923223843608"><ele>938.75</ele><time>2026-04-23T16:37:25.999Z</time></trkpt><trkpt lat="46.47408331214564" lon="12.460754846619519"><ele>935.0</ele><time>2026-04-23T16:37:26.999Z</time></trkpt><trkpt lat="46.47398434050451" lon="12.460645652916515"><ele>935.0</ele><time>2026-04-23T16:37:27.999Z</time></trkpt><trkpt lat="46.473897816092276" lon="12.46051504566661"><ele>935.0</ele><time>2026-04-23T16:37:28.999Z</time></trkpt><trkpt lat="46.473819121336334" lon="12.46044435825379"><ele>935.0</ele><time>2026-04-23T16:37:29.999Z</time></trkpt><trkpt lat="46.47371807980774" lon="12.460426807164085"><ele>935.0</ele><time>2026-04-23T16:37:30.999Z</time></trkpt><trkpt lat="46.47361276771661" lon="12.460428595119977"><ele>935.0</ele><time>2026-04-23T16:37:31.999Z</time></trkpt><trkpt lat="46.47353504485249" lon="12.460419168378417"><ele>935.0000000000001</ele><time>2026-04-23T16:37:32.999Z</time></trkpt><trkpt lat="46.473468383932044" lon="12.460382779890908"><ele>935.0</ele><time>2026-04-23T16:37:34.999Z</time></trkpt><trkpt lat="46.47351660906272" lon="12.46048722333953"><ele>935.0</ele><time>2026-04-23T16:37:37.999Z</time></trkpt><trkpt lat="46.47358037921353" lon="12.460489800323574"><ele>935.0</ele><time>2026-04-23T16:37:38.999Z</time></trkpt><trkpt lat="46.473672841589085" lon="12.460483932966333"><ele>935.0000000000001</ele><time>2026-04-23T16:37:39.999Z</time></trkpt><trkpt lat="46.47377646139272" lon="12.460483662365679"><ele>935.0</ele><time>2026-04-23T16:37:40.999Z</time></trkpt><trkpt lat="46.473876110099994" lon="12.460520238144426"><ele>935.0</ele><time>2026-04-23T16:37:41.999Z</time></trkpt><trkpt lat="46.47395556171621" lon="12.46065040584634"><ele>935.0</ele><time>2026-04-23T16:37:42.999Z</time></trkpt><trkpt lat="46.47404396022047" lon="12.460793504442211"><ele>935.0</ele><time>2026-04-23T16:37:43.999Z</time></trkpt><trkpt lat="46.47411376618043" lon="12.460995379460778"><ele>935.0</ele><time>2026-04-23T16:37:44.999Z</time></trkpt><trkpt lat="46.47416348803615" lon="12.46121883312805"><ele>940.0</ele><time>2026-04-23T16:37:45.999Z</time></trkpt><trkpt lat="46.47420905783801" lon="12.461459473570349"><ele>945.0</ele><time>2026-04-23T16:37:46.999Z</time></trkpt><trkpt lat="46.4742581921586" lon="12.461715765226119"><ele>950.0</ele><time>2026-04-23T16:37:47.999Z</time></trkpt><trkpt lat="46.47434086284858" lon="12.461970609498564"><ele>954.3333333333334</ele><time>2026-04-23T16:37:48.999Z</time></trkpt><trkpt lat="46.47444463008216" lon="12.462202174482197"><ele>958.6666666666667</ele><time>2026-04-23T16:37:49.998Z</time></trkpt><trkpt lat="46.47455575673416" lon="12.462418977698874"><ele>963.0</ele><time>2026-04-23T16:37:50.998Z</time></trkpt><trkpt lat="46.47465004518725" lon="12.462598047702535"><ele>952.0</ele><time>2026-04-23T16:37:51.998Z</time></trkpt><trkpt lat="46.47473956143461" lon="12.462768696329675"><ele>941.0</ele><time>2026-04-23T16:37:52.998Z</time></trkpt><trkpt lat="46.47482598968411" lon="12.462930872694615"><ele>930.0</ele><time>2026-04-23T16:37:53.998Z</time></trkpt><trkpt lat="46.47492645507825" lon="12.46307102789349"><ele>919.0</ele><time>2026-04-23T16:37:54.998Z</time></trkpt><trkpt lat="46.475027735987446" lon="12.463187844828788"><ele>918.9999999999999</ele><time>2026-04-23T16:37:55.998Z</time></trkpt><trkpt lat="46.475115478837246" lon="12.463292949999085"><ele>919.0</ele><time>2026-04-23T16:37:56.998Z</time></trkpt><trkpt lat="46.475188570970246" lon="12.46338687168991"><ele>919.0</ele><time>2026-04-23T16:37:57.998Z</time></trkpt><trkpt lat="46.47524933614719" lon="12.463464038700216"><ele>919.0</ele><time>2026-04-23T16:37:58.998Z</time></trkpt><trkpt lat="46.47529254246142" lon="12.463535081080808"><ele>918.9999999999999</ele><time>2026-04-23T16:37:59.998Z</time></trkpt><trkpt lat="46.47534593778445" lon="12.463642909475176"><ele>919.0</ele><time>2026-04-23T16:38:01.998Z</time></trkpt><trkpt lat="46.47530499364501" lon="12.463743398194183"><ele>919.0</ele><time>2026-04-23T16:38:04.998Z</time></trkpt><trkpt lat="46.47523712877786" lon="12.463638658304298"><ele>919.0000000000001</ele><time>2026-04-23T16:40:11.998Z</time></trkpt><trkpt lat="46.47525854002705" lon="12.463529183232911"><ele>919.0000000000001</ele><time>2026-04-23T16:40:13.998Z</time></trkpt><trkpt lat="46.47522875024879" lon="12.463367529034107"><ele>919.0</ele><time>2026-04-23T16:40:31.998Z</time></trkpt><trkpt lat="46.475152296230846" lon="12.463274142750231"><ele>919.0</ele><time>2026-04-23T16:40:32.998Z</time></trkpt><trkpt lat="46.47509731092793" lon="12.463165124639968"><ele>919.0</ele><time>2026-04-23T16:40:33.998Z</time></trkpt><trkpt lat="46.475005991536975" lon="12.463060960971115"><ele>919.0</ele><time>2026-04-23T16:40:34.998Z</time></trkpt><trkpt lat="46.474901943360756" lon="12.46295407986485"><ele>919.0</ele><time>2026-04-23T16:40:36Z</time></trkpt><trkpt lat="46.47480830618339" lon="12.462830392107518"><ele>919.0</ele><time>2026-04-23T16:40:37Z</time></trkpt><trkpt lat="46.47471778458585" lon="12.462678738580896"><ele>916.6666666666666</ele><time>2026-04-23T16:40:38Z</time></trkpt><trkpt lat="46.47463440047131" lon="12.462500212688246"><ele>914.3333333333333</ele><time>2026-04-23T16:40:39Z</time></trkpt><trkpt lat="46.47455590651463" lon="12.462306467797793"><ele>912.0</ele><time>2026-04-23T16:40:40Z</time></trkpt><trkpt lat="46.47446029979632" lon="12.46210981426107"><ele>924.6666666666667</ele><time>2026-04-23T16:40:41Z</time></trkpt><trkpt lat="46.47436084918193" lon="12.461897284662994"><ele>937.3333333333334</ele><time>2026-04-23T16:40:42Z</time></trkpt><trkpt lat="46.47427815879562" lon="12.461659686964403"><ele>950.0</ele><time>2026-04-23T16:40:43Z</time></trkpt><trkpt lat="46.474219279662506" lon="12.461373538731404"><ele>945.0</ele><time>2026-04-23T16:40:44Z</time></trkpt><trkpt lat="46.474166099006645" lon="12.461097491011977"><ele>940.0</ele><time>2026-04-23T16:40:45Z</time></trkpt><trkpt lat="46.47411395804006" lon="12.460876516249202"><ele>935.0</ele><time>2026-04-23T16:40:46Z</time></trkpt><trkpt lat="46.47405301248624" lon="12.460703580557235"><ele>935.0</ele><time>2026-04-23T16:40:47Z</time></trkpt><trkpt lat="46.47396572146815" lon="12.460551243218063"><ele>935.0</ele><time>2026-04-23T16:40:48Z</time></trkpt><trkpt lat="46.4738642943827" lon="12.460444058038776"><ele>935.0</ele><time>2026-04-23T16:40:49Z</time></trkpt><trkpt lat="46.47374611876834" lon="12.460395368798986"><ele>935.0</ele><time>2026-04-23T16:40:50Z</time></trkpt><trkpt lat="46.47360052350541" lon="12.460403556173203"><ele>936.75</ele><time>2026-04-23T16:40:51Z</time></trkpt><trkpt lat="46.473450470075655" lon="12.460348309547188"><ele>938.5</ele><time>2026-04-23T16:40:52Z</time></trkpt><trkpt lat="46.473384348458524" lon="12.460218203328699"><ele>940.25</ele><time>2026-04-23T16:40:53Z</time></trkpt><trkpt lat="46.47329108523009" lon="12.460028558707656"><ele>942.0</ele><time>2026-04-23T16:40:54Z</time></trkpt><trkpt lat="46.473217811857914" lon="12.459848984525681"><ele>942.0</ele><time>2026-04-23T16:40:55Z</time></trkpt><trkpt lat="46.473097943451215" lon="12.459725688654506"><ele>942.0</ele><time>2026-04-23T16:40:56Z</time></trkpt><trkpt lat="46.472928813562675" lon="12.45965106511983"><ele>942.0</ele><time>2026-04-23T16:40:57Z</time></trkpt><trkpt lat="46.47274543787361" lon="12.459550535362457"><ele>942.3333333333333</ele><time>2026-04-23T16:40:58Z</time></trkpt><trkpt lat="46.4725595818263" lon="12.45945628062479"><ele>942.6666666666666</ele><time>2026-04-23T16:40:59Z</time></trkpt><trkpt lat="46.47237644316917" lon="12.459334744104009"><ele>943.0</ele><time>2026-04-23T16:41:00Z</time></trkpt><trkpt lat="46.472239216997394" lon="12.45915068827533"><ele>943.0</ele><time>2026-04-23T16:41:01Z</time></trkpt><trkpt lat="46.47215817849617" lon="12.458914642109306"><ele>943.0</ele><time>2026-04-23T16:41:02Z</time></trkpt><trkpt lat="46.472056699759854" lon="12.458684085759854"><ele>943.0</ele><time>2026-04-23T16:41:03Z</time></trkpt><trkpt lat="46.47192799770496" lon="12.45852630411266"><ele>946.0</ele><time>2026-04-23T16:41:04Z</time></trkpt><trkpt lat="46.47174096114252" lon="12.45841915981654"><ele>949.0</ele><time>2026-04-23T16:41:05Z</time></trkpt><trkpt lat="46.47154640628141" lon="12.458299532334621"><ele>952.0</ele><time>2026-04-23T16:41:05.999Z</time></trkpt><trkpt lat="46.47137501465418" lon="12.458190073995949"><ele>954.0</ele><time>2026-04-23T16:41:06.999Z</time></trkpt><trkpt lat="46.471225100252326" lon="12.4580902915271"><ele>956.0</ele><time>2026-04-23T16:41:07.999Z</time></trkpt><trkpt lat="46.4710757332684" lon="12.458045403527752"><ele>958.0</ele><time>2026-04-23T16:41:08.999Z</time></trkpt><trkpt lat="46.470900243204866" lon="12.458061377733257"><ele>958.0</ele><time>2026-04-23T16:41:09.999Z</time></trkpt><trkpt lat="46.4706945682474" lon="12.458124128164382"><ele>958.0</ele><time>2026-04-23T16:41:10.999Z</time></trkpt><trkpt lat="46.470479894556114" lon="12.458171914998191"><ele>958.0</ele><time>2026-04-23T16:41:11.999Z</time></trkpt><trkpt lat="46.470292527449736" lon="12.458202960961838"><ele>956.0</ele><time>2026-04-23T16:41:12.999Z</time></trkpt><trkpt lat="46.47013329419859" lon="12.458263446190049"><ele>954.0</ele><time>2026-04-23T16:41:13.999Z</time></trkpt><trkpt lat="46.46998773840309" lon="12.458410671531539"><ele>952.0</ele><time>2026-04-23T16:41:14.999Z</time></trkpt><trkpt lat="46.46984316631911" lon="12.45861910071217"><ele>958.6666666666666</ele><time>2026-04-23T16:41:15.999Z</time></trkpt><trkpt lat="46.4697074180317" lon="12.458845233934051"><ele>965.3333333333333</ele><time>2026-04-23T16:41:16.999Z</time></trkpt><trkpt lat="46.46960238299887" lon="12.459041620321347"><ele>972.0</ele><time>2026-04-23T16:41:17.999Z</time></trkpt><trkpt lat="46.46952887875341" lon="12.459257317725783"><ele>962.3333333333333</ele><time>2026-04-23T16:41:18.999Z</time></trkpt><trkpt lat="46.46949822498219" lon="12.459542619962978"><ele>952.6666666666666</ele><time>2026-04-23T16:41:19.999Z</time></trkpt><trkpt lat="46.469455880979325" lon="12.459851538448738"><ele>943.0</ele><time>2026-04-23T16:41:20.999Z</time></trkpt><trkpt lat="46.469432385583836" lon="12.460180616766271"><ele>946.0</ele><time>2026-04-23T16:41:21.999Z</time></trkpt><trkpt lat="46.469468238251245" lon="12.460529647835545"><ele>949.0</ele><time>2026-04-23T16:41:22.999Z</time></trkpt><trkpt lat="46.469546852160214" lon="12.460914684216943"><ele>950.0</ele><time>2026-04-23T16:41:23.999Z</time></trkpt><trkpt lat="46.46956629503518" lon="12.461333603902396"><ele>951.0</ele><time>2026-04-23T16:41:24.999Z</time></trkpt><trkpt lat="46.46958455396838" lon="12.461747278582045"><ele>951.0</ele><time>2026-04-23T16:41:25.999Z</time></trkpt><trkpt lat="46.46958255792228" lon="12.46210410807653"><ele>951.0</ele><time>2026-04-23T16:41:26.999Z</time></trkpt><trkpt lat="46.46958627220502" lon="12.462406389607134"><ele>951.0</ele><time>2026-04-23T16:41:27.999Z</time></trkpt><trkpt lat="46.46952008233882" lon="12.462655770403988"><ele>951.0</ele><time>2026-04-23T16:41:28.999Z</time></trkpt><trkpt lat="46.46942001867812" lon="12.46289235598217"><ele>951.0</ele><time>2026-04-23T16:41:29.999Z</time></trkpt><trkpt lat="46.46929940780976" lon="12.463136155672043"><ele>955.6666666666667</ele><time>2026-04-23T16:41:30.999Z</time></trkpt><trkpt lat="46.46915546693648" lon="12.463366977294958"><ele>960.3333333333334</ele><time>2026-04-23T16:41:31.999Z</time></trkpt><trkpt lat="46.46907098837522" lon="12.46366368220543"><ele>965.0</ele><time>2026-04-23T16:41:32.999Z</time></trkpt><trkpt lat="46.46900016602682" lon="12.464012242282154"><ele>977.0</ele><time>2026-04-23T16:41:33.999Z</time></trkpt><trkpt lat="46.46892401516378" lon="12.464381326968207"><ele>989.0</ele><time>2026-04-23T16:41:34.999Z</time></trkpt><trkpt lat="46.46884321310967" lon="12.46470412517826"><ele>985.3333333333334</ele><time>2026-04-23T16:41:35.999Z</time></trkpt><trkpt lat="46.468741035970226" lon="12.464975801131416"><ele>981.6666666666667</ele><time>2026-04-23T16:41:36.999Z</time></trkpt><trkpt lat="46.46864577847517" lon="12.465205946852693"><ele>978.0</ele><time>2026-04-23T16:41:37.999Z</time></trkpt><trkpt lat="46.46858369389372" lon="12.465457443857815"><ele>978.0</ele><time>2026-04-23T16:41:38.999Z</time></trkpt><trkpt lat="46.468570710102675" lon="12.465774990222599"><ele>978.0</ele><time>2026-04-23T16:41:39.999Z</time></trkpt><trkpt lat="46.46859692935219" lon="12.466118340624396"><ele>980.0</ele><time>2026-04-23T16:41:40.999Z</time></trkpt><trkpt lat="46.46860870300699" lon="12.46648048232901"><ele>982.0</ele><time>2026-04-23T16:41:41.999Z</time></trkpt><trkpt lat="46.46861591298341" lon="12.46684258185273"><ele>984.3333333333333</ele><time>2026-04-23T16:41:42.999Z</time></trkpt><trkpt lat="46.4686233558441" lon="12.467182382474503"><ele>986.6666666666667</ele><time>2026-04-23T16:41:43.999Z</time></trkpt><trkpt lat="46.4686115599716" lon="12.46747788797552"><ele>989.0</ele><time>2026-04-23T16:41:44.999Z</time></trkpt><trkpt lat="46.468612525291604" lon="12.46772715198108"><ele>989.0</ele><time>2026-04-23T16:41:45.999Z</time></trkpt><trkpt lat="46.46858553584625" lon="12.467928965475556"><ele>989.0</ele><time>2026-04-23T16:41:46.999Z</time></trkpt><trkpt lat="46.46851591907719" lon="12.468092302595853"><ele>989.0</ele><time>2026-04-23T16:41:47.999Z</time></trkpt><trkpt lat="46.46841737723546" lon="12.468251992072444"><ele>989.0</ele><time>2026-04-23T16:41:48.999Z</time></trkpt><trkpt lat="46.46828962157914" lon="12.46849180495907"><ele>990.3333333333334</ele><time>2026-04-23T16:41:49.999Z</time></trkpt><trkpt lat="46.46816283404558" lon="12.468708820984592"><ele>991.6666666666667</ele><time>2026-04-23T16:41:50.999Z</time></trkpt><trkpt lat="46.467944895351664" lon="12.468835458779095"><ele>993.0</ele><time>2026-04-23T16:41:51.999Z</time></trkpt><trkpt lat="46.467834476822375" lon="12.468965805652392"><ele>993.0</ele><time>2026-04-23T16:41:52.999Z</time></trkpt><trkpt lat="46.46772765157704" lon="12.469011298413188"><ele>993.0</ele><time>2026-04-23T16:41:53.999Z</time></trkpt><trkpt lat="46.46753700759924" lon="12.469050189404607"><ele>993.0</ele><time>2026-04-23T16:41:54.999Z</time></trkpt><trkpt lat="46.46733620123441" lon="12.46926772572205"><ele>993.0</ele><time>2026-04-23T16:41:55.999Z</time></trkpt><trkpt lat="46.46718809087192" lon="12.469461836506781"><ele>993.0</ele><time>2026-04-23T16:41:56.998Z</time></trkpt><trkpt lat="46.46703514515787" lon="12.46966314077507"><ele>993.0</ele><time>2026-04-23T16:41:57.998Z</time></trkpt><trkpt lat="46.4668969572778" lon="12.469890600524778"><ele>992.5</ele><time>2026-04-23T16:41:58.998Z</time></trkpt><trkpt lat="46.466753882529964" lon="12.470120631827784"><ele>992.0</ele><time>2026-04-23T16:41:59.998Z</time></trkpt><trkpt lat="46.46704094474387" lon="12.471027619690036"><ele>993.0</ele><time>2026-04-23T16:42:00.998Z</time></trkpt><trkpt lat="46.467002182305535" lon="12.471322986930161"><ele>994.0</ele><time>2026-04-23T16:42:01.998Z</time></trkpt><trkpt lat="46.46699244604531" lon="12.471641993816148"><ele>995.0</ele><time>2026-04-23T16:42:02.998Z</time></trkpt><trkpt lat="46.46699173800142" lon="12.471980213873351"><ele>997.0</ele><time>2026-04-23T16:42:03.998Z</time></trkpt><trkpt lat="46.46699465485158" lon="12.47231618136344"><ele>999.0</ele><time>2026-04-23T16:42:04.998Z</time></trkpt><trkpt lat="46.46699836564285" lon="12.47265130870821"><ele>1001.3333333333333</ele><time>2026-04-23T16:42:05.998Z</time></trkpt><trkpt lat="46.46698116481485" lon="12.472983968086021"><ele>1003.6666666666666</ele><time>2026-04-23T16:42:06.998Z</time></trkpt><trkpt lat="46.46693933189108" lon="12.473272909092813"><ele>1006.0</ele><time>2026-04-23T16:42:07.998Z</time></trkpt><trkpt lat="46.46689035416881" lon="12.47351285601937"><ele>1006.0</ele><time>2026-04-23T16:42:08.998Z</time></trkpt><trkpt lat="46.466808690488456" lon="12.47372897287951"><ele>1006.0</ele><time>2026-04-23T16:42:09.998Z</time></trkpt><trkpt lat="46.466678943126894" lon="12.473888626940184"><ele>1006.0</ele><time>2026-04-23T16:42:10.998Z</time></trkpt><trkpt lat="46.4665352027189" lon="12.474030865871924"><ele>1011.3333333333333</ele><time>2026-04-23T16:42:11.998Z</time></trkpt><trkpt lat="46.46644616908902" lon="12.474247206922811"><ele>1016.6666666666667</ele><time>2026-04-23T16:42:12.998Z</time></trkpt><trkpt lat="46.46640097989428" lon="12.474521955092591"><ele>1022.0</ele><time>2026-04-23T16:42:13.998Z</time></trkpt><trkpt lat="46.46637398122911" lon="12.474819975464268"><ele>1020.3333333333334</ele><time>2026-04-23T16:42:14.998Z</time></trkpt><trkpt lat="46.46635026664567" lon="12.475129899852144"><ele>1018.6666666666667</ele><time>2026-04-23T16:42:15.998Z</time></trkpt><trkpt lat="46.46631791553051" lon="12.475406564457206"><ele>1017.0</ele><time>2026-04-23T16:42:16.998Z</time></trkpt><trkpt lat="46.46627406284401" lon="12.475629062892947"><ele>1017.0</ele><time>2026-04-23T16:42:17.998Z</time></trkpt><trkpt lat="46.46615475573192" lon="12.475850938908005"><ele>1017.0</ele><time>2026-04-23T16:42:18.998Z</time></trkpt><trkpt lat="46.4659801401102" lon="12.476052007969198"><ele>1017.0</ele><time>2026-04-23T16:42:19.998Z</time></trkpt><trkpt lat="46.46582719675063" lon="12.476288473653499"><ele>1023.3333333333333</ele><time>2026-04-23T16:42:20.998Z</time></trkpt><trkpt lat="46.46568916835028" lon="12.476491532140919"><ele>1029.6666666666665</ele><time>2026-04-23T16:42:21.998Z</time></trkpt><trkpt lat="46.46559171443813" lon="12.476706542173089"><ele>1036.0</ele><time>2026-04-23T16:42:22.998Z</time></trkpt><trkpt lat="46.465521175742936" lon="12.476983956337389"><ele>1033.3333333333333</ele><time>2026-04-23T16:42:23.998Z</time></trkpt><trkpt lat="46.46548959856579" lon="12.477305745760919"><ele>1030.6666666666667</ele><time>2026-04-23T16:42:24.998Z</time></trkpt><trkpt lat="46.465459718813065" lon="12.477579655944082"><ele>1028.0</ele><time>2026-04-23T16:42:25.998Z</time></trkpt><trkpt lat="46.46539511568449" lon="12.477801281469796"><ele>1033.3333333333335</ele><time>2026-04-23T16:42:26.998Z</time></trkpt><trkpt lat="46.46528395507004" lon="12.477987838477418"><ele>1038.6666666666667</ele><time>2026-04-23T16:42:27.998Z</time></trkpt><trkpt lat="46.46508749820062" lon="12.478146700192887"><ele>1044.0</ele><time>2026-04-23T16:42:28.998Z</time></trkpt><trkpt lat="46.46490918345386" lon="12.478299314609213"><ele>1044.0</ele><time>2026-04-23T16:42:29.998Z</time></trkpt><trkpt lat="46.46474292478483" lon="12.47841350586839"><ele>1044.0</ele><time>2026-04-23T16:42:30.998Z</time></trkpt><trkpt lat="46.464588208805075" lon="12.478467664827471"><ele>1044.0</ele><time>2026-04-23T16:42:31.998Z</time></trkpt><trkpt lat="46.46447394325164" lon="12.478523192089096"><ele>1045.0</ele><time>2026-04-23T16:42:32.998Z</time></trkpt><trkpt lat="46.46440845870652" lon="12.478653129728636"><ele>1046.0</ele><time>2026-04-23T16:42:33.998Z</time></trkpt><trkpt lat="46.464404929379576" lon="12.478843193948158"><ele>1047.0</ele><time>2026-04-23T16:42:34.998Z</time></trkpt><trkpt lat="46.46445327409628" lon="12.479057456416903"><ele>1048.0</ele><time>2026-04-23T16:42:35.998Z</time></trkpt><trkpt lat="46.46444885316173" lon="12.4792571135328"><ele>1048.0</ele><time>2026-04-23T16:42:36.998Z</time></trkpt><trkpt lat="46.4643735572639" lon="12.479465826775055"><ele>1048.0</ele><time>2026-04-23T16:42:37.998Z</time></trkpt><trkpt lat="46.46422545528785" lon="12.479619699561116"><ele>1048.0</ele><time>2026-04-23T16:42:38.998Z</time></trkpt><trkpt lat="46.46414183437895" lon="12.47984230197758"><ele>1051.3333333333333</ele><time>2026-04-23T16:42:39.998Z</time></trkpt><trkpt lat="46.46410432464166" lon="12.480137226759796"><ele>1054.6666666666667</ele><time>2026-04-23T16:42:40.998Z</time></trkpt><trkpt lat="46.46410761889927" lon="12.480416944864274"><ele>1058.0</ele><time>2026-04-23T16:42:42Z</time></trkpt><trkpt lat="46.4641577900428" lon="12.480699777566057"><ele>1059.6666666666667</ele><time>2026-04-23T16:42:43Z</time></trkpt><trkpt lat="46.46416811489043" lon="12.480978719688439"><ele>1061.3333333333333</ele><time>2026-04-23T16:42:44Z</time></trkpt><trkpt lat="46.46412573834633" lon="12.48125781428131"><ele>1063.0</ele><time>2026-04-23T16:42:45Z</time></trkpt><trkpt lat="46.46402706382492" lon="12.481557933571672"><ele>1065.6666666666665</ele><time>2026-04-23T16:42:46Z</time></trkpt><trkpt lat="46.46392053264784" lon="12.481847699429318"><ele>1068.3333333333333</ele><time>2026-04-23T16:42:47Z</time></trkpt><trkpt lat="46.463853614977154" lon="12.48210675007906"><ele>1071.0</ele><time>2026-04-23T16:42:48Z</time></trkpt><trkpt lat="46.46380309965573" lon="12.482330518620259"><ele>1073.0</ele><time>2026-04-23T16:42:49Z</time></trkpt><trkpt lat="46.4637826339044" lon="12.482556136877815"><ele>1075.0</ele><time>2026-04-23T16:42:50Z</time></trkpt><trkpt lat="46.46381060528374" lon="12.482816839529201"><ele>1077.0</ele><time>2026-04-23T16:42:51Z</time></trkpt><trkpt lat="46.46385656765856" lon="12.48310644883903"><ele>1077.6666666666667</ele><time>2026-04-23T16:42:52Z</time></trkpt><trkpt lat="46.46390235652229" lon="12.483418428025463"><ele>1078.3333333333335</ele><time>2026-04-23T16:42:53Z</time></trkpt><trkpt lat="46.46392384474343" lon="12.483720070109579"><ele>1079.0</ele><time>2026-04-23T16:42:54Z</time></trkpt><trkpt lat="46.46393298840668" lon="12.484006721999036"><ele>1079.3333333333335</ele><time>2026-04-23T16:42:55Z</time></trkpt><trkpt lat="46.463918063350675" lon="12.48428884754771"><ele>1079.6666666666667</ele><time>2026-04-23T16:42:56Z</time></trkpt><trkpt lat="46.46390222922881" lon="12.484572252958083"><ele>1080.0</ele><time>2026-04-23T16:42:57Z</time></trkpt><trkpt lat="46.46389170063901" lon="12.484848199293124"><ele>1083.3333333333333</ele><time>2026-04-23T16:42:58Z</time></trkpt><trkpt lat="46.46388496890949" lon="12.485120334409654"><ele>1086.6666666666665</ele><time>2026-04-23T16:42:59Z</time></trkpt><trkpt lat="46.46387364080362" lon="12.485395924132309"><ele>1090.0</ele><time>2026-04-23T16:43:00Z</time></trkpt><trkpt lat="46.46385349761091" lon="12.485673581816737"><ele>1092.0</ele><time>2026-04-23T16:43:01Z</time></trkpt><trkpt lat="46.46382784213381" lon="12.485960552170129"><ele>1094.0</ele><time>2026-04-23T16:43:02Z</time></trkpt><trkpt lat="46.46379134348484" lon="12.486244704051222"><ele>1096.0</ele><time>2026-04-23T16:43:03Z</time></trkpt><trkpt lat="46.46376529872781" lon="12.48651988789723"><ele>1089.6666666666665</ele><time>2026-04-23T16:43:04Z</time></trkpt><trkpt lat="46.463749269082726" lon="12.486770131451166"><ele>1083.3333333333333</ele><time>2026-04-23T16:43:05Z</time></trkpt><trkpt lat="46.463721842444684" lon="12.486979008884186"><ele>1077.0</ele><time>2026-04-23T16:43:06Z</time></trkpt><trkpt lat="46.463695032984184" lon="12.487183298917234"><ele>1077.0</ele><time>2026-04-23T16:43:07Z</time></trkpt><trkpt lat="46.463678987943105" lon="12.48736928292362"><ele>1077.0</ele><time>2026-04-23T16:43:08Z</time></trkpt><trkpt lat="46.4636525681062" lon="12.487532280856234"><ele>1077.0</ele><time>2026-04-23T16:43:09Z</time></trkpt><trkpt lat="46.46363086079804" lon="12.487661874729756"><ele>1077.0</ele><time>2026-04-23T16:43:10Z</time></trkpt><trkpt lat="46.46359982270433" lon="12.487763983923747"><ele>1077.0</ele><time>2026-04-23T16:43:11Z</time></trkpt><trkpt lat="46.46357791673681" lon="12.487853963146952"><ele>1078.3333333333333</ele><time>2026-04-23T16:43:12Z</time></trkpt><trkpt lat="46.46353542594299" lon="12.487939763633324"><ele>1079.6666666666667</ele><time>2026-04-23T16:43:14Z</time></trkpt><trkpt lat="46.46354451838642" lon="12.488061979349997"><ele>1081.0</ele><time>2026-04-23T16:44:12.998Z</time></trkpt><trkpt lat="46.46351246772499" lon="12.48815552962629"><ele>1082.3333333333335</ele><time>2026-04-23T16:44:13.998Z</time></trkpt><trkpt lat="46.46348663277255" lon="12.48825396833751"><ele>1083.6666666666667</ele><time>2026-04-23T16:44:14.998Z</time></trkpt><trkpt lat="46.46341424896899" lon="12.488319078187958"><ele>1085.0</ele><time>2026-04-23T16:44:15.998Z</time></trkpt><trkpt lat="46.46338988269383" lon="12.48841687074985"><ele>1085.0</ele><time>2026-04-23T16:44:16.998Z</time></trkpt><trkpt lat="46.46336419308844" lon="12.48853211611682"><ele>1085.0</ele><time>2026-04-23T16:44:17.998Z</time></trkpt><trkpt lat="46.46333866566499" lon="12.488660781663656"><ele>1085.0</ele><time>2026-04-23T16:44:18.998Z</time></trkpt><trkpt lat="46.463314971954055" lon="12.488789310404442"><ele>1085.0</ele><time>2026-04-23T16:44:19.998Z</time></trkpt><trkpt lat="46.46329552863212" lon="12.48891434668792"><ele>1085.0</ele><time>2026-04-23T16:44:20.998Z</time></trkpt><trkpt lat="46.463275706518" lon="12.489045570138298"><ele>1085.0</ele><time>2026-04-23T16:44:21.998Z</time></trkpt><trkpt lat="46.46325112770741" lon="12.489179049439034"><ele>1087.4</ele><time>2026-04-23T16:44:22.998Z</time></trkpt><trkpt lat="46.46322625968604" lon="12.489287014584875"><ele>1089.8</ele><time>2026-04-23T16:44:23.998Z</time></trkpt><trkpt lat="46.46320186355624" lon="12.489385458233196"><ele>1092.2</ele><time>2026-04-23T16:44:25.998Z</time></trkpt><trkpt lat="46.46315758143907" lon="12.489545241984112"><ele>1094.6</ele><time>2026-04-23T16:44:27.998Z</time></trkpt><trkpt lat="46.463131080959876" lon="12.489635904875719"><ele>1097.0</ele><time>2026-04-23T16:44:28.998Z</time></trkpt><trkpt lat="46.46308631513449" lon="12.489791769654282"><ele>1100.4</ele><time>2026-04-23T16:44:30.998Z</time></trkpt><trkpt lat="46.46303648998773" lon="12.489976298157952"><ele>1103.8000000000002</ele><time>2026-04-23T16:44:32.998Z</time></trkpt><trkpt lat="46.46301511789911" lon="12.49007763533332"><ele>1107.2</ele><time>2026-04-23T16:44:33.998Z</time></trkpt><trkpt lat="46.462998166655275" lon="12.490183478847198"><ele>1110.6000000000001</ele><time>2026-04-23T16:44:34.998Z</time></trkpt><trkpt lat="46.46299009521409" lon="12.490278251064588"><ele>1114.0</ele><time>2026-04-23T16:44:35.998Z</time></trkpt><trkpt lat="46.46302522853753" lon="12.490463073881724"><ele>1116.8333333333333</ele><time>2026-04-23T16:44:37.998Z</time></trkpt><trkpt lat="46.463027157218896" lon="12.49055709213848"><ele>1119.6666666666665</ele><time>2026-04-23T16:44:38.998Z</time></trkpt><trkpt lat="46.46301876838752" lon="12.490751535443552"><ele>1122.5</ele><time>2026-04-23T16:44:40.998Z</time></trkpt><trkpt lat="46.46301852065801" lon="12.490855082559436"><ele>1125.3333333333333</ele><time>2026-04-23T16:44:41.998Z</time></trkpt><trkpt lat="46.463003188798695" lon="12.49094866355944"><ele>1128.1666666666667</ele><time>2026-04-23T16:44:42.998Z</time></trkpt><trkpt lat="46.46298517438112" lon="12.491054248356289"><ele>1131.0</ele><time>2026-04-23T16:44:43.998Z</time></trkpt><trkpt lat="46.4629462810406" lon="12.491150353556934"><ele>1126.3333333333333</ele><time>2026-04-23T16:44:44.998Z</time></trkpt><trkpt lat="46.46291023365925" lon="12.491238385188467"><ele>1121.6666666666667</ele><time>2026-04-23T16:44:45.998Z</time></trkpt><trkpt lat="46.462859782397764" lon="12.491329514838336"><ele>1117.0</ele><time>2026-04-23T16:44:46.998Z</time></trkpt><trkpt lat="46.4628139879436" lon="12.491459614815849"><ele>1112.3333333333335</ele><time>2026-04-23T16:44:48Z</time></trkpt><trkpt lat="46.46276571625237" lon="12.491564538106788"><ele>1107.6666666666667</ele><time>2026-04-23T16:44:49Z</time></trkpt><trkpt lat="46.46271899124621" lon="12.491675714262334"><ele>1103.0</ele><time>2026-04-23T16:44:50Z</time></trkpt><trkpt lat="46.46265901369612" lon="12.491769764099836"><ele>1103.0</ele><time>2026-04-23T16:44:51Z</time></trkpt><trkpt lat="46.46261295559631" lon="12.491863064597574"><ele>1103.0</ele><time>2026-04-23T16:44:52Z</time></trkpt><trkpt lat="46.46257520457019" lon="12.491970023636538"><ele>1103.0</ele><time>2026-04-23T16:44:53Z</time></trkpt><trkpt lat="46.462533260984074" lon="12.492057444867088"><ele>1103.0</ele><time>2026-04-23T16:44:54Z</time></trkpt><trkpt lat="46.462496085736355" lon="12.492144567131286"><ele>1103.0</ele><time>2026-04-23T16:44:55Z</time></trkpt><trkpt lat="46.46246121806127" lon="12.492263692783931"><ele>1103.0</ele><time>2026-04-23T16:44:56Z</time></trkpt><trkpt lat="46.46241979068916" lon="12.492359394000582"><ele>1106.0</ele><time>2026-04-23T16:44:57Z</time></trkpt><trkpt lat="46.4623728410291" lon="12.492450417489238"><ele>1109.0</ele><time>2026-04-23T16:44:58Z</time></trkpt><trkpt lat="46.46233372672117" lon="12.492551444271209"><ele>1112.0</ele><time>2026-04-23T16:44:59Z</time></trkpt><trkpt lat="46.46228308666558" lon="12.492657404403172"><ele>1115.0</ele><time>2026-04-23T16:45:00Z</time></trkpt><trkpt lat="46.46224451275326" lon="12.492750170395798"><ele>1118.0</ele><time>2026-04-23T16:45:01Z</time></trkpt><trkpt lat="46.46221146752788" lon="12.492833213805307"><ele>1121.0</ele><time>2026-04-23T16:45:02Z</time></trkpt><trkpt lat="46.46216347511299" lon="12.492931635405625"><ele>1120.6</ele><time>2026-04-23T16:45:03Z</time></trkpt><trkpt lat="46.462124697826845" lon="12.493049951132726"><ele>1120.1999999999998</ele><time>2026-04-23T16:45:04Z</time></trkpt><trkpt lat="46.46205977443426" lon="12.493243540518646"><ele>1119.8000000000002</ele><time>2026-04-23T16:45:06Z</time></trkpt><trkpt lat="46.462039937896165" lon="12.493368389248282"><ele>1119.4</ele><time>2026-04-23T16:45:07Z</time></trkpt><trkpt lat="46.46203358773152" lon="12.493500641722468"><ele>1119.0</ele><time>2026-04-23T16:45:08Z</time></trkpt><trkpt lat="46.462022159244235" lon="12.493616565963432"><ele>1120.0</ele><time>2026-04-23T16:45:09Z</time></trkpt><trkpt lat="46.462007473092626" lon="12.49379563733393"><ele>1121.0</ele><time>2026-04-23T16:45:10Z</time></trkpt><trkpt lat="46.462022735868274" lon="12.493913325857648"><ele>1122.0</ele><time>2026-04-23T16:45:11Z</time></trkpt><trkpt lat="46.46204944383475" lon="12.494014553156203"><ele>1123.0</ele><time>2026-04-23T16:45:12Z</time></trkpt><trkpt lat="46.46202809772187" lon="12.494152730576747"><ele>1124.0</ele><time>2026-04-23T16:45:14Z</time></trkpt><trkpt lat="46.46198030956866" lon="12.494232598344745"><ele>1124.0</ele><time>2026-04-23T16:45:15Z</time></trkpt><trkpt lat="46.46193933577531" lon="12.494338966844175"><ele>1124.0</ele><time>2026-04-23T16:45:16Z</time></trkpt><trkpt lat="46.461887541794496" lon="12.494453060139362"><ele>1124.0</ele><time>2026-04-23T16:45:17Z</time></trkpt><trkpt lat="46.461843267833856" lon="12.494567446885457"><ele>1124.0</ele><time>2026-04-23T16:45:18Z</time></trkpt><trkpt lat="46.46181288520684" lon="12.494683778485335"><ele>1124.0</ele><time>2026-04-23T16:45:19Z</time></trkpt><trkpt lat="46.46178002783001" lon="12.494800212855592"><ele>1124.0</ele><time>2026-04-23T16:45:20Z</time></trkpt><trkpt lat="46.4617552900489" lon="12.494905768791586"><ele>1125.2</ele><time>2026-04-23T16:45:21Z</time></trkpt><trkpt lat="46.46174359999764" lon="12.495025904388976"><ele>1126.4</ele><time>2026-04-23T16:45:22Z</time></trkpt><trkpt lat="46.46173891985943" lon="12.495156100338649"><ele>1127.6</ele><time>2026-04-23T16:45:23Z</time></trkpt><trkpt lat="46.46172989039777" lon="12.495280970618987"><ele>1128.8</ele><time>2026-04-23T16:45:24Z</time></trkpt><trkpt lat="46.46172296712594" lon="12.495451690366652"><ele>1130.0</ele><time>2026-04-23T16:45:25Z</time></trkpt><trkpt lat="46.461717016185034" lon="12.49565800393373"><ele>1131.5</ele><time>2026-04-23T16:45:26Z</time></trkpt><trkpt lat="46.46171011845676" lon="12.495805908457916"><ele>1133.0</ele><time>2026-04-23T16:45:27Z</time></trkpt><trkpt lat="46.46170071228284" lon="12.495935560806448"><ele>1134.5</ele><time>2026-04-23T16:45:27.999Z</time></trkpt><trkpt lat="46.461698290611594" lon="12.49603391031918"><ele>1136.0</ele><time>2026-04-23T16:45:28.999Z</time></trkpt><trkpt lat="46.46169568605754" lon="12.49614415039867"><ele>1137.5</ele><time>2026-04-23T16:45:29.999Z</time></trkpt><trkpt lat="46.461662189610486" lon="12.496233762200289"><ele>1139.0</ele><time>2026-04-23T16:45:30.999Z</time></trkpt><trkpt lat="46.46160354366233" lon="12.496333323329692"><ele>1141.1666666666667</ele><time>2026-04-23T16:45:31.999Z</time></trkpt><trkpt lat="46.46152810731876" lon="12.496429565617431"><ele>1143.3333333333335</ele><time>2026-04-23T16:45:32.999Z</time></trkpt><trkpt lat="46.46145879355458" lon="12.49650341588674"><ele>1145.5</ele><time>2026-04-23T16:45:33.999Z</time></trkpt><trkpt lat="46.46141497159476" lon="12.496591122561021"><ele>1147.6666666666667</ele><time>2026-04-23T16:45:34.999Z</time></trkpt><trkpt lat="46.46136052401168" lon="12.496671364355237"><ele>1149.8333333333333</ele><time>2026-04-23T16:45:35.999Z</time></trkpt><trkpt lat="46.461329537700266" lon="12.496785946837626"><ele>1152.0</ele><time>2026-04-23T16:45:36.999Z</time></trkpt><trkpt lat="46.4613414561828" lon="12.4969128592875"><ele>1152.0</ele><time>2026-04-23T16:45:37.999Z</time></trkpt><trkpt lat="46.461364354243045" lon="12.497055733043474"><ele>1152.0</ele><time>2026-04-23T16:45:38.999Z</time></trkpt><trkpt lat="46.46139017299212" lon="12.497189865672322"><ele>1152.0</ele><time>2026-04-23T16:45:39.999Z</time></trkpt><trkpt lat="46.461366644402716" lon="12.497313928954094"><ele>1152.0</ele><time>2026-04-23T16:45:41.999Z</time></trkpt><trkpt lat="46.46136641238084" lon="12.497472563931856"><ele>1152.0</ele><time>2026-04-23T16:45:43.999Z</time></trkpt><trkpt lat="46.46136145882686" lon="12.497585318981521"><ele>1153.4</ele><time>2026-04-23T16:45:44.999Z</time></trkpt><trkpt lat="46.461349968960725" lon="12.49768592911082"><ele>1154.8000000000002</ele><time>2026-04-23T16:45:45.999Z</time></trkpt><trkpt lat="46.46132935560424" lon="12.497797464310171"><ele>1156.2</ele><time>2026-04-23T16:45:46.999Z</time></trkpt><trkpt lat="46.46130192374505" lon="12.49794073554627"><ele>1157.6000000000001</ele><time>2026-04-23T16:45:47.999Z</time></trkpt><trkpt lat="46.46123693392622" lon="12.49807452970028"><ele>1159.0</ele><time>2026-04-23T16:45:48.999Z</time></trkpt><trkpt lat="46.461250813996934" lon="12.498242959917038"><ele>1161.2</ele><time>2026-04-23T16:45:49.999Z</time></trkpt><trkpt lat="46.461234671941895" lon="12.498388732633323"><ele>1163.4</ele><time>2026-04-23T16:45:50.999Z</time></trkpt><trkpt lat="46.4612009705256" lon="12.498521099803531"><ele>1165.6</ele><time>2026-04-23T16:45:51.999Z</time></trkpt><trkpt lat="46.46118422314413" lon="12.49866337310468"><ele>1167.8</ele><time>2026-04-23T16:45:52.999Z</time></trkpt><trkpt lat="46.461158959224186" lon="12.498768257800215"><ele>1170.0</ele><time>2026-04-23T16:45:53.999Z</time></trkpt><trkpt lat="46.461118699611596" lon="12.498867741737488"><ele>1170.75</ele><time>2026-04-23T16:45:54.999Z</time></trkpt><trkpt lat="46.4610074305259" lon="12.498988429786856"><ele>1171.5</ele><time>2026-04-23T16:45:55.999Z</time></trkpt><trkpt lat="46.4609136159501" lon="12.499114139834907"><ele>1172.25</ele><time>2026-04-23T16:45:56.999Z</time></trkpt><trkpt lat="46.4608541445924" lon="12.499277361081182"><ele>1173.0</ele><time>2026-04-23T16:45:58.999Z</time></trkpt><trkpt lat="46.460784101257396" lon="12.499397443564215"><ele>1173.0</ele><time>2026-04-23T16:45:59.999Z</time></trkpt><trkpt lat="46.46070507422713" lon="12.499557828922192"><ele>1173.0</ele><time>2026-04-23T16:46:00.999Z</time></trkpt><trkpt lat="46.460663934382694" lon="12.499693171417654"><ele>1173.0</ele><time>2026-04-23T16:46:01.999Z</time></trkpt><trkpt lat="46.46064487806339" lon="12.49982446795716"><ele>1173.0</ele><time>2026-04-23T16:46:02.999Z</time></trkpt><trkpt lat="46.46061634926144" lon="12.499969239855423"><ele>1173.0</ele><time>2026-04-23T16:46:03.999Z</time></trkpt><trkpt lat="46.46061033647319" lon="12.500153424393792"><ele>1173.4</ele><time>2026-04-23T16:46:04.999Z</time></trkpt><trkpt lat="46.46058188358498" lon="12.50033066203912"><ele>1173.8</ele><time>2026-04-23T16:46:05.999Z</time></trkpt><trkpt lat="46.460546424484086" lon="12.500451695673334"><ele>1174.2</ele><time>2026-04-23T16:46:06.999Z</time></trkpt><trkpt lat="46.460523882611135" lon="12.500586564402541"><ele>1174.6</ele><time>2026-04-23T16:46:07.999Z</time></trkpt><trkpt lat="46.46049662350544" lon="12.500693686976735"><ele>1175.0</ele><time>2026-04-23T16:46:08.999Z</time></trkpt><trkpt lat="46.460430326979214" lon="12.500746846329148"><ele>1176.75</ele><time>2026-04-23T16:46:09.999Z</time></trkpt><trkpt lat="46.46046479154722" lon="12.500933204952112"><ele>1178.5</ele><time>2026-04-23T16:46:11.999Z</time></trkpt><trkpt lat="46.46045787306323" lon="12.501084637814715"><ele>1180.25</ele><time>2026-04-23T16:46:12.999Z</time></trkpt><trkpt lat="46.46040093457217" lon="12.501204924974028"><ele>1182.0</ele><time>2026-04-23T16:46:13.999Z</time></trkpt><trkpt lat="46.46033449173016" lon="12.501361444824102"><ele>1188.8</ele><time>2026-04-23T16:46:14.999Z</time></trkpt><trkpt lat="46.46023715688886" lon="12.501521479737699"><ele>1195.6</ele><time>2026-04-23T16:46:15.999Z</time></trkpt><trkpt lat="46.46016304801356" lon="12.501652064381036"><ele>1202.3999999999999</ele><time>2026-04-23T16:46:16.998Z</time></trkpt><trkpt lat="46.460103414502214" lon="12.501779965055754"><ele>1209.2</ele><time>2026-04-23T16:46:17.998Z</time></trkpt><trkpt lat="46.460067905624314" lon="12.501869292390968"><ele>1216.0</ele><time>2026-04-23T16:46:18.998Z</time></trkpt><trkpt lat="46.46004770278783" lon="12.50195921809265"><ele>1216.0</ele><time>2026-04-23T16:46:19.998Z</time></trkpt><trkpt lat="46.46000527136234" lon="12.502063802495867"><ele>1216.0</ele><time>2026-04-23T16:46:20.998Z</time></trkpt><trkpt lat="46.4599900548594" lon="12.502211134387306"><ele>1216.0</ele><time>2026-04-23T16:46:21.998Z</time></trkpt><trkpt lat="46.459995477548134" lon="12.502329157663729"><ele>1216.0</ele><time>2026-04-23T16:46:22.998Z</time></trkpt><trkpt lat="46.460021695481856" lon="12.502455550908675"><ele>1216.0</ele><time>2026-04-23T16:46:23.998Z</time></trkpt><trkpt lat="46.46001664779174" lon="12.502599517485958"><ele>1217.0</ele><time>2026-04-23T16:46:24.998Z</time></trkpt><trkpt lat="46.46001669838564" lon="12.502705704926475"><ele>1218.0</ele><time>2026-04-23T16:46:25.998Z</time></trkpt><trkpt lat="46.46000932378167" lon="12.502859654583439"><ele>1219.0</ele><time>2026-04-23T16:46:27.998Z</time></trkpt><trkpt lat="46.46003673486213" lon="12.503069025983448"><ele>1220.0</ele><time>2026-04-23T16:46:29.998Z</time></trkpt><trkpt lat="46.46004280330853" lon="12.503186993795719"><ele>1221.0</ele><time>2026-04-23T16:46:30.998Z</time></trkpt><trkpt lat="46.460053862028744" lon="12.503316443444747"><ele>1222.8</ele><time>2026-04-23T16:46:31.998Z</time></trkpt><trkpt lat="46.460068877056564" lon="12.503487447824856"><ele>1224.6</ele><time>2026-04-23T16:46:32.998Z</time></trkpt><trkpt lat="46.46005864140155" lon="12.503638880978084"><ele>1226.4</ele><time>2026-04-23T16:46:33.998Z</time></trkpt><trkpt lat="46.46003713216186" lon="12.503772067526542"><ele>1228.2</ele><time>2026-04-23T16:46:34.998Z</time></trkpt><trkpt lat="46.46000345828795" lon="12.503860554571698"><ele>1230.0</ele><time>2026-04-23T16:46:35.998Z</time></trkpt><trkpt lat="46.45993136731772" lon="12.503936296499596"><ele>1231.4</ele><time>2026-04-23T16:46:36.998Z</time></trkpt><trkpt lat="46.4598397772929" lon="12.50404929847479"><ele>1232.8</ele><time>2026-04-23T16:46:37.998Z</time></trkpt><trkpt lat="46.45978181071544" lon="12.504152380742863"><ele>1234.2</ele><time>2026-04-23T16:46:38.998Z</time></trkpt><trkpt lat="46.45973119583926" lon="12.50425627309005"><ele>1235.6</ele><time>2026-04-23T16:46:40.998Z</time></trkpt><trkpt lat="46.4597033098753" lon="12.5043534584201"><ele>1237.0</ele><time>2026-04-23T16:46:42.998Z</time></trkpt><trkpt lat="46.4596779722181" lon="12.504565852709748"><ele>1237.6666666666665</ele><time>2026-04-23T16:46:44.998Z</time></trkpt><trkpt lat="46.45970635533177" lon="12.504714396373954"><ele>1238.3333333333333</ele><time>2026-04-23T16:46:46.998Z</time></trkpt><trkpt lat="46.45969724572584" lon="12.504829107223815"><ele>1239.0</ele><time>2026-04-23T16:46:47.998Z</time></trkpt><trkpt lat="46.45966885266037" lon="12.504925670820965"><ele>1239.6666666666667</ele><time>2026-04-23T16:46:48.998Z</time></trkpt><trkpt lat="46.45966422425404" lon="12.505059562139417"><ele>1240.3333333333335</ele><time>2026-04-23T16:46:49.998Z</time></trkpt><trkpt lat="46.45964882572283" lon="12.505183416014987"><ele>1241.0</ele><time>2026-04-23T16:46:50.998Z</time></trkpt><trkpt lat="46.45962597387756" lon="12.50528494879442"><ele>1243.6</ele><time>2026-04-23T16:46:51.998Z</time></trkpt><trkpt lat="46.45959307237918" lon="12.505394426088"><ele>1246.1999999999998</ele><time>2026-04-23T16:46:52.998Z</time></trkpt><trkpt lat="46.4595384222801" lon="12.505491973181945"><ele>1248.8000000000002</ele><time>2026-04-23T16:46:54Z</time></trkpt><trkpt lat="46.45953225608493" lon="12.505593271411112"><ele>1251.4</ele><time>2026-04-23T16:46:55Z</time></trkpt><trkpt lat="46.45947087047249" lon="12.505815534695559"><ele>1254.0</ele><time>2026-04-23T16:46:57Z</time></trkpt><trkpt lat="46.45943989920227" lon="12.505926979841691"><ele>1254.0</ele><time>2026-04-23T16:46:58Z</time></trkpt><trkpt lat="46.45934201806927" lon="12.506041205073183"><ele>1254.0</ele><time>2026-04-23T16:46:59Z</time></trkpt><trkpt lat="46.45926774552993" lon="12.506151074184958"><ele>1254.0</ele><time>2026-04-23T16:47:00Z</time></trkpt><trkpt lat="46.45919718195739" lon="12.506231806018233"><ele>1254.0</ele><time>2026-04-23T16:47:01Z</time></trkpt><trkpt lat="46.45913001465339" lon="12.50639506943955"><ele>1253.8</ele><time>2026-04-23T16:47:03Z</time></trkpt><trkpt lat="46.45913951174319" lon="12.506557970657381"><ele>1253.6000000000001</ele><time>2026-04-23T16:47:04Z</time></trkpt><trkpt lat="46.45911085490639" lon="12.506705180713643"><ele>1253.4</ele><time>2026-04-23T16:47:05Z</time></trkpt><trkpt lat="46.45909087626663" lon="12.506829156161704"><ele>1253.2</ele><time>2026-04-23T16:47:06Z</time></trkpt><trkpt lat="46.45905885830731" lon="12.50695444925689"><ele>1253.0</ele><time>2026-04-23T16:47:07Z</time></trkpt><trkpt lat="46.45903716428517" lon="12.50708624129515"><ele>1253.0</ele><time>2026-04-23T16:47:08Z</time></trkpt><trkpt lat="46.45906021909699" lon="12.507236619749637"><ele>1253.0</ele><time>2026-04-23T16:47:09Z</time></trkpt><trkpt lat="46.45903878901885" lon="12.507379967116064"><ele>1253.0</ele><time>2026-04-23T16:47:10Z</time></trkpt><trkpt lat="46.459019576756525" lon="12.507521695121882"><ele>1253.0</ele><time>2026-04-23T16:47:11Z</time></trkpt><trkpt lat="46.45898452993504" lon="12.50764266588109"><ele>1253.0</ele><time>2026-04-23T16:47:12Z</time></trkpt><trkpt lat="46.45895621400881" lon="12.507758623174144"><ele>1253.0</ele><time>2026-04-23T16:47:13Z</time></trkpt><trkpt lat="46.45893311546091" lon="12.507884244146265"><ele>1253.0</ele><time>2026-04-23T16:47:14Z</time></trkpt><trkpt lat="46.4588997246461" lon="12.507997003567871"><ele>1253.0</ele><time>2026-04-23T16:47:15Z</time></trkpt><trkpt lat="46.458865828849746" lon="12.50808316412085"><ele>1253.0</ele><time>2026-04-23T16:47:16Z</time></trkpt><trkpt lat="46.45882747884276" lon="12.508161587789365"><ele>1253.0</ele><time>2026-04-23T16:47:17Z</time></trkpt><trkpt lat="46.45879847720203" lon="12.508283496016034"><ele>1253.0</ele><time>2026-04-23T16:47:19Z</time></trkpt><trkpt lat="46.458809979336316" lon="12.508412931345614"><ele>1254.5</ele><time>2026-04-23T16:47:21Z</time></trkpt><trkpt lat="46.45874132269254" lon="12.508519625561453"><ele>1256.0</ele><time>2026-04-23T16:47:23Z</time></trkpt><trkpt lat="46.45870998147203" lon="12.508600662891347"><ele>1257.5</ele><time>2026-04-23T16:47:25Z</time></trkpt><trkpt lat="46.458658561058236" lon="12.50869541759795"><ele>1259.0</ele><time>2026-04-23T16:47:27Z</time></trkpt><trkpt lat="46.45862830510918" lon="12.508807015482953"><ele>1260.5</ele><time>2026-04-23T16:47:29Z</time></trkpt><trkpt lat="46.45855409863273" lon="12.508935748976224"><ele>1262.0</ele><time>2026-04-23T16:47:36.999Z</time></trkpt><trkpt lat="46.45850720986165" lon="12.509020614275082"><ele>1262.0</ele><time>2026-04-23T16:47:37.999Z</time></trkpt><trkpt lat="46.45846682250321" lon="12.509110842106653"><ele>1262.0</ele><time>2026-04-23T16:47:38.999Z</time></trkpt><trkpt lat="46.45843450685501" lon="12.509197466411553"><ele>1262.0</ele><time>2026-04-23T16:47:39.999Z</time></trkpt><trkpt lat="46.458397642077415" lon="12.509273596279092"><ele>1262.0</ele><time>2026-04-23T16:47:40.999Z</time></trkpt><trkpt lat="46.45837910124315" lon="12.509416834472525"><ele>1262.0</ele><time>2026-04-23T16:47:42.999Z</time></trkpt><trkpt lat="46.45834452760307" lon="12.509499939542668"><ele>1262.0</ele><time>2026-04-23T16:47:43.999Z</time></trkpt><trkpt lat="46.458328167002456" lon="12.509612679454024"><ele>1262.0</ele><time>2026-04-23T16:47:44.999Z</time></trkpt><trkpt lat="46.45833136254502" lon="12.509744967135218"><ele>1262.0</ele><time>2026-04-23T16:47:47.999Z</time></trkpt><trkpt lat="46.45832803460735" lon="12.509847324327911"><ele>1262.0</ele><time>2026-04-23T16:47:48.999Z</time></trkpt><trkpt lat="46.458327388156256" lon="12.509962904973777"><ele>1262.0</ele><time>2026-04-23T16:47:49.999Z</time></trkpt><trkpt lat="46.458320153089055" lon="12.510068653686877"><ele>1262.0</ele><time>2026-04-23T16:47:50.999Z</time></trkpt><trkpt lat="46.45830263068349" lon="12.510198061879152"><ele>1262.0</ele><time>2026-04-23T16:47:52.999Z</time></trkpt><trkpt lat="46.458283050469305" lon="12.510316349764087"><ele>1262.5</ele><time>2026-04-23T16:47:54.999Z</time></trkpt><trkpt lat="46.45823671547343" lon="12.510453126930791"><ele>1263.0</ele><time>2026-04-23T16:47:56.999Z</time></trkpt><trkpt lat="46.45818202071511" lon="12.51052038186661"><ele>1263.5</ele><time>2026-04-23T16:47:57.999Z</time></trkpt><trkpt lat="46.458134533481335" lon="12.510614408557954"><ele>1264.0</ele><time>2026-04-23T16:47:58.999Z</time></trkpt><trkpt lat="46.458096386701726" lon="12.510724894012098"><ele>1264.5</ele><time>2026-04-23T16:47:59.999Z</time></trkpt><trkpt lat="46.4580573992324" lon="12.510821697113736"><ele>1265.0</ele><time>2026-04-23T16:48:00.999Z</time></trkpt><trkpt lat="46.4580143616799" lon="12.51089363905797"><ele>1265.0</ele><time>2026-04-23T16:48:01.999Z</time></trkpt><trkpt lat="46.45796469839824" lon="12.510961062271194"><ele>1265.0</ele><time>2026-04-23T16:48:02.999Z</time></trkpt><trkpt lat="46.45792076333401" lon="12.5110275467207"><ele>1265.0</ele><time>2026-04-23T16:48:03.999Z</time></trkpt><trkpt lat="46.45787203252026" lon="12.511095736383435"><ele>1265.0</ele><time>2026-04-23T16:48:04.999Z</time></trkpt><trkpt lat="46.45778309408701" lon="12.511197688267641"><ele>1265.0</ele><time>2026-04-23T16:48:06.999Z</time></trkpt><trkpt lat="46.45770836411147" lon="12.51126142889072"><ele>1265.0</ele><time>2026-04-23T16:48:07.999Z</time></trkpt><trkpt lat="46.45765048162303" lon="12.511322071894428"><ele>1266.5</ele><time>2026-04-23T16:48:08.999Z</time></trkpt><trkpt lat="46.45758947306782" lon="12.511364458761788"><ele>1268.0</ele><time>2026-04-23T16:48:09.999Z</time></trkpt><trkpt lat="46.457501862696354" lon="12.511445749437366"><ele>1269.5</ele><time>2026-04-23T16:48:11.999Z</time></trkpt><trkpt lat="46.457431792478786" lon="12.511480346781662"><ele>1271.0</ele><time>2026-04-23T16:48:12.999Z</time></trkpt><trkpt lat="46.45732432021594" lon="12.511572890197417"><ele>1272.5</ele><time>2026-04-23T16:48:14.999Z</time></trkpt><trkpt lat="46.45727288924632" lon="12.51164388946018"><ele>1274.0</ele><time>2026-04-23T16:48:15.999Z</time></trkpt><trkpt lat="46.457203306528285" lon="12.511737622030799"><ele>1274.0</ele><time>2026-04-23T16:48:16.999Z</time></trkpt><trkpt lat="46.45712610518281" lon="12.511829261517521"><ele>1274.0</ele><time>2026-04-23T16:48:17.999Z</time></trkpt><trkpt lat="46.45705954895716" lon="12.511907368595494"><ele>1274.0</ele><time>2026-04-23T16:48:18.999Z</time></trkpt><trkpt lat="46.45698460120565" lon="12.511940666718242"><ele>1274.0</ele><time>2026-04-23T16:48:19.999Z</time></trkpt><trkpt lat="46.45693701624294" lon="12.512146863308129"><ele>1274.0</ele><time>2026-04-23T16:48:21.999Z</time></trkpt><trkpt lat="46.45686418839219" lon="12.512234779163617"><ele>1276.2</ele><time>2026-04-23T16:48:23.998Z</time></trkpt><trkpt lat="46.45676983412907" lon="12.512331927576152"><ele>1278.4</ele><time>2026-04-23T16:48:25.998Z</time></trkpt><trkpt lat="46.45670462516255" lon="12.5123775778904"><ele>1280.6</ele><time>2026-04-23T16:48:26.998Z</time></trkpt><trkpt lat="46.45663857850291" lon="12.512395078612997"><ele>1282.8</ele><time>2026-04-23T16:48:27.998Z</time></trkpt><trkpt lat="46.456543670819066" lon="12.512504034254267"><ele>1285.0</ele><time>2026-04-23T16:48:29.998Z</time></trkpt><trkpt lat="46.456476878476494" lon="12.512551028744722"><ele>1285.0</ele><time>2026-04-23T16:48:30.998Z</time></trkpt><trkpt lat="46.45640226845807" lon="12.512606045516634"><ele>1285.0</ele><time>2026-04-23T16:48:31.998Z</time></trkpt><trkpt lat="46.456332890895524" lon="12.512657508705486"><ele>1285.0</ele><time>2026-04-23T16:48:32.998Z</time></trkpt><trkpt lat="46.456271501527134" lon="12.512718172146954"><ele>1285.0</ele><time>2026-04-23T16:48:33.998Z</time></trkpt><trkpt lat="46.45618853070484" lon="12.512780843212287"><ele>1285.0</ele><time>2026-04-23T16:48:35.998Z</time></trkpt><trkpt lat="46.45609295532023" lon="12.512776089152167"><ele>1285.0</ele><time>2026-04-23T16:48:38.998Z</time></trkpt><trkpt lat="46.45599789854386" lon="12.512786114600527"><ele>1285.5714285714287</ele><time>2026-04-23T16:48:40.998Z</time></trkpt><trkpt lat="46.45593476971489" lon="12.51279941796051"><ele>1286.142857142857</ele><time>2026-04-23T16:48:41.998Z</time></trkpt><trkpt lat="46.455869763976104" lon="12.512812307737216"><ele>1286.7142857142858</ele><time>2026-04-23T16:48:42.998Z</time></trkpt><trkpt lat="46.4557825982754" lon="12.512847697089642"><ele>1287.2857142857142</ele><time>2026-04-23T16:48:44.998Z</time></trkpt><trkpt lat="46.45572846691052" lon="12.512894951518962"><ele>1287.857142857143</ele><time>2026-04-23T16:48:45.998Z</time></trkpt><trkpt lat="46.45565582998215" lon="12.512939324159845"><ele>1288.4285714285716</ele><time>2026-04-23T16:48:46.998Z</time></trkpt><trkpt lat="46.455583871582746" lon="12.512953800450639"><ele>1289.0</ele><time>2026-04-23T16:48:47.998Z</time></trkpt><trkpt lat="46.455469387383275" lon="12.512936233316754"><ele>1292.2</ele><time>2026-04-23T16:48:49.998Z</time></trkpt><trkpt lat="46.45536181031372" lon="12.512917721413942"><ele>1295.4</ele><time>2026-04-23T16:48:51.998Z</time></trkpt><trkpt lat="46.45523879877638" lon="12.512897640083562"><ele>1298.6</ele><time>2026-04-23T16:48:53.998Z</time></trkpt><trkpt lat="46.455174083877814" lon="12.512879719194059"><ele>1301.8</ele><time>2026-04-23T16:48:54.998Z</time></trkpt><trkpt lat="46.45509938805575" lon="12.512905383199067"><ele>1305.0</ele><time>2026-04-23T16:48:55.998Z</time></trkpt><trkpt lat="46.45501446101538" lon="12.512929737723358"><ele>1305.0</ele><time>2026-04-23T16:48:56.998Z</time></trkpt><trkpt lat="46.454936179528985" lon="12.512947521086607"><ele>1305.0</ele><time>2026-04-23T16:48:57.998Z</time></trkpt><trkpt lat="46.454852040810046" lon="12.51295761193127"><ele>1305.0</ele><time>2026-04-23T16:48:58.998Z</time></trkpt><trkpt lat="46.454778717546134" lon="12.512987538237432"><ele>1305.0</ele><time>2026-04-23T16:49:00Z</time></trkpt><trkpt lat="46.45470643350475" lon="12.513010148042456"><ele>1305.0</ele><time>2026-04-23T16:49:02Z</time></trkpt><trkpt lat="46.454656481376" lon="12.513085802985756"><ele>1305.0</ele><time>2026-04-23T16:49:04Z</time></trkpt><trkpt lat="46.45455903606503" lon="12.513184595098801"><ele>1306.6666666666667</ele><time>2026-04-23T16:49:06Z</time></trkpt><trkpt lat="46.45449868151033" lon="12.51323766215587"><ele>1308.3333333333333</ele><time>2026-04-23T16:49:07Z</time></trkpt><trkpt lat="46.4544120079817" lon="12.513325971569376"><ele>1310.0</ele><time>2026-04-23T16:49:09Z</time></trkpt><trkpt lat="46.4543335138513" lon="12.513370136826472"><ele>1311.6666666666665</ele><time>2026-04-23T16:49:11Z</time></trkpt><trkpt lat="46.45426910382537" lon="12.51337950949936"><ele>1313.3333333333333</ele><time>2026-04-23T16:49:14Z</time></trkpt><trkpt lat="46.454226404691724" lon="12.513305982825795"><ele>1315.0</ele><time>2026-04-23T16:52:18.999Z</time></trkpt><trkpt lat="46.45416990538855" lon="12.513239643559254"><ele>1315.0</ele><time>2026-04-23T16:52:20.999Z</time></trkpt><trkpt lat="46.45422039929294" lon="12.513134408665826"><ele>1315.0</ele><time>2026-04-23T16:52:22.999Z</time></trkpt><trkpt lat="46.45428136907979" lon="12.513013004709054"><ele>1315.0</ele><time>2026-04-23T16:52:24.999Z</time></trkpt><trkpt lat="46.45428781578439" lon="12.512853700492675"><ele>1315.0</ele><time>2026-04-23T16:52:26.999Z</time></trkpt><trkpt lat="46.45428934633776" lon="12.512759335391282"><ele>1315.0</ele><time>2026-04-23T16:52:27.999Z</time></trkpt><trkpt lat="46.454327196613164" lon="12.51260570058761"><ele>1314.0</ele><time>2026-04-23T16:52:29.998Z</time></trkpt><trkpt lat="46.45436720562903" lon="12.512476522055797"><ele>1313.0</ele><time>2026-04-23T16:52:31.998Z</time></trkpt><trkpt lat="46.45441529588865" lon="12.5123991847063"><ele>1312.0</ele><time>2026-04-23T16:52:32.998Z</time></trkpt><trkpt lat="46.4544933310907" lon="12.512313379105546"><ele>1311.0</ele><time>2026-04-23T16:52:33.998Z</time></trkpt><trkpt lat="46.454595550224795" lon="12.512211994934038"><ele>1310.0</ele><time>2026-04-23T16:52:34.998Z</time></trkpt><trkpt lat="46.454662137858115" lon="12.512112221078288"><ele>1313.8</ele><time>2026-04-23T16:52:35.998Z</time></trkpt><trkpt lat="46.45469824289004" lon="12.5119999836954"><ele>1317.6</ele><time>2026-04-23T16:52:36.998Z</time></trkpt><trkpt lat="46.45471150164971" lon="12.5118825270836"><ele>1321.4</ele><time>2026-04-23T16:52:37.998Z</time></trkpt><trkpt lat="46.45473406397462" lon="12.511738719686212"><ele>1325.2</ele><time>2026-04-23T16:52:38.998Z</time></trkpt><trkpt lat="46.45478129026354" lon="12.51161013703255"><ele>1329.0</ele><time>2026-04-23T16:52:39.998Z</time></trkpt><trkpt lat="46.45483953393483" lon="12.511483037549883"><ele>1329.0</ele><time>2026-04-23T16:52:40.998Z</time></trkpt><trkpt lat="46.454902832037014" lon="12.511375390272562"><ele>1329.0</ele><time>2026-04-23T16:52:41.998Z</time></trkpt><trkpt lat="46.4549479411234" lon="12.511285954637122"><ele>1329.0</ele><time>2026-04-23T16:52:42.998Z</time></trkpt><trkpt lat="46.45505719284374" lon="12.511245970203586"><ele>1329.0</ele><time>2026-04-23T16:52:43.998Z</time></trkpt><trkpt lat="46.45507918560895" lon="12.511152514555196"><ele>1329.0</ele><time>2026-04-23T16:52:44.998Z</time></trkpt><trkpt lat="46.45502754126033" lon="12.511015565831972"><ele>1333.2</ele><time>2026-04-23T16:52:45.998Z</time></trkpt><trkpt lat="46.45502894005906" lon="12.510911220036862"><ele>1337.4</ele><time>2026-04-23T16:52:46.998Z</time></trkpt><trkpt lat="46.45506076638919" lon="12.510794395122902"><ele>1341.6</ele><time>2026-04-23T16:52:47.998Z</time></trkpt><trkpt lat="46.455119626877" lon="12.510635144803091"><ele>1345.8</ele><time>2026-04-23T16:52:48.998Z</time></trkpt><trkpt lat="46.45513519878372" lon="12.510482892754272"><ele>1350.0</ele><time>2026-04-23T16:52:49.998Z</time></trkpt><trkpt lat="46.45515311076532" lon="12.510351779293396"><ele>1352.6666666666667</ele><time>2026-04-23T16:52:50.998Z</time></trkpt><trkpt lat="46.455160507657205" lon="12.510249370413865"><ele>1355.3333333333333</ele><time>2026-04-23T16:52:51.998Z</time></trkpt><trkpt lat="46.45517306540052" lon="12.510134603726737"><ele>1358.0</ele><time>2026-04-23T16:52:52.998Z</time></trkpt><trkpt lat="46.45516834154201" lon="12.509999986381057"><ele>1360.6666666666665</ele><time>2026-04-23T16:52:53.998Z</time></trkpt><trkpt lat="46.45515175375747" lon="12.509902995660704"><ele>1363.3333333333333</ele><time>2026-04-23T16:52:54.998Z</time></trkpt><trkpt lat="46.45515925582219" lon="12.50975891816186"><ele>1366.0</ele><time>2026-04-23T16:52:55.998Z</time></trkpt><trkpt lat="46.455168551795566" lon="12.509622312015315"><ele>1369.4</ele><time>2026-04-23T16:52:56.998Z</time></trkpt><trkpt lat="46.455202818558746" lon="12.509498223910132"><ele>1372.8</ele><time>2026-04-23T16:52:57.998Z</time></trkpt><trkpt lat="46.455211597067596" lon="12.50935387533384"><ele>1376.2</ele><time>2026-04-23T16:52:58.998Z</time></trkpt><trkpt lat="46.45521904523129" lon="12.509203446736832"><ele>1379.6000000000001</ele><time>2026-04-23T16:52:59.998Z</time></trkpt><trkpt lat="46.45523227496404" lon="12.50907355470955"><ele>1383.0</ele><time>2026-04-23T16:53:00.998Z</time></trkpt><trkpt lat="46.45526379197885" lon="12.508942680586491"><ele>1383.0</ele><time>2026-04-23T16:53:01.998Z</time></trkpt><trkpt lat="46.45531115732484" lon="12.50885528595112"><ele>1383.0</ele><time>2026-04-23T16:53:02.998Z</time></trkpt><trkpt lat="46.45530165656771" lon="12.508696668425442"><ele>1383.0</ele><time>2026-04-23T16:53:04.998Z</time></trkpt><trkpt lat="46.455273696229696" lon="12.50860854592625"><ele>1383.0</ele><time>2026-04-23T16:53:05.998Z</time></trkpt><trkpt lat="46.455217541952194" lon="12.508473217332114"><ele>1383.0</ele><time>2026-04-23T16:53:06.998Z</time></trkpt><trkpt lat="46.455199387118824" lon="12.508334461042109"><ele>1384.1666666666667</ele><time>2026-04-23T16:53:07.998Z</time></trkpt><trkpt lat="46.455203902300596" lon="12.508224074081538"><ele>1385.3333333333333</ele><time>2026-04-23T16:53:08.998Z</time></trkpt><trkpt lat="46.45522883772231" lon="12.508089536108326"><ele>1386.5</ele><time>2026-04-23T16:53:09.998Z</time></trkpt><trkpt lat="46.45524265307571" lon="12.507956373749954"><ele>1387.6666666666665</ele><time>2026-04-23T16:53:10.998Z</time></trkpt><trkpt lat="46.4552643290936" lon="12.507825486935387"><ele>1388.8333333333333</ele><time>2026-04-23T16:53:12Z</time></trkpt><trkpt lat="46.455274477071335" lon="12.507713217607192"><ele>1390.0</ele><time>2026-04-23T16:53:13Z</time></trkpt><trkpt lat="46.45528411244804" lon="12.507618833323553"><ele>1390.6</ele><time>2026-04-23T16:53:14Z</time></trkpt><trkpt lat="46.45527237197298" lon="12.507474663117792"><ele>1391.2</ele><time>2026-04-23T16:53:16Z</time></trkpt><trkpt lat="46.45524540856481" lon="12.50738761184622"><ele>1391.8000000000002</ele><time>2026-04-23T16:53:17Z</time></trkpt><trkpt lat="46.45517136226856" lon="12.50724365651124"><ele>1392.4</ele><time>2026-04-23T16:53:18Z</time></trkpt><trkpt lat="46.45511903500279" lon="12.507130422126933"><ele>1393.0</ele><time>2026-04-23T16:53:19Z</time></trkpt><trkpt lat="46.455053795246556" lon="12.506991124814324"><ele>1393.8000000000002</ele><time>2026-04-23T16:53:20Z</time></trkpt><trkpt lat="46.45505472727731" lon="12.506843423860095"><ele>1394.6</ele><time>2026-04-23T16:53:21Z</time></trkpt><trkpt lat="46.45510178282433" lon="12.506743398260332"><ele>1395.4</ele><time>2026-04-23T16:53:22Z</time></trkpt><trkpt lat="46.455113567185585" lon="12.506643196741651"><ele>1396.1999999999998</ele><time>2026-04-23T16:53:23Z</time></trkpt><trkpt lat="46.45521012562803" lon="12.506513232039564"><ele>1397.0</ele><time>2026-04-23T16:53:25Z</time></trkpt><trkpt lat="46.455279082057814" lon="12.506383579304329"><ele>1397.0</ele><time>2026-04-23T16:53:27Z</time></trkpt><trkpt lat="46.45527086825312" lon="12.50628009020894"><ele>1397.0</ele><time>2026-04-23T16:53:28Z</time></trkpt><trkpt lat="46.455246075126865" lon="12.50617221263395"><ele>1397.0</ele><time>2026-04-23T16:53:29Z</time></trkpt><trkpt lat="46.455158381984155" lon="12.506045254506603"><ele>1397.0</ele><time>2026-04-23T16:53:31Z</time></trkpt><trkpt lat="46.45508684535778" lon="12.505961506765829"><ele>1397.0</ele><time>2026-04-23T16:53:32Z</time></trkpt><trkpt lat="46.45503793057293" lon="12.505849512836685"><ele>1399.0</ele><time>2026-04-23T16:53:33Z</time></trkpt><trkpt lat="46.45501610622626" lon="12.505730895049435"><ele>1401.0</ele><time>2026-04-23T16:53:34Z</time></trkpt><trkpt lat="46.454997811434914" lon="12.505619210125365"><ele>1403.0</ele><time>2026-04-23T16:53:35Z</time></trkpt><trkpt lat="46.45500033674223" lon="12.505455734590068"><ele>1405.0</ele><time>2026-04-23T16:53:36Z</time></trkpt><trkpt lat="46.45506197322109" lon="12.505305089658686"><ele>1407.0</ele><time>2026-04-23T16:53:37Z</time></trkpt><trkpt lat="46.45511487629001" lon="12.50515787874148"><ele>1408.25</ele><time>2026-04-23T16:53:38Z</time></trkpt><trkpt lat="46.45513537966275" lon="12.505053781836883"><ele>1409.5</ele><time>2026-04-23T16:53:39Z</time></trkpt><trkpt lat="46.45513676136279" lon="12.504824245694776"><ele>1410.75</ele><time>2026-04-23T16:53:41Z</time></trkpt><trkpt lat="46.455109759757015" lon="12.504682071323042"><ele>1412.0</ele><time>2026-04-23T16:53:42Z</time></trkpt><trkpt lat="46.45507175754306" lon="12.504513338346602"><ele>1413.1999999999998</ele><time>2026-04-23T16:53:43Z</time></trkpt><trkpt lat="46.4550533560987" lon="12.504357126766715"><ele>1414.4</ele><time>2026-04-23T16:53:44Z</time></trkpt><trkpt lat="46.45503581442257" lon="12.504226128934178"><ele>1415.6</ele><time>2026-04-23T16:53:45Z</time></trkpt><trkpt lat="46.455002029250075" lon="12.504117424712499"><ele>1416.8000000000002</ele><time>2026-04-23T16:53:46Z</time></trkpt><trkpt lat="46.45499404774852" lon="12.503991698299595"><ele>1418.0</ele><time>2026-04-23T16:53:47Z</time></trkpt><trkpt lat="46.45500386431383" lon="12.503840660050763"><ele>1419.6000000000001</ele><time>2026-04-23T16:53:47.999Z</time></trkpt><trkpt lat="46.45499489593907" lon="12.503684533108249"><ele>1421.2</ele><time>2026-04-23T16:53:48.999Z</time></trkpt><trkpt lat="46.45501303971745" lon="12.503500314398334"><ele>1422.8</ele><time>2026-04-23T16:53:49.999Z</time></trkpt><trkpt lat="46.45501222172286" lon="12.50336783552357"><ele>1424.4</ele><time>2026-04-23T16:53:50.999Z</time></trkpt><trkpt lat="46.454995990281645" lon="12.5032586611475"><ele>1426.0</ele><time>2026-04-23T16:53:51.999Z</time></trkpt><trkpt lat="46.45499104848157" lon="12.503128943534847"><ele>1426.0</ele><time>2026-04-23T16:53:52.999Z</time></trkpt><trkpt lat="46.45497438203454" lon="12.502998573363032"><ele>1426.0</ele><time>2026-04-23T16:53:53.999Z</time></trkpt><trkpt lat="46.45495858902073" lon="12.50286874748112"><ele>1426.0</ele><time>2026-04-23T16:53:54.999Z</time></trkpt><trkpt lat="46.45494896668359" lon="12.50276882099177"><ele>1426.0</ele><time>2026-04-23T16:53:55.999Z</time></trkpt><trkpt lat="46.45494886282333" lon="12.50267527324831"><ele>1426.0</ele><time>2026-04-23T16:53:56.999Z</time></trkpt><trkpt lat="46.454979138930426" lon="12.502587122882693"><ele>1426.0</ele><time>2026-04-23T16:53:57.999Z</time></trkpt><trkpt lat="46.45497015721228" lon="12.50247592821578"><ele>1426.1999999999998</ele><time>2026-04-23T16:53:59.999Z</time></trkpt><trkpt lat="46.45495932012477" lon="12.502328250419085"><ele>1426.3999999999999</ele><time>2026-04-23T16:54:01.999Z</time></trkpt><trkpt lat="46.454953538016476" lon="12.502221692770327"><ele>1426.6</ele><time>2026-04-23T16:54:02.999Z</time></trkpt><trkpt lat="46.4549473786872" lon="12.5020825164165"><ele>1426.8</ele><time>2026-04-23T16:54:04.999Z</time></trkpt><trkpt lat="46.45491201770328" lon="12.501945589557918"><ele>1427.0</ele><time>2026-04-23T16:54:06.999Z</time></trkpt><trkpt lat="46.45486394572109" lon="12.501755733543778"><ele>1427.0</ele><time>2026-04-23T16:54:08.999Z</time></trkpt><trkpt lat="46.45480039140034" lon="12.501698165724656"><ele>1427.0</ele><time>2026-04-23T16:54:10.999Z</time></trkpt><trkpt lat="46.454768296463776" lon="12.501834699469894"><ele>1427.0</ele><time>2026-04-23T16:54:19.999Z</time></trkpt><trkpt lat="46.454782415170335" lon="12.50195819285504"><ele>1427.0</ele><time>2026-04-23T16:54:20.999Z</time></trkpt><trkpt lat="46.45479378342054" lon="12.502142236644861"><ele>1427.0</ele><time>2026-04-23T16:54:22.999Z</time></trkpt><trkpt lat="46.45473623438718" lon="12.502280108096084"><ele>1427.0</ele><time>2026-04-23T16:54:23.999Z</time></trkpt><trkpt lat="46.45470642269092" lon="12.502393077928469"><ele>1427.0</ele><time>2026-04-23T16:54:24.999Z</time></trkpt><trkpt lat="46.45469696246214" lon="12.502524310985086"><ele>1427.0</ele><time>2026-04-23T16:54:25.999Z</time></trkpt><trkpt lat="46.45466688487435" lon="12.50261847294996"><ele>1427.0</ele><time>2026-04-23T16:54:26.999Z</time></trkpt><trkpt lat="46.45461054005998" lon="12.502736596873373"><ele>1427.0</ele><time>2026-04-23T16:54:27.999Z</time></trkpt><trkpt lat="46.45461111949335" lon="12.502866776516711"><ele>1427.0</ele><time>2026-04-23T16:54:28.999Z</time></trkpt><trkpt lat="46.454606738307845" lon="12.503002867108602"><ele>1437.8</ele><time>2026-04-23T16:54:29.999Z</time></trkpt><trkpt lat="46.45459424674319" lon="12.503134491412315"><ele>1448.6</ele><time>2026-04-23T16:54:30.999Z</time></trkpt><trkpt lat="46.45453776685946" lon="12.50331748281762"><ele>1459.3999999999999</ele><time>2026-04-23T16:54:32.999Z</time></trkpt><trkpt lat="46.454521057611174" lon="12.503430585883242"><ele>1470.1999999999998</ele><time>2026-04-23T16:54:33.999Z</time></trkpt><trkpt lat="46.45448020809675" lon="12.503565721041626"><ele>1481.0</ele><time>2026-04-23T16:54:34.999Z</time></trkpt><trkpt lat="46.45445405487518" lon="12.50367461661946"><ele>1480.5</ele><time>2026-04-23T16:54:35.999Z</time></trkpt><trkpt lat="46.45437588464768" lon="12.503800464366643"><ele>1480.0</ele><time>2026-04-23T16:54:37.998Z</time></trkpt><trkpt lat="46.45432893421061" lon="12.50390473692137"><ele>1479.5</ele><time>2026-04-23T16:54:38.998Z</time></trkpt><trkpt lat="46.454298426244115" lon="12.5039877124892"><ele>1479.0</ele><time>2026-04-23T16:54:39.998Z</time></trkpt><trkpt lat="46.45430414735366" lon="12.504138025455633"><ele>1478.5</ele><time>2026-04-23T16:54:40.998Z</time></trkpt><trkpt lat="46.45426331701494" lon="12.504229770632156"><ele>1478.0</ele><time>2026-04-23T16:54:41.998Z</time></trkpt><trkpt lat="46.45424482383525" lon="12.504348177036423"><ele>1478.0</ele><time>2026-04-23T16:54:42.998Z</time></trkpt><trkpt lat="46.45417819868232" lon="12.50444962678618"><ele>1478.0</ele><time>2026-04-23T16:54:43.998Z</time></trkpt><trkpt lat="46.45414073780499" lon="12.504555302552392"><ele>1478.0</ele><time>2026-04-23T16:54:44.998Z</time></trkpt><trkpt lat="46.45413770799236" lon="12.504686116549466"><ele>1478.0</ele><time>2026-04-23T16:54:45.998Z</time></trkpt><trkpt lat="46.454106274790384" lon="12.50479598033239"><ele>1478.0</ele><time>2026-04-23T16:54:46.998Z</time></trkpt><trkpt lat="46.45407463033797" lon="12.504912305483076"><ele>1478.0</ele><time>2026-04-23T16:54:47.998Z</time></trkpt><trkpt lat="46.45402671652971" lon="12.505022888172448"><ele>1475.8000000000002</ele><time>2026-04-23T16:54:48.998Z</time></trkpt><trkpt lat="46.45397273022488" lon="12.505197948529702"><ele>1473.6</ele><time>2026-04-23T16:54:50.998Z</time></trkpt><trkpt lat="46.45393021880648" lon="12.505290475737795"><ele>1471.4</ele><time>2026-04-23T16:54:51.998Z</time></trkpt><trkpt lat="46.453915290300905" lon="12.505390993982816"><ele>1469.1999999999998</ele><time>2026-04-23T16:54:52.998Z</time></trkpt><trkpt lat="46.45388039107108" lon="12.505539192774908"><ele>1467.0</ele><time>2026-04-23T16:54:54.998Z</time></trkpt><trkpt lat="46.45384543666041" lon="12.505647474739906"><ele>1465.3333333333333</ele><time>2026-04-23T16:54:55.998Z</time></trkpt><trkpt lat="46.453814385890446" lon="12.50573776072709"><ele>1463.6666666666667</ele><time>2026-04-23T16:54:56.998Z</time></trkpt><trkpt lat="46.453783027217696" lon="12.505837644976918"><ele>1462.0</ele><time>2026-04-23T16:54:57.998Z</time></trkpt><trkpt lat="46.45373965149419" lon="12.505924436668398"><ele>1460.3333333333335</ele><time>2026-04-23T16:54:58.998Z</time></trkpt><trkpt lat="46.45368966871075" lon="12.506019188204414"><ele>1458.6666666666667</ele><time>2026-04-23T16:54:59.998Z</time></trkpt><trkpt lat="46.45361060972621" lon="12.506117959680877"><ele>1457.0</ele><time>2026-04-23T16:55:00.998Z</time></trkpt><trkpt lat="46.4535378936598" lon="12.506227004694804"><ele>1466.3999999999999</ele><time>2026-04-23T16:55:01.998Z</time></trkpt><trkpt lat="46.45345789852731" lon="12.506341448682758"><ele>1475.8</ele><time>2026-04-23T16:55:02.998Z</time></trkpt><trkpt lat="46.45340784317404" lon="12.506472495902017"><ele>1485.2</ele><time>2026-04-23T16:55:03.998Z</time></trkpt><trkpt lat="46.45333805122968" lon="12.506590416846272"><ele>1494.6</ele><time>2026-04-23T16:55:04.998Z</time></trkpt><trkpt lat="46.45328613880177" lon="12.50669071321802"><ele>1504.0</ele><time>2026-04-23T16:55:05.998Z</time></trkpt><trkpt lat="46.45321962512328" lon="12.506773776278287"><ele>1504.0</ele><time>2026-04-23T16:55:06.998Z</time></trkpt><trkpt lat="46.45317059678524" lon="12.50688897249495"><ele>1504.0</ele><time>2026-04-23T16:55:07.998Z</time></trkpt><trkpt lat="46.4531710304939" lon="12.507043930857995"><ele>1504.0</ele><time>2026-04-23T16:55:08.998Z</time></trkpt><trkpt lat="46.453164226559466" lon="12.507180382368368"><ele>1504.0</ele><time>2026-04-23T16:55:09.998Z</time></trkpt><trkpt lat="46.45315807673412" lon="12.507337869896231"><ele>1504.0</ele><time>2026-04-23T16:55:10.998Z</time></trkpt><trkpt lat="46.4531282195397" lon="12.507458987541927"><ele>1504.3333333333333</ele><time>2026-04-23T16:55:11.998Z</time></trkpt><trkpt lat="46.45310922085454" lon="12.507572938678814"><ele>1504.6666666666665</ele><time>2026-04-23T16:55:12.998Z</time></trkpt><trkpt lat="46.453077849330164" lon="12.507697911873281"><ele>1505.0</ele><time>2026-04-23T16:55:13.998Z</time></trkpt><trkpt lat="46.45305113585863" lon="12.507781640104739"><ele>1505.3333333333333</ele><time>2026-04-23T16:55:14.998Z</time></trkpt><trkpt lat="46.45300958003182" lon="12.507859666898176"><ele>1505.6666666666667</ele><time>2026-04-23T16:55:15.998Z</time></trkpt><trkpt lat="46.452918888872624" lon="12.50796467257123"><ele>1506.0</ele><time>2026-04-23T16:55:18Z</time></trkpt><trkpt lat="46.45283374933209" lon="12.507981297919043"><ele>1506.0</ele><time>2026-04-23T16:55:20Z</time></trkpt><trkpt lat="46.452723659591754" lon="12.507959674632302"><ele>1506.0</ele><time>2026-04-23T16:55:22Z</time></trkpt><trkpt lat="46.45268867414606" lon="12.507854860799842"><ele>1506.0</ele><time>2026-04-23T16:55:24Z</time></trkpt><trkpt lat="46.45277604214875" lon="12.507729507977285"><ele>1506.0</ele><time>2026-04-23T16:55:26Z</time></trkpt><trkpt lat="46.45282985415738" lon="12.507610319308712"><ele>1506.0</ele><time>2026-04-23T16:55:27Z</time></trkpt><trkpt lat="46.45287878793669" lon="12.507521316804167"><ele>1510.3333333333333</ele><time>2026-04-23T16:55:28Z</time></trkpt><trkpt lat="46.45289672689919" lon="12.507413092441945"><ele>1514.6666666666667</ele><time>2026-04-23T16:55:29Z</time></trkpt><trkpt lat="46.45294198311164" lon="12.50732592949108"><ele>1519.0</ele><time>2026-04-23T16:55:30Z</time></trkpt><trkpt lat="46.452953214323514" lon="12.507194627939946"><ele>1523.3333333333335</ele><time>2026-04-23T16:55:31Z</time></trkpt><trkpt lat="46.452941521172235" lon="12.507078853543254"><ele>1527.6666666666667</ele><time>2026-04-23T16:55:32Z</time></trkpt><trkpt lat="46.452930403730804" lon="12.506955058277214"><ele>1532.0</ele><time>2026-04-23T16:55:33Z</time></trkpt><trkpt lat="46.45294190600586" lon="12.50684151054988"><ele>1530.8333333333335</ele><time>2026-04-23T16:55:34Z</time></trkpt><trkpt lat="46.4529452480674" lon="12.50672163021881"><ele>1529.6666666666667</ele><time>2026-04-23T16:55:35Z</time></trkpt><trkpt lat="46.45299051492099" lon="12.506600311411534"><ele>1528.5</ele><time>2026-04-23T16:55:36Z</time></trkpt><trkpt lat="46.45303221812321" lon="12.506489471773891"><ele>1527.3333333333333</ele><time>2026-04-23T16:55:37Z</time></trkpt><trkpt lat="46.453070977689215" lon="12.506379232954737"><ele>1526.1666666666665</ele><time>2026-04-23T16:55:38Z</time></trkpt><trkpt lat="46.45312082048891" lon="12.506276520996426"><ele>1525.0</ele><time>2026-04-23T16:55:39Z</time></trkpt><trkpt lat="46.453146121793345" lon="12.506182882891501"><ele>1525.0</ele><time>2026-04-23T16:55:40Z</time></trkpt><trkpt lat="46.45316828419646" lon="12.506086430906588"><ele>1525.0</ele><time>2026-04-23T16:55:41Z</time></trkpt><trkpt lat="46.45318806066413" lon="12.505980742427525"><ele>1525.0</ele><time>2026-04-23T16:55:42Z</time></trkpt><trkpt lat="46.45318990945899" lon="12.505869219960339"><ele>1525.0</ele><time>2026-04-23T16:55:43Z</time></trkpt><trkpt lat="46.453198249197776" lon="12.505697348935932"><ele>1525.0</ele><time>2026-04-23T16:55:45Z</time></trkpt><trkpt lat="46.45320847909591" lon="12.50559984125256"><ele>1525.0</ele><time>2026-04-23T16:55:46Z</time></trkpt><trkpt lat="46.453254618226225" lon="12.50543588421924"><ele>1527.0</ele><time>2026-04-23T16:55:48Z</time></trkpt><trkpt lat="46.45328444684649" lon="12.505317078989018"><ele>1529.0</ele><time>2026-04-23T16:55:49Z</time></trkpt><trkpt lat="46.453281394944504" lon="12.505181438277653"><ele>1531.0</ele><time>2026-04-23T16:55:50Z</time></trkpt><trkpt lat="46.45326377979914" lon="12.505074751200834"><ele>1533.0</ele><time>2026-04-23T16:55:51Z</time></trkpt><trkpt lat="46.45325090185786" lon="12.50497480124064"><ele>1535.0000000000002</ele><time>2026-04-23T16:55:52Z</time></trkpt><trkpt lat="46.45324648660697" lon="12.504864614053057"><ele>1537.0</ele><time>2026-04-23T16:55:53Z</time></trkpt><trkpt lat="46.45323094512763" lon="12.504745063921808"><ele>1537.0000000000002</ele><time>2026-04-23T16:55:54Z</time></trkpt><trkpt lat="46.453210929818226" lon="12.50462732589483"><ele>1537.0</ele><time>2026-04-23T16:55:55Z</time></trkpt><trkpt lat="46.45320728875509" lon="12.504518037976782"><ele>1537.0</ele><time>2026-04-23T16:55:55.999Z</time></trkpt><trkpt lat="46.45322521569387" lon="12.504394621681321"><ele>1537.0</ele><time>2026-04-23T16:55:56.999Z</time></trkpt><trkpt lat="46.453219223083956" lon="12.504287177109893"><ele>1537.0000000000002</ele><time>2026-04-23T16:55:57.999Z</time></trkpt><trkpt lat="46.45319411547851" lon="12.504179979979131"><ele>1537.0</ele><time>2026-04-23T16:55:58.999Z</time></trkpt><trkpt lat="46.453156804191494" lon="12.504061568685923"><ele>1537.3999999999999</ele><time>2026-04-23T16:55:59.999Z</time></trkpt><trkpt lat="46.45311687172185" lon="12.503933208611556"><ele>1537.8</ele><time>2026-04-23T16:56:00.999Z</time></trkpt><trkpt lat="46.45306986235011" lon="12.503805405097907"><ele>1538.2</ele><time>2026-04-23T16:56:01.999Z</time></trkpt><trkpt lat="46.45303333209501" lon="12.503651304119845"><ele>1538.6</ele><time>2026-04-23T16:56:02.999Z</time></trkpt><trkpt lat="46.45299934234953" lon="12.503544274418736"><ele>1539.0</ele><time>2026-04-23T16:56:03.999Z</time></trkpt><trkpt lat="46.45297733301606" lon="12.503453981140856"><ele>1539.0</ele><time>2026-04-23T16:56:04.999Z</time></trkpt><trkpt lat="46.45297536953704" lon="12.503334751334574"><ele>1539.0</ele><time>2026-04-23T16:56:06.999Z</time></trkpt><trkpt lat="46.45291602016682" lon="12.503425529371588"><ele>1539.0</ele><time>2026-04-23T16:56:10.999Z</time></trkpt><trkpt lat="46.45290688625643" lon="12.503529519894531"><ele>1539.0</ele><time>2026-04-23T16:56:12.999Z</time></trkpt><trkpt lat="46.45291235642766" lon="12.503641066563537"><ele>1539.0</ele><time>2026-04-23T16:56:16.999Z</time></trkpt><trkpt lat="46.452833595324726" lon="12.503959467678634"><ele>1549.4</ele><time>2026-04-23T16:56:19.999Z</time></trkpt><trkpt lat="46.452802664909925" lon="12.504100951879591"><ele>1559.8000000000002</ele><time>2026-04-23T16:56:20.999Z</time></trkpt><trkpt lat="46.452764687814174" lon="12.50419959393522"><ele>1570.1999999999998</ele><time>2026-04-23T16:56:21.999Z</time></trkpt><trkpt lat="46.452744240736024" lon="12.504313199674703"><ele>1580.6</ele><time>2026-04-23T16:56:22.999Z</time></trkpt><trkpt lat="46.45272008557213" lon="12.504423419794238"><ele>1591.0</ele><time>2026-04-23T16:56:23.999Z</time></trkpt><trkpt lat="46.45268867953721" lon="12.504617110319677"><ele>1591.0</ele><time>2026-04-23T16:56:25.999Z</time></trkpt><trkpt lat="46.452637537144795" lon="12.504776493726956"><ele>1591.0</ele><time>2026-04-23T16:56:26.999Z</time></trkpt><trkpt lat="46.45257185574911" lon="12.504909692292832"><ele>1591.0</ele><time>2026-04-23T16:56:27.999Z</time></trkpt><trkpt lat="46.45252635616256" lon="12.50504756741918"><ele>1591.0</ele><time>2026-04-23T16:56:28.999Z</time></trkpt><trkpt lat="46.45248512618054" lon="12.505174870531832"><ele>1591.0</ele><time>2026-04-23T16:56:29.999Z</time></trkpt><trkpt lat="46.45240403311375" lon="12.50527828009799"><ele>1591.0</ele><time>2026-04-23T16:56:30.999Z</time></trkpt><trkpt lat="46.45234118802143" lon="12.505392177106213"><ele>1591.0</ele><time>2026-04-23T16:56:31.999Z</time></trkpt><trkpt lat="46.45228094656556" lon="12.50553338318221"><ele>1591.0</ele><time>2026-04-23T16:56:32.999Z</time></trkpt><trkpt lat="46.452208045825095" lon="12.505638448039166"><ele>1591.0</ele><time>2026-04-23T16:56:33.999Z</time></trkpt><trkpt lat="46.45213060379309" lon="12.505758335829022"><ele>1591.0</ele><time>2026-04-23T16:56:34.999Z</time></trkpt><trkpt lat="46.45207263573472" lon="12.50587197467646"><ele>1591.3333333333335</ele><time>2026-04-23T16:56:35.999Z</time></trkpt><trkpt lat="46.452032284468004" lon="12.505968743824623"><ele>1591.6666666666667</ele><time>2026-04-23T16:56:36.999Z</time></trkpt><trkpt lat="46.45197725197315" lon="12.506059915197735"><ele>1592.0</ele><time>2026-04-23T16:56:37.999Z</time></trkpt><trkpt lat="46.45190987841453" lon="12.506163932760277"><ele>1592.3333333333335</ele><time>2026-04-23T16:56:38.999Z</time></trkpt><trkpt lat="46.451854524694625" lon="12.50627078906761"><ele>1592.6666666666667</ele><time>2026-04-23T16:56:39.999Z</time></trkpt><trkpt lat="46.451835568724825" lon="12.506375732766799"><ele>1593.0</ele><time>2026-04-23T16:56:40.999Z</time></trkpt><trkpt lat="46.451784413405335" lon="12.506446879778583"><ele>1593.0</ele><time>2026-04-23T16:56:41.999Z</time></trkpt><trkpt lat="46.45171175414343" lon="12.506516013542349"><ele>1593.0</ele><time>2026-04-23T16:56:42.999Z</time></trkpt><trkpt lat="46.4516369439747" lon="12.506553130571056"><ele>1593.0</ele><time>2026-04-23T16:56:43.998Z</time></trkpt><trkpt lat="46.45156715226572" lon="12.506580815792294"><ele>1593.0</ele><time>2026-04-23T16:56:44.998Z</time></trkpt><trkpt lat="46.45147782928212" lon="12.506608764448583"><ele>1593.0</ele><time>2026-04-23T16:56:45.998Z</time></trkpt><trkpt lat="46.45140340848486" lon="12.506638550724514"><ele>1593.0</ele><time>2026-04-23T16:56:46.998Z</time></trkpt><trkpt lat="46.45130496560035" lon="12.506713174421657"><ele>1593.0000000000002</ele><time>2026-04-23T16:56:48.998Z</time></trkpt><trkpt lat="46.451280799648536" lon="12.506800822217794"><ele>1593.0</ele><time>2026-04-23T16:56:50.998Z</time></trkpt><trkpt lat="46.451245532789784" lon="12.50672055565557"><ele>1593.0</ele><time>2026-04-23T16:56:53.998Z</time></trkpt><trkpt lat="46.45129684282953" lon="12.50661522040805"><ele>1593.0</ele><time>2026-04-23T16:56:55.998Z</time></trkpt><trkpt lat="46.45131975678721" lon="12.506525407161266"><ele>1593.0</ele><time>2026-04-23T16:56:56.998Z</time></trkpt><trkpt lat="46.45134750616486" lon="12.506416526501841"><ele>1593.0000000000002</ele><time>2026-04-23T16:56:57.998Z</time></trkpt><trkpt lat="46.451375879894066" lon="12.50631786202575"><ele>1593.0</ele><time>2026-04-23T16:56:58.998Z</time></trkpt><trkpt lat="46.451407950709466" lon="12.506206991596194"><ele>1597.0</ele><time>2026-04-23T16:56:59.998Z</time></trkpt><trkpt lat="46.45146672752313" lon="12.506078075939408"><ele>1601.0</ele><time>2026-04-23T16:57:01.998Z</time></trkpt><trkpt lat="46.451530947240904" lon="12.506053600221549"><ele>1605.0</ele><time>2026-04-23T16:57:02.998Z</time></trkpt><trkpt lat="46.451627525207826" lon="12.506039004348755"><ele>1609.0</ele><time>2026-04-23T16:57:04.998Z</time></trkpt><trkpt lat="46.45168377570999" lon="12.505943674428726"><ele>1613.0</ele><time>2026-04-23T16:57:05.998Z</time></trkpt><trkpt lat="46.45171432287743" lon="12.505836331744398"><ele>1617.0</ele><time>2026-04-23T16:57:06.998Z</time></trkpt><trkpt lat="46.45177583068058" lon="12.505727577144802"><ele>1617.0</ele><time>2026-04-23T16:57:08.998Z</time></trkpt><trkpt lat="46.451672066662994" lon="12.505761577216584"><ele>1617.0</ele><time>2026-04-23T16:57:12.998Z</time></trkpt><trkpt lat="46.451617093837186" lon="12.505826189043539"><ele>1617.0</ele><time>2026-04-23T16:57:13.998Z</time></trkpt><trkpt lat="46.45147995770739" lon="12.50592660351793"><ele>1617.0</ele><time>2026-04-23T16:57:15.998Z</time></trkpt><trkpt lat="46.45139354134693" lon="12.505913867536798"><ele>1617.0</ele><time>2026-04-23T16:57:16.998Z</time></trkpt><trkpt lat="46.451299267248075" lon="12.50602910131713"><ele>1618.1999999999998</ele><time>2026-04-23T16:57:18.998Z</time></trkpt><trkpt lat="46.45122626239621" lon="12.506176127471669"><ele>1619.4</ele><time>2026-04-23T16:57:20.998Z</time></trkpt><trkpt lat="46.451143485863945" lon="12.506248224789337"><ele>1620.6</ele><time>2026-04-23T16:57:21.998Z</time></trkpt><trkpt lat="46.45108077950843" lon="12.506344867088252"><ele>1621.8000000000002</ele><time>2026-04-23T16:57:22.998Z</time></trkpt><trkpt lat="46.45098328908921" lon="12.506470037279543"><ele>1623.0</ele><time>2026-04-23T16:57:25Z</time></trkpt><trkpt lat="46.450929540507" lon="12.506529970848476"><ele>1623.0</ele><time>2026-04-23T16:57:26Z</time></trkpt><trkpt lat="46.45086359950128" lon="12.506593599795552"><ele>1623.0</ele><time>2026-04-23T16:57:27Z</time></trkpt><trkpt lat="46.450784735657216" lon="12.506688282006532"><ele>1623.0</ele><time>2026-04-23T16:57:29Z</time></trkpt><trkpt lat="46.450821219255694" lon="12.506508776081803"><ele>1623.0</ele><time>2026-04-23T16:57:35Z</time></trkpt><trkpt lat="46.45085661693684" lon="12.506419341335487"><ele>1623.0</ele><time>2026-04-23T16:57:36Z</time></trkpt><trkpt lat="46.45089386160368" lon="12.50632524009223"><ele>1629.0</ele><time>2026-04-23T16:57:37Z</time></trkpt><trkpt lat="46.450938019482784" lon="12.506202006207229"><ele>1635.0</ele><time>2026-04-23T16:57:38Z</time></trkpt><trkpt lat="46.450967279810904" lon="12.506096246036979"><ele>1641.0</ele><time>2026-04-23T16:57:39Z</time></trkpt><trkpt lat="46.4509907038131" lon="12.50599206556521"><ele>1647.0</ele><time>2026-04-23T16:57:40Z</time></trkpt><trkpt lat="46.45101334189344" lon="12.505866310497439"><ele>1653.0</ele><time>2026-04-23T16:57:41Z</time></trkpt><trkpt lat="46.45106193877555" lon="12.505717929363982"><ele>1653.0</ele><time>2026-04-23T16:57:42Z</time></trkpt><trkpt lat="46.45111021473929" lon="12.505535624003173"><ele>1653.0</ele><time>2026-04-23T16:57:43Z</time></trkpt><trkpt lat="46.4511513746466" lon="12.505353988953416"><ele>1653.0</ele><time>2026-04-23T16:57:44Z</time></trkpt><trkpt lat="46.45117633304261" lon="12.505206441834645"><ele>1653.0</ele><time>2026-04-23T16:57:45Z</time></trkpt><trkpt lat="46.45122100843039" lon="12.505105467103178"><ele>1652.8000000000002</ele><time>2026-04-23T16:57:46Z</time></trkpt><trkpt lat="46.4512548719867" lon="12.504992849634991"><ele>1652.6</ele><time>2026-04-23T16:57:47Z</time></trkpt><trkpt lat="46.45129744015306" lon="12.504841932825645"><ele>1652.4</ele><time>2026-04-23T16:57:48Z</time></trkpt><trkpt lat="46.451331814095354" lon="12.504713032382815"><ele>1652.1999999999998</ele><time>2026-04-23T16:57:49Z</time></trkpt><trkpt lat="46.451359737797766" lon="12.50461000967062"><ele>1652.0</ele><time>2026-04-23T16:57:50Z</time></trkpt><trkpt lat="46.45140998680942" lon="12.504425556583204"><ele>1651.9999999999998</ele><time>2026-04-23T16:57:52Z</time></trkpt><trkpt lat="46.45145499770424" lon="12.504315348798027"><ele>1652.0</ele><time>2026-04-23T16:57:53Z</time></trkpt><trkpt lat="46.451487315921455" lon="12.504234680126407"><ele>1652.0</ele><time>2026-04-23T16:57:54Z</time></trkpt><trkpt lat="46.451499713258876" lon="12.504059967865835"><ele>1652.0</ele><time>2026-04-23T16:57:56Z</time></trkpt><trkpt lat="46.45151054355141" lon="12.503954981147213"><ele>1651.9999999999998</ele><time>2026-04-23T16:57:57Z</time></trkpt><trkpt lat="46.45151330041332" lon="12.503852278445487"><ele>1652.0</ele><time>2026-04-23T16:57:58Z</time></trkpt><trkpt lat="46.45153972776837" lon="12.503744033463411"><ele>1652.3333333333333</ele><time>2026-04-23T16:57:59Z</time></trkpt><trkpt lat="46.4515507589607" lon="12.50363417433701"><ele>1652.6666666666665</ele><time>2026-04-23T16:58:00Z</time></trkpt><trkpt lat="46.451562940313735" lon="12.503464739216929"><ele>1653.0</ele><time>2026-04-23T16:58:01.999Z</time></trkpt><trkpt lat="46.4515558166672" lon="12.503359110438046"><ele>1653.3333333333335</ele><time>2026-04-23T16:58:03.999Z</time></trkpt><trkpt lat="46.45149124062555" lon="12.503356863298928"><ele>1653.6666666666667</ele><time>2026-04-23T16:58:05.999Z</time></trkpt><trkpt lat="46.451453140368386" lon="12.50350165598877"><ele>1654.0</ele><time>2026-04-23T16:58:08.999Z</time></trkpt><trkpt lat="46.45141368879069" lon="12.503638772344846"><ele>1653.6</ele><time>2026-04-23T16:58:10.999Z</time></trkpt><trkpt lat="46.451332199814544" lon="12.503774466338072"><ele>1653.2</ele><time>2026-04-23T16:58:12.999Z</time></trkpt><trkpt lat="46.4512681209168" lon="12.503854182829667"><ele>1652.8</ele><time>2026-04-23T16:58:13.999Z</time></trkpt><trkpt lat="46.451193605009145" lon="12.503927227523503"><ele>1652.3999999999999</ele><time>2026-04-23T16:58:14.999Z</time></trkpt><trkpt lat="46.45112125860369" lon="12.503991821265869"><ele>1652.0</ele><time>2026-04-23T16:58:15.999Z</time></trkpt><trkpt lat="46.45105211041815" lon="12.504051068656892"><ele>1658.1666666666665</ele><time>2026-04-23T16:58:16.999Z</time></trkpt><trkpt lat="46.45099852901315" lon="12.504113156421555"><ele>1664.3333333333333</ele><time>2026-04-23T16:58:17.999Z</time></trkpt><trkpt lat="46.45091338643383" lon="12.504185109880115"><ele>1670.5</ele><time>2026-04-23T16:58:19.999Z</time></trkpt><trkpt lat="46.4508439150048" lon="12.504280547550287"><ele>1676.6666666666665</ele><time>2026-04-23T16:58:21.999Z</time></trkpt><trkpt lat="46.45090303765848" lon="12.50423999559046"><ele>1682.8333333333333</ele><time>2026-04-23T16:58:45.999Z</time></trkpt><trkpt lat="46.450895706300905" lon="12.504146910778147"><ele>1689.0</ele><time>2026-04-23T17:00:36.999Z</time></trkpt><trkpt lat="46.45092913137897" lon="12.504063132082212"><ele>1689.0</ele><time>2026-04-23T17:00:39.999Z</time></trkpt><trkpt lat="46.45098436693098" lon="12.503948777281183"><ele>1689.0</ele><time>2026-04-23T17:00:43.999Z</time></trkpt><trkpt lat="46.451021170390426" lon="12.5038650772744"><ele>1689.0</ele><time>2026-04-23T17:00:55.999Z</time></trkpt><trkpt lat="46.45106234430947" lon="12.50376716005241"><ele>1689.0</ele><time>2026-04-23T17:01:03.998Z</time></trkpt><trkpt lat="46.45109446905424" lon="12.50365797215466"><ele>1689.0</ele><time>2026-04-23T17:01:07.998Z</time></trkpt><trkpt lat="46.451119865111366" lon="12.50356270955557"><ele>1689.0</ele><time>2026-04-23T17:01:11.998Z</time></trkpt><trkpt lat="46.451140418297726" lon="12.503462394182995"><ele>1691.2857142857144</ele><time>2026-04-23T17:01:16.998Z</time></trkpt><trkpt lat="46.45115826540973" lon="12.503361879252635"><ele>1693.5714285714284</ele><time>2026-04-23T17:01:22.998Z</time></trkpt><trkpt lat="46.451172559156774" lon="12.503270888146007"><ele>1695.857142857143</ele><time>2026-04-23T17:01:27.998Z</time></trkpt><trkpt lat="46.45118541866503" lon="12.503169233115829"><ele>1698.1428571428573</ele><time>2026-04-23T17:01:33.998Z</time></trkpt><trkpt lat="46.451196855324525" lon="12.503070158171585"><ele>1700.4285714285716</ele><time>2026-04-23T17:01:43Z</time></trkpt><trkpt lat="46.45120949220952" lon="12.50296337817701"><ele>1702.7142857142858</ele><time>2026-04-23T17:01:49Z</time></trkpt><trkpt lat="46.45122202623772" lon="12.50287088537411"><ele>1705.0</ele><time>2026-04-23T17:01:55Z</time></trkpt><trkpt lat="46.45121644869631" lon="12.502763478345663"><ele>1705.0000000000002</ele><time>2026-04-23T17:02:01Z</time></trkpt><trkpt lat="46.45121731906696" lon="12.502656711915725"><ele>1705.0</ele><time>2026-04-23T17:02:07Z</time></trkpt><trkpt lat="46.45120052430711" lon="12.502563800758804"><ele>1705.0</ele><time>2026-04-23T17:02:12.999Z</time></trkpt><trkpt lat="46.451172949321474" lon="12.502474805308768"><ele>1705.0</ele><time>2026-04-23T17:02:18.999Z</time></trkpt><trkpt lat="46.45113917921203" lon="12.502389353402721"><ele>1705.0</ele><time>2026-04-23T17:02:25.999Z</time></trkpt><trkpt lat="46.451108718314124" lon="12.502288972377409"><ele>1705.0000000000002</ele><time>2026-04-23T17:02:32.999Z</time></trkpt><trkpt lat="46.45106988105681" lon="12.50220112672057"><ele>1705.0</ele><time>2026-04-23T17:02:40.999Z</time></trkpt><trkpt lat="46.45100370025822" lon="12.50221292364049"><ele>1705.0</ele><time>2026-04-23T17:03:14.998Z</time></trkpt><trkpt lat="46.450938838279924" lon="12.50223369398901"><ele>1705.0</ele><time>2026-04-23T17:03:20.998Z</time></trkpt><trkpt lat="46.45096476105275" lon="12.502143518760882"><ele>1705.0</ele><time>2026-04-23T17:04:16.999Z</time></trkpt><trkpt lat="46.45113103010262" lon="12.50227208497267"><ele>1705.0</ele><time>2026-04-23T17:05:46.999Z</time></trkpt><trkpt lat="46.451140931748874" lon="12.502368569896236"><ele>1705.0</ele><time>2026-04-23T17:05:52.999Z</time></trkpt><trkpt lat="46.4511649283015" lon="12.502468955356772"><ele>1705.0</ele><time>2026-04-23T17:05:58.999Z</time></trkpt><trkpt lat="46.451199817750144" lon="12.502561219982134"><ele>1705.0</ele><time>2026-04-23T17:06:04.999Z</time></trkpt><trkpt lat="46.45121872055768" lon="12.502666910076579"><ele>1705.0</ele><time>2026-04-23T17:06:09.999Z</time></trkpt><trkpt lat="46.451225260534954" lon="12.502779084727308"><ele>1705.0</ele><time>2026-04-23T17:06:17.999Z</time></trkpt><trkpt lat="46.451220502811374" lon="12.50288451846834"><ele>1705.0</ele><time>2026-04-23T17:06:23.999Z</time></trkpt><trkpt lat="46.451206706023235" lon="12.502983685283793"><ele>1705.0</ele><time>2026-04-23T17:06:28.999Z</time></trkpt></trkseg></trk></gpx>